[[{"header":{"parameterUnit":"m.s-1","parameterCategory":1,"la1":31.0,"la2":29.5877,"lo1":-88.7671,"lo2":-86.6584,"dy":0.0162,"dx":0.0185,"nx":115,"ny":88,"refTime":"2023-03-28T12:00:00:Z","depth":0,"parameterNumber":2,"parameterNumberName":"U-component_of_WINDS"},"data":[0.0,0.0,0.0,0.0,0.0,0.0,0.0,0.0,0.0,0.0,0.0,0.0,0.0,0.0,0.0,0.0,0.0,0.0,0.0,0.0,0.0,0.0,0.0,0.0,0.0,0.0,0.0,0.0,0.0,0.0,0.0,0.0,0.0,0.0,0.0,0.0,0.0,0.0,0.0,0.0,0.0,0.0,0.0,0.0,0.0,0.0,0.0,0.0,0.0,0.0,0.0,0.0,0.0,0.0,0.0,0.0,0.0,0.0,0.0,0.0,0.0,0.0,0.0,0.0,0.0,0.0,0.0,0.0,0.0,0.0,0.0,0.0,0.0,0.0,0.0,0.0,0.0,0.0,0.0,0.0,0.0,0.0,0.0,0.0,0.0,0.0,0.0,0.0,0.0,0.0,0.0,0.0,0.0,0.0,0.0,0.0,0.0,0.0,0.0,0.0,0.0,0.0,0.0,0.0,0.0,0.0,0.0,0.0,0.0,0.0,0.0,0.0,0.0,0.0,0.0,0.0,0.0,0.0,0.0,0.0,0.0,0.0,0.0,0.0,0.0,0.0,0.0,0.0,0.0,0.0,0.0,0.0,0.0,0.0,0.0,0.0,0.0,0.0,0.0,0.0,0.0,0.0,0.0,0.0,0.0,0.0,0.0,0.0,0.0,0.0,0.0,0.0,0.0,0.0,0.0,0.0,0.0,0.0,0.0,0.0,0.0,0.0,0.0,0.0,0.0,0.0,0.0,0.0,0.0,0.0,0.0,0.0,0.0,0.0,0.0,0.0,0.0,0.0,0.0,0.0,0.0,0.0,0.0,0.0,0.0,0.0,0.0,0.0,0.0,0.0,0.0,0.0,0.0,0.0,0.0,0.0,0.0,0.0,0.0,0.0,0.0,0.0,0.0,0.0,0.0,0.0,0.0,0.0,0.0,0.0,0.0,0.0,0.0,0.0,0.0,0.0,0.0,0.0,0.0,0.0,0.0,0.0,0.0,0.0,0.0,0.0,0.0,0.0,0.0,0.0,0.0,0.0,0.0,0.0,0.0,0.0,0.0,0.0,0.0,0.0,0.0,0.0,0.0,0.0,0.0,0.0,0.0,0.0,0.0,0.0,0.0,0.0,0.0,0.0,0.0,0.0,0.0,0.0,0.0,0.0,0.0,0.0,0.0,0.0,0.0,0.0,0.0,0.0,0.0,0.0,0.0,0.0,0.0,0.0,0.0,0.0,0.0,0.0,0.0,0.0,0.0,0.0,0.0,0.0,0.0,0.0,0.0,0.0,0.0,0.0,0.0,0.0,0.0,0.0,0.0,0.0,0.0,0.0,0.0,0.0,0.0,0.0,0.0,0.0,0.0,0.0,0.0,0.0,0.0,0.0,0.0,0.0,0.0,0.0,0.0,0.0,0.0,0.0,0.0,0.0,0.0,0.0,0.0,0.0,0.0,0.0,0.0,0.0,0.0,0.0,0.0,0.0,0.0,0.0,0.0,0.0,0.0,0.0,0.0,0.0,0.0,0.0,0.0,0.0,0.0,0.0,0.0,0.0,0.0,0.0,0.0,0.0,0.0,0.0,0.0,0.0,0.0,0.0,0.0,0.0,0.0,0.0,0.0,0.0,0.0,0.0,0.0,0.0,0.0,0.0,0.0,0.0,0.0,0.0,0.0,0.0,0.0,0.0,0.0,0.0,0.0,0.0,0.0,0.0,0.0,0.0,0.0,0.0,0.0,0.0,0.0,0.0,0.0,0.0,0.0,0.0,0.0,0.0,0.0,0.0,0.0,0.0,0.0,0.0,0.0,0.0,0.0,0.0,0.0,0.0,0.0,0.0,0.0,0.0,0.0,0.0,0.0,0.0,0.0,0.0,0.0,0.0,0.0,0.0,0.0,0.0,0.0,0.0,0.0,0.0,0.0,0.0,0.0,0.0,0.0,0.0,0.0,0.0,0.0,0.0,0.0,0.0,0.0,0.0,0.0,0.0,0.0,0.0,0.0,0.0,0.0,0.0,0.0,0.0,0.0,0.0,0.0,0.0,0.0,0.0,0.0,0.0,0.0,0.0,0.0,0.0,0.0,0.0,0.0,0.0,0.0,0.0,0.0,0.0,0.0,0.0,0.0,0.0,0.0,0.0,0.0,0.0,0.0,0.0,0.0,0.0,0.0,0.0,0.0,0.0,0.0,0.0,0.0,0.0,0.0,0.0,0.0,0.0,0.0,0.0,0.0,0.0,0.0,0.0,0.0,0.0,0.0,0.0,0.0,0.0,0.0,0.0,0.0,0.0,0.0,0.0,0.0,0.0,0.0,0.0,0.0,0.0,0.0,0.0,0.0,0.0,0.0,0.0,0.0,0.0,0.0,0.0,0.0,0.0,0.0,0.0,0.0,0.0,0.0,0.0,0.0,0.0,0.0,0.0,0.0,0.0,0.0,0.0,0.0,0.0,0.0,0.0,0.0,0.0,0.0,0.0,0.0,0.0,0.0,0.0,0.0,0.0,0.0,0.0,0.0,0.0,0.0,0.0,0.0,0.0,0.0,0.0,0.0,0.0,0.0,0.0,0.0,0.0,0.0,0.0,0.0,0.0,0.0,0.0,0.0,0.0,0.0,0.0,0.0,0.0,0.0,0.0,0.0,0.0,0.0,0.0,0.0,0.0,0.0,0.0,0.0,0.0,0.0,0.0,0.0,0.0,0.0,0.0,0.0,0.0,0.0,0.0,0.0,0.0,0.0,0.0,0.0,0.0,0.0,0.0,0.0,0.0,0.0,0.0,0.0,0.0,0.0,0.0,0.0,0.0,0.0,0.0,0.0,0.0,0.0,0.0,0.0,0.0,0.0,0.0,0.0,0.0,0.0,0.0,0.0,0.0,0.0,0.0,0.0,0.0,0.0,0.0,0.0,0.0,0.0,0.0,0.0,0.0,0.0,0.0,0.0,0.0,0.0,0.0,0.0,0.0,0.0,0.0,0.0,0.0,0.0,0.0,0.0,0.0,0.0,0.0,0.0,0.0,0.0,0.0,0.0,0.0,0.0,0.0,0.0,0.0,0.0,0.0,0.0,0.0,0.0,0.0,0.0,0.0,0.0,0.0,0.0,0.0,0.0,0.0,0.0,0.0,0.0,0.0,0.0,0.0,0.0,0.0,0.0,0.0,0.0,0.0,0.0,0.0,0.0,0.0,0.0,0.0,0.0,0.0,0.0,0.0,0.0,0.0,0.0,0.0,0.0,0.0,0.0,0.0,0.0,0.0,0.0,0.0,0.0,0.0,0.0,0.0,0.0,0.0,0.0,0.0,0.0,0.0,0.0,0.0,0.0,0.0,0.0,0.0,0.0,0.0,0.0,0.0,0.0,0.0,0.0,0.0,0.0,0.0,0.0,0.0,0.0,0.0,0.0,0.0,0.0,0.0,0.0,0.0,0.0,0.0,0.0,0.0,0.0,0.0,0.0,0.0,0.0,0.0,0.0,0.0,0.0,0.0,0.0,0.0,0.0,0.0,0.0,0.0,0.0,0.0,0.0,0.0,0.0,0.0,0.0,0.0,0.0,0.0,0.0,0.0,0.0,0.0,0.0,0.0,0.0,0.0,0.0,0.0,0.0,0.0,0.0,0.0,0.0,0.0,0.0,0.0,0.0,0.0,0.0,0.0,0.0,0.0,0.0,0.0,0.0,0.0,0.0,0.0,0.0,0.0,0.0,0.0,0.0,0.0,0.0,0.0,0.0,0.0,0.0,0.0,0.0,0.0,0.0,0.0,0.0,0.0,0.0,0.0,0.0,0.0,0.0,0.0,0.0,0.0,0.0,0.0,0.0,0.0,0.0,0.0,0.0,0.0,0.0,0.0,0.0,0.0,0.0,0.0,0.0,0.0,0.0,0.0,0.0,0.0,0.0,0.0,0.0,0.0,0.0,0.0,0.0,0.0,0.0,0.0,0.0,0.0,0.0,0.0,0.0,0.0,0.0,0.0,0.0,0.0,0.0,0.0,0.0,0.0,0.0,0.0,0.0,0.0,0.0,0.0,0.0,0.0,0.0,0.0,0.0,0.0,0.0,0.0,0.0,0.0,0.0,0.0,0.0,0.0,0.0,0.0,0.0,0.0,0.0,0.0,0.0,0.0,0.0,0.0,0.0,0.0,0.0,0.0,0.0,0.0,0.0,0.0,0.0,0.0,0.0,0.0,0.0,0.0,0.0,0.0,0.0,0.0,0.0,0.0,0.0,0.0,0.0,0.0,0.0,0.0,0.0,0.0,0.0,0.0,0.0,0.0,-6.4414,0.0,0.0,0.0,-6.4297,0.0,0.0,0.0,0.0,0.0,0.0,0.0,0.0,0.0,0.0,0.0,0.0,0.0,0.0,0.0,0.0,0.0,0.0,0.0,0.0,0.0,0.0,0.0,0.0,0.0,0.0,0.0,0.0,0.0,0.0,0.0,0.0,0.0,0.0,0.0,0.0,0.0,0.0,0.0,0.0,0.0,0.0,0.0,0.0,0.0,0.0,0.0,0.0,0.0,0.0,0.0,0.0,0.0,0.0,0.0,0.0,0.0,0.0,0.0,0.0,0.0,0.0,0.0,0.0,0.0,0.0,0.0,0.0,0.0,0.0,0.0,0.0,0.0,0.0,0.0,0.0,0.0,0.0,0.0,0.0,0.0,0.0,0.0,0.0,0.0,0.0,0.0,0.0,0.0,0.0,0.0,0.0,0.0,0.0,0.0,0.0,0.0,0.0,0.0,0.0,0.0,0.0,0.0,0.0,0.0,0.0,0.0,0.0,0.0,0.0,-6.3359,-6.289,-6.289,-6.289,-6.289,0.0,0.0,0.0,0.0,0.0,0.0,0.0,0.0,0.0,0.0,0.0,0.0,0.0,0.0,0.0,0.0,0.0,0.0,0.0,0.0,0.0,0.0,0.0,0.0,0.0,0.0,0.0,0.0,0.0,0.0,0.0,0.0,0.0,0.0,0.0,0.0,0.0,0.0,0.0,0.0,0.0,0.0,0.0,0.0,0.0,0.0,0.0,0.0,0.0,0.0,0.0,0.0,0.0,0.0,0.0,0.0,0.0,0.0,0.0,0.0,0.0,0.0,0.0,0.0,0.0,0.0,0.0,0.0,0.0,0.0,0.0,0.0,0.0,0.0,0.0,0.0,0.0,0.0,0.0,0.0,0.0,0.0,0.0,0.0,0.0,0.0,0.0,0.0,0.0,0.0,0.0,0.0,0.0,0.0,0.0,0.0,0.0,0.0,0.0,0.0,0.0,0.0,0.0,0.0,0.0,0.0,0.0,0.0,0.0,0.0,0.0,0.0,-6.1719,-6.1719,-6.1719,0.0,0.0,0.0,0.0,0.0,0.0,0.0,0.0,0.0,0.0,0.0,0.0,0.0,0.0,0.0,0.0,0.0,0.0,0.0,0.0,0.0,0.0,0.0,0.0,0.0,0.0,0.0,0.0,0.0,0.0,0.0,0.0,0.0,0.0,0.0,0.0,0.0,0.0,0.0,0.0,0.0,0.0,0.0,0.0,0.0,0.0,0.0,0.0,0.0,0.0,0.0,0.0,0.0,0.0,0.0,0.0,0.0,0.0,0.0,0.0,0.0,0.0,0.0,0.0,0.0,0.0,0.0,0.0,0.0,0.0,0.0,0.0,0.0,0.0,0.0,0.0,0.0,0.0,0.0,0.0,0.0,0.0,0.0,0.0,0.0,0.0,0.0,0.0,0.0,0.0,0.0,0.0,0.0,0.0,0.0,0.0,0.0,0.0,0.0,0.0,0.0,0.0,0.0,0.0,0.0,0.0,0.0,0.0,0.0,0.0,-6.1797,-6.1719,-6.1719,0.0,-6.1719,0.0,0.0,0.0,0.0,0.0,0.0,0.0,0.0,0.0,0.0,0.0,0.0,0.0,0.0,0.0,0.0,0.0,0.0,0.0,0.0,0.0,0.0,0.0,0.0,0.0,0.0,0.0,0.0,0.0,0.0,0.0,0.0,0.0,0.0,0.0,0.0,0.0,0.0,0.0,0.0,0.0,0.0,0.0,0.0,0.0,0.0,0.0,0.0,0.0,0.0,0.0,0.0,0.0,0.0,0.0,0.0,0.0,0.0,0.0,0.0,0.0,0.0,0.0,0.0,0.0,0.0,0.0,0.0,0.0,0.0,0.0,0.0,0.0,0.0,0.0,0.0,0.0,0.0,0.0,0.0,0.0,0.0,0.0,0.0,0.0,0.0,0.0,0.0,0.0,0.0,0.0,0.0,0.0,0.0,0.0,0.0,0.0,0.0,0.0,0.0,0.0,0.0,0.0,0.0,0.0,0.0,0.0,0.0,0.0,0.0,-6.1719,-6.1719,-6.1719,-6.1719,0.0,0.0,0.0,0.0,0.0,0.0,0.0,0.0,0.0,0.0,0.0,0.0,0.0,0.0,0.0,0.0,0.0,0.0,0.0,0.0,0.0,0.0,0.0,0.0,0.0,0.0,0.0,0.0,0.0,0.0,0.0,0.0,0.0,0.0,0.0,0.0,0.0,0.0,0.0,0.0,0.0,0.0,0.0,0.0,0.0,0.0,0.0,0.0,0.0,0.0,0.0,0.0,0.0,0.0,0.0,0.0,0.0,0.0,0.0,0.0,0.0,0.0,0.0,0.0,0.0,0.0,0.0,0.0,0.0,0.0,0.0,0.0,0.0,0.0,0.0,0.0,0.0,0.0,0.0,0.0,0.0,0.0,0.0,0.0,0.0,0.0,0.0,0.0,0.0,0.0,0.0,0.0,0.0,0.0,0.0,0.0,0.0,0.0,0.0,0.0,0.0,0.0,0.0,0.0,0.0,0.0,0.0,0.0,0.0,0.0,-6.1719,-6.1719,-6.1719,-6.1719,-6.1719,-6.1719,0.0,0.0,0.0,0.0,0.0,0.0,0.0,0.0,0.0,0.0,0.0,0.0,0.0,0.0,0.0,0.0,0.0,0.0,0.0,0.0,0.0,0.0,0.0,0.0,0.0,0.0,0.0,0.0,0.0,0.0,0.0,0.0,0.0,0.0,0.0,0.0,0.0,0.0,0.0,0.0,0.0,0.0,0.0,0.0,0.0,0.0,0.0,0.0,0.0,0.0,0.0,0.0,0.0,0.0,0.0,0.0,0.0,0.0,0.0,0.0,0.0,0.0,0.0,0.0,0.0,0.0,0.0,0.0,0.0,0.0,0.0,0.0,0.0,0.0,0.0,0.0,0.0,0.0,0.0,0.0,0.0,0.0,0.0,0.0,0.0,0.0,0.0,0.0,0.0,0.0,0.0,0.0,0.0,0.0,0.0,0.0,0.0,0.0,0.0,0.0,0.0,0.0,0.0,0.0,0.0,0.0,0.0,0.0,-6.1719,-6.1719,-6.1719,-6.1719,-6.1719,-6.1719,0.0,0.0,0.0,0.0,0.0,0.0,0.0,0.0,0.0,0.0,0.0,0.0,0.0,0.0,0.0,0.0,0.0,0.0,0.0,0.0,0.0,0.0,0.0,0.0,0.0,0.0,0.0,0.0,0.0,0.0,0.0,0.0,0.0,0.0,0.0,0.0,0.0,0.0,0.0,0.0,0.0,0.0,0.0,0.0,0.0,0.0,0.0,0.0,0.0,0.0,0.0,0.0,0.0,0.0,0.0,0.0,0.0,0.0,0.0,0.0,0.0,0.0,0.0,0.0,0.0,0.0,0.0,0.0,0.0,0.0,0.0,0.0,0.0,0.0,0.0,0.0,0.0,0.0,0.0,0.0,0.0,0.0,0.0,0.0,0.0,0.0,0.0,0.0,0.0,0.0,0.0,0.0,0.0,0.0,0.0,0.0,0.0,0.0,0.0,0.0,0.0,0.0,0.0,0.0,0.0,0.0,0.0,0.0,0.0,-6.1719,-6.1719,-6.1719,-6.1719,-6.1719,-6.1719,0.0,0.0,0.0,0.0,0.0,0.0,0.0,0.0,0.0,0.0,0.0,0.0,0.0,0.0,0.0,0.0,0.0,0.0,0.0,0.0,0.0,0.0,0.0,0.0,0.0,0.0,0.0,0.0,0.0,0.0,0.0,0.0,0.0,0.0,0.0,0.0,0.0,0.0,0.0,0.0,0.0,0.0,0.0,0.0,0.0,0.0,0.0,0.0,0.0,0.0,0.0,0.0,0.0,0.0,0.0,0.0,0.0,0.0,0.0,0.0,0.0,0.0,0.0,0.0,0.0,0.0,0.0,0.0,0.0,0.0,0.0,0.0,0.0,0.0,0.0,0.0,0.0,0.0,0.0,0.0,0.0,0.0,0.0,0.0,0.0,0.0,0.0,0.0,0.0,0.0,0.0,0.0,0.0,0.0,0.0,0.0,0.0,0.0,0.0,0.0,0.0,0.0,0.0,0.0,0.0,0.0,0.0,0.0,0.0,-6.1719,0.0,-6.1719,-6.1719,-6.1719,-6.1719,0.0,0.0,0.0,0.0,0.0,0.0,0.0,0.0,0.0,0.0,0.0,0.0,0.0,0.0,0.0,0.0,0.0,0.0,0.0,0.0,0.0,0.0,0.0,0.0,0.0,0.0,0.0,0.0,0.0,0.0,0.0,0.0,0.0,0.0,0.0,0.0,0.0,0.0,0.0,0.0,0.0,0.0,0.0,0.0,0.0,0.0,0.0,0.0,0.0,0.0,0.0,0.0,0.0,0.0,0.0,0.0,0.0,0.0,0.0,0.0,0.0,0.0,0.0,0.0,0.0,0.0,0.0,0.0,0.0,0.0,0.0,0.0,0.0,0.0,0.0,0.0,0.0,0.0,0.0,0.0,0.0,0.0,0.0,0.0,0.0,0.0,0.0,0.0,0.0,0.0,0.0,0.0,0.0,0.0,0.0,0.0,0.0,0.0,0.0,0.0,0.0,0.0,0.0,0.0,0.0,0.0,0.0,0.0,-6.1719,-6.1719,-6.1719,-6.1719,-6.1719,-6.1719,-6.1719,0.0,0.0,0.0,0.0,0.0,0.0,0.0,0.0,0.0,0.0,0.0,0.0,0.0,0.0,0.0,0.0,0.0,0.0,0.0,0.0,0.0,0.0,0.0,0.0,0.0,0.0,0.0,0.0,0.0,0.0,0.0,0.0,0.0,0.0,0.0,0.0,0.0,0.0,0.0,0.0,0.0,0.0,0.0,0.0,0.0,0.0,0.0,0.0,0.0,0.0,0.0,0.0,0.0,0.0,0.0,0.0,0.0,0.0,0.0,0.0,0.0,0.0,0.0,0.0,0.0,0.0,0.0,0.0,0.0,0.0,0.0,0.0,0.0,0.0,0.0,0.0,0.0,0.0,0.0,0.0,0.0,0.0,0.0,0.0,0.0,0.0,0.0,0.0,0.0,0.0,0.0,0.0,0.0,0.0,0.0,0.0,0.0,0.0,0.0,0.0,0.0,0.0,0.0,0.0,0.0,0.0,0.0,0.0,0.0,-6.1719,-6.1719,-6.1719,-6.1719,-6.1719,-6.1719,0.0,0.0,0.0,0.0,0.0,0.0,0.0,0.0,0.0,0.0,0.0,0.0,0.0,0.0,0.0,0.0,0.0,0.0,0.0,0.0,0.0,0.0,0.0,0.0,0.0,0.0,0.0,0.0,0.0,0.0,0.0,0.0,0.0,0.0,0.0,0.0,0.0,0.0,0.0,0.0,0.0,0.0,0.0,0.0,0.0,0.0,0.0,0.0,0.0,0.0,0.0,0.0,0.0,0.0,0.0,0.0,0.0,0.0,0.0,0.0,0.0,0.0,0.0,0.0,0.0,0.0,0.0,0.0,0.0,0.0,0.0,0.0,0.0,0.0,0.0,0.0,0.0,0.0,0.0,0.0,0.0,0.0,0.0,0.0,0.0,0.0,0.0,0.0,0.0,0.0,0.0,0.0,0.0,0.0,0.0,0.0,0.0,0.0,0.0,0.0,0.0,0.0,0.0,0.0,0.0,0.0,0.0,0.0,0.0,-6.2226,-6.25,-6.2656,-6.2695,-6.2344,-6.2187,-6.2187,0.0,0.0,0.0,0.0,0.0,0.0,0.0,0.0,0.0,0.0,0.0,0.0,0.0,0.0,0.0,0.0,0.0,0.0,0.0,0.0,0.0,0.0,0.0,0.0,0.0,0.0,0.0,0.0,0.0,0.0,0.0,0.0,0.0,0.0,0.0,0.0,0.0,0.0,0.0,0.0,0.0,0.0,0.0,0.0,0.0,0.0,0.0,0.0,0.0,0.0,0.0,0.0,0.0,0.0,0.0,0.0,0.0,0.0,0.0,0.0,0.0,0.0,0.0,0.0,0.0,0.0,0.0,0.0,0.0,0.0,0.0,0.0,0.0,0.0,0.0,0.0,0.0,0.0,0.0,0.0,0.0,0.0,0.0,0.0,0.0,0.0,0.0,0.0,0.0,0.0,0.0,0.0,0.0,0.0,0.0,0.0,0.0,0.0,0.0,0.0,0.0,0.0,0.0,0.0,0.0,0.0,0.0,0.0,-6.3203,-6.4062,-6.4414,-6.4258,-6.3437,-6.3008,0.0,0.0,0.0,0.0,0.0,0.0,0.0,0.0,0.0,0.0,0.0,0.0,0.0,0.0,0.0,0.0,0.0,0.0,0.0,0.0,0.0,0.0,0.0,0.0,0.0,0.0,0.0,0.0,0.0,0.0,0.0,0.0,0.0,0.0,0.0,0.0,0.0,0.0,0.0,0.0,0.0,0.0,0.0,0.0,0.0,0.0,0.0,0.0,0.0,0.0,0.0,0.0,0.0,0.0,0.0,0.0,0.0,0.0,0.0,0.0,0.0,0.0,0.0,0.0,0.0,0.0,0.0,0.0,0.0,0.0,0.0,0.0,0.0,0.0,0.0,0.0,0.0,0.0,0.0,0.0,0.0,0.0,0.0,0.0,0.0,0.0,0.0,0.0,0.0,0.0,0.0,0.0,0.0,0.0,0.0,0.0,0.0,0.0,0.0,0.0,0.0,0.0,0.0,0.0,0.0,0.0,0.0,0.0,0.0,-6.582,-6.6719,-6.625,-6.4375,-6.3437,-6.3008,0.0,0.0,0.0,0.0,0.0,0.0,0.0,0.0,0.0,0.0,0.0,0.0,0.0,0.0,0.0,0.0,0.0,0.0,0.0,0.0,0.0,0.0,0.0,0.0,0.0,0.0,0.0,0.0,0.0,0.0,0.0,0.0,0.0,0.0,0.0,0.0,0.0,0.0,0.0,0.0,0.0,0.0,0.0,0.0,0.0,0.0,0.0,0.0,0.0,0.0,0.0,0.0,0.0,0.0,0.0,0.0,0.0,0.0,0.0,0.0,0.0,0.0,0.0,0.0,0.0,0.0,0.0,0.0,0.0,0.0,0.0,0.0,0.0,0.0,0.0,0.0,0.0,0.0,0.0,0.0,0.0,0.0,0.0,0.0,0.0,0.0,0.0,0.0,0.0,0.0,0.0,0.0,0.0,0.0,0.0,0.0,0.0,0.0,0.0,0.0,0.0,0.0,0.0,0.0,0.0,0.0,0.0,0.0,-6.5117,-6.6875,-6.7773,-6.7461,-6.5976,-6.5117,-6.4297,0.0,0.0,0.0,0.0,0.0,0.0,0.0,0.0,0.0,0.0,0.0,0.0,0.0,0.0,0.0,0.0,0.0,0.0,0.0,0.0,0.0,0.0,0.0,0.0,0.0,0.0,0.0,0.0,0.0,0.0,0.0,0.0,0.0,0.0,0.0,0.0,0.0,0.0,0.0,0.0,0.0,0.0,0.0,0.0,0.0,0.0,0.0,0.0,0.0,0.0,0.0,0.0,0.0,0.0,0.0,0.0,0.0,0.0,0.0,0.0,0.0,0.0,0.0,0.0,0.0,0.0,0.0,0.0,0.0,0.0,0.0,0.0,0.0,0.0,0.0,0.0,0.0,0.0,0.0,0.0,0.0,0.0,0.0,0.0,0.0,0.0,0.0,0.0,0.0,0.0,0.0,0.0,0.0,0.0,0.0,0.0,0.0,0.0,0.0,0.0,0.0,0.0,0.0,0.0,0.0,0.0,0.0,0.0,-6.539,-6.7109,-6.8008,-6.8437,-6.8437,-6.7461,-6.6094,0.0,0.0,0.0,0.0,0.0,0.0,0.0,0.0,0.0,0.0,0.0,0.0,0.0,0.0,0.0,0.0,0.0,0.0,0.0,0.0,0.0,0.0,0.0,0.0,0.0,0.0,0.0,0.0,0.0,0.0,0.0,0.0,0.0,0.0,0.0,0.0,0.0,0.0,0.0,0.0,0.0,0.0,0.0,0.0,0.0,0.0,0.0,0.0,0.0,0.0,0.0,0.0,0.0,0.0,0.0,0.0,0.0,0.0,0.0,0.0,0.0,0.0,0.0,0.0,0.0,0.0,0.0,0.0,0.0,0.0,0.0,0.0,0.0,0.0,0.0,0.0,0.0,0.0,0.0,0.0,0.0,0.0,0.0,0.0,0.0,0.0,0.0,0.0,0.0,0.0,0.0,0.0,0.0,0.0,0.0,0.0,0.0,0.0,0.0,0.0,0.0,0.0,0.0,0.0,0.0,0.0,0.0,0.0,-6.7187,-6.8828,-6.9726,-7.0156,-7.0156,-6.8047,-6.6094,0.0,0.0,0.0,0.0,0.0,0.0,0.0,0.0,0.0,0.0,0.0,0.0,0.0,0.0,0.0,0.0,0.0,0.0,0.0,0.0,0.0,0.0,0.0,0.0,0.0,0.0,0.0,0.0,0.0,0.0,0.0,0.0,0.0,0.0,0.0,0.0,0.0,0.0,0.0,0.0,0.0,0.0,0.0,0.0,0.0,0.0,0.0,0.0,-6.0781,0.0,0.0,0.0,0.0,0.0,0.0,0.0,0.0,0.0,0.0,0.0,0.0,0.0,0.0,0.0,0.0,0.0,0.0,0.0,0.0,0.0,0.0,0.0,0.0,0.0,0.0,0.0,0.0,0.0,0.0,0.0,0.0,0.0,0.0,0.0,0.0,0.0,0.0,0.0,0.0,0.0,0.0,0.0,0.0,0.0,0.0,0.0,0.0,0.0,0.0,0.0,0.0,0.0,0.0,0.0,0.0,0.0,0.0,0.0,-6.7695,-6.9375,-7.0234,-7.0703,-7.0664,-6.9023,-6.7109,0.0,0.0,0.0,0.0,0.0,0.0,0.0,0.0,0.0,0.0,0.0,0.0,0.0,0.0,0.0,0.0,0.0,0.0,0.0,0.0,0.0,0.0,0.0,0.0,0.0,0.0,0.0,0.0,0.0,0.0,0.0,0.0,0.0,0.0,0.0,0.0,0.0,0.0,0.0,0.0,0.0,0.0,0.0,0.0,0.0,0.0,0.0,0.0,0.0,0.0,0.0,0.0,0.0,0.0,0.0,0.0,0.0,0.0,0.0,0.0,0.0,0.0,0.0,0.0,0.0,0.0,0.0,0.0,0.0,0.0,0.0,0.0,0.0,0.0,0.0,0.0,0.0,0.0,0.0,0.0,0.0,0.0,0.0,0.0,0.0,0.0,0.0,0.0,0.0,0.0,0.0,0.0,0.0,0.0,0.0,0.0,0.0,0.0,0.0,0.0,0.0,0.0,0.0,0.0,0.0,0.0,0.0,-6.625,-6.7969,-6.9336,-7.039,-7.082,-7.0703,-6.9922,-6.8281,-6.5703,0.0,0.0,0.0,0.0,0.0,0.0,0.0,0.0,0.0,0.0,0.0,0.0,0.0,0.0,0.0,0.0,0.0,0.0,0.0,0.0,0.0,0.0,0.0,0.0,0.0,0.0,0.0,0.0,0.0,0.0,0.0,0.0,0.0,0.0,0.0,0.0,0.0,0.0,-6.163,-6.1369,0.0,0.0,0.0,0.0,0.0,0.0,0.0,0.0,-6.1012,0.0,0.0,0.0,0.0,0.0,0.0,0.0,0.0,0.0,0.0,0.0,0.0,0.0,0.0,0.0,0.0,0.0,0.0,0.0,0.0,0.0,0.0,0.0,0.0,0.0,0.0,0.0,0.0,0.0,0.0,0.0,0.0,0.0,0.0,0.0,0.0,0.0,0.0,0.0,0.0,0.0,0.0,0.0,0.0,0.0,0.0,0.0,0.0,0.0,0.0,0.0,0.0,0.0,0.0,0.0,0.0,-6.4336,-6.7383,-6.9101,-6.9414,-7.0976,-7.1445,-7.0742,-6.9922,-6.8281,-6.5742,0.0,0.0,0.0,0.0,0.0,0.0,0.0,0.0,0.0,0.0,0.0,0.0,0.0,0.0,0.0,0.0,0.0,0.0,0.0,0.0,0.0,0.0,0.0,0.0,0.0,0.0,0.0,0.0,0.0,0.0,0.0,0.0,0.0,0.0,0.0,0.0,0.0,0.0,0.0,-6.2116,-6.2075,0.0,0.0,0.0,0.0,0.0,0.0,0.0,0.0,-6.187,0.0,0.0,0.0,0.0,0.0,0.0,0.0,0.0,0.0,0.0,0.0,0.0,0.0,0.0,0.0,0.0,0.0,0.0,0.0,0.0,0.0,0.0,0.0,0.0,0.0,0.0,0.0,0.0,0.0,0.0,0.0,0.0,0.0,0.0,0.0,0.0,0.0,0.0,0.0,0.0,0.0,0.0,0.0,0.0,0.0,0.0,0.0,0.0,0.0,0.0,0.0,0.0,0.0,0.0,0.0,-6.5117,-6.793,-6.9648,-7.0117,-7.1328,-7.1562,-7.0703,-6.9492,-6.7812,0.0,0.0,0.0,0.0,0.0,0.0,0.0,0.0,0.0,0.0,0.0,0.0,0.0,0.0,0.0,0.0,0.0,0.0,0.0,0.0,0.0,0.0,0.0,0.0,0.0,0.0,0.0,0.0,0.0,0.0,0.0,0.0,0.0,0.0,0.0,0.0,0.0,0.0,0.0,0.0,-6.223,-6.2326,-6.269,0.0,0.0,0.0,0.0,0.0,0.0,-6.2101,-6.2101,0.0,0.0,0.0,0.0,0.0,0.0,0.0,0.0,0.0,0.0,0.0,0.0,0.0,0.0,0.0,0.0,0.0,0.0,0.0,0.0,0.0,0.0,0.0,0.0,0.0,0.0,0.0,0.0,0.0,0.0,0.0,0.0,0.0,0.0,0.0,0.0,0.0,0.0,0.0,0.0,0.0,0.0,0.0,0.0,0.0,0.0,0.0,0.0,0.0,0.0,0.0,0.0,0.0,0.0,0.0,-6.5898,-6.8242,-6.9883,-7.0703,-7.1562,-7.1523,-7.0469,-6.8984,-6.7305,0.0,0.0,0.0,0.0,0.0,0.0,0.0,0.0,0.0,0.0,0.0,0.0,0.0,0.0,0.0,0.0,0.0,0.0,0.0,0.0,0.0,0.0,0.0,0.0,0.0,0.0,0.0,0.0,0.0,0.0,0.0,0.0,0.0,0.0,0.0,0.0,0.0,0.0,0.0,0.0,0.0,-6.2551,-6.3205,-6.2897,0.0,0.0,0.0,0.0,-6.2589,-6.2601,0.0,0.0,0.0,0.0,0.0,0.0,0.0,0.0,0.0,0.0,0.0,0.0,0.0,0.0,0.0,0.0,0.0,0.0,0.0,0.0,0.0,0.0,0.0,0.0,0.0,0.0,0.0,0.0,0.0,0.0,0.0,0.0,0.0,0.0,0.0,0.0,0.0,0.0,0.0,0.0,0.0,0.0,0.0,0.0,0.0,0.0,0.0,0.0,0.0,0.0,0.0,0.0,0.0,0.0,0.0,0.0,-6.6758,-6.8555,-6.9883,-7.0703,-7.1562,-7.125,-6.9687,-6.8711,-6.7031,0.0,0.0,0.0,0.0,0.0,0.0,0.0,0.0,0.0,0.0,0.0,0.0,0.0,0.0,0.0,0.0,0.0,0.0,0.0,0.0,0.0,0.0,0.0,0.0,0.0,0.0,0.0,0.0,0.0,0.0,0.0,0.0,0.0,0.0,0.0,0.0,0.0,0.0,0.0,0.0,0.0,-6.3205,-6.3308,-6.3897,-6.4051,0.0,0.0,-6.432,-6.432,-6.432,0.0,0.0,0.0,0.0,0.0,0.0,0.0,0.0,0.0,0.0,0.0,0.0,0.0,0.0,0.0,0.0,0.0,0.0,0.0,0.0,0.0,0.0,0.0,0.0,0.0,0.0,0.0,0.0,0.0,0.0,0.0,0.0,0.0,0.0,0.0,0.0,0.0,0.0,0.0,0.0,0.0,0.0,0.0,0.0,0.0,0.0,0.0,0.0,0.0,0.0,0.0,0.0,0.0,0.0,0.0,-6.5898,-6.7617,-6.9297,-7.0586,-7.1406,-7.1797,-7.1445,-7.0234,-6.8906,-6.7226,0.0,0.0,0.0,0.0,0.0,0.0,0.0,0.0,0.0,0.0,0.0,0.0,0.0,0.0,0.0,0.0,0.0,0.0,0.0,0.0,0.0,0.0,0.0,0.0,0.0,0.0,0.0,0.0,0.0,0.0,0.0,0.0,0.0,0.0,0.0,0.0,0.0,0.0,0.0,0.0,0.0,0.0,-6.4628,-6.4666,0.0,0.0,0.0,-6.4628,-6.4628,0.0,0.0,0.0,0.0,0.0,0.0,0.0,0.0,0.0,0.0,0.0,0.0,0.0,0.0,0.0,0.0,0.0,0.0,0.0,0.0,0.0,0.0,0.0,0.0,0.0,0.0,0.0,0.0,0.0,0.0,0.0,0.0,0.0,0.0,0.0,0.0,0.0,0.0,0.0,0.0,0.0,0.0,0.0,0.0,0.0,0.0,0.0,0.0,0.0,0.0,0.0,0.0,0.0,0.0,0.0,0.0,0.0,-6.8476,-7.0195,-7.1445,-7.2265,-7.2344,-7.1914,-7.1015,-6.918,0.0,0.0,0.0,0.0,0.0,0.0,0.0,0.0,0.0,0.0,0.0,0.0,0.0,0.0,0.0,0.0,0.0,0.0,0.0,0.0,0.0,0.0,0.0,0.0,0.0,0.0,0.0,-6.2265,0.0,0.0,0.0,0.0,0.0,0.0,0.0,0.0,0.0,0.0,0.0,0.0,0.0,0.0,-6.3858,-6.5359,-6.5205,-6.4897,0.0,0.0,-6.4936,-6.4936,-6.4936,-6.4551,0.0,0.0,0.0,0.0,0.0,0.0,0.0,0.0,0.0,0.0,0.0,0.0,0.0,0.0,0.0,0.0,0.0,0.0,0.0,0.0,0.0,0.0,0.0,0.0,0.0,0.0,0.0,0.0,0.0,0.0,0.0,0.0,0.0,0.0,0.0,0.0,0.0,0.0,0.0,0.0,0.0,0.0,0.0,0.0,0.0,0.0,0.0,0.0,0.0,0.0,0.0,0.0,0.0,0.0,-6.6875,-6.9375,-7.1055,-7.2344,-7.3164,-7.3242,-7.2812,-7.1914,-6.9492,-6.7422,0.0,0.0,0.0,0.0,0.0,0.0,0.0,0.0,0.0,0.0,0.0,0.0,0.0,0.0,0.0,0.0,0.0,0.0,0.0,0.0,0.0,0.0,0.0,0.0,0.0,0.0,0.0,0.0,0.0,0.0,0.0,0.0,0.0,0.0,0.0,0.0,0.0,0.0,0.0,0.0,0.0,-6.3654,-6.4589,-6.532,-6.582,0.0,-6.5782,-6.582,-6.5782,-6.582,-6.5243,-6.3589,0.0,0.0,0.0,0.0,0.0,0.0,0.0,0.0,0.0,0.0,0.0,0.0,0.0,0.0,0.0,0.0,0.0,0.0,0.0,0.0,0.0,0.0,0.0,0.0,0.0,0.0,0.0,0.0,0.0,0.0,0.0,0.0,0.0,0.0,0.0,0.0,0.0,0.0,0.0,0.0,0.0,0.0,0.0,0.0,0.0,0.0,0.0,0.0,0.0,0.0,0.0,0.0,0.0,-6.7656,-7.0234,-7.1953,-7.3242,-7.4062,-7.4101,-7.3672,-7.2812,-7.1328,-6.9492,0.0,0.0,0.0,0.0,0.0,0.0,0.0,0.0,0.0,0.0,0.0,0.0,0.0,0.0,0.0,0.0,0.0,0.0,0.0,0.0,0.0,0.0,0.0,0.0,0.0,0.0,0.0,0.0,-6.3948,-6.3622,-6.2502,0.0,0.0,0.0,0.0,0.0,0.0,0.0,0.0,0.0,0.0,-6.382,-6.5205,-6.5705,0.0,0.0,-6.5897,-6.5897,-6.5897,-6.5436,-6.4666,-6.3512,-6.2897,0.0,0.0,0.0,0.0,0.0,0.0,0.0,0.0,0.0,0.0,0.0,0.0,0.0,0.0,0.0,0.0,0.0,0.0,0.0,0.0,0.0,0.0,0.0,0.0,0.0,0.0,0.0,0.0,0.0,0.0,0.0,0.0,0.0,0.0,0.0,0.0,0.0,0.0,0.0,0.0,0.0,0.0,0.0,0.0,0.0,0.0,0.0,0.0,0.0,0.0,0.0,0.0,-6.8398,-7.0664,-7.2656,-7.4101,-7.4961,-7.4961,-7.457,-7.3711,-7.2617,-7.082,0.0,0.0,0.0,0.0,0.0,0.0,0.0,0.0,0.0,0.0,0.0,0.0,0.0,0.0,0.0,0.0,0.0,0.0,0.0,0.0,0.0,0.0,0.0,0.0,0.0,0.0,0.0,0.0,-6.3833,-6.3216,-6.2356,0.0,0.0,0.0,0.0,0.0,0.0,0.0,0.0,0.0,0.0,-6.4243,-6.5705,-6.5897,-6.582,-6.5551,-6.5513,-6.5436,-6.5166,-6.4589,-6.3935,-6.3089,0.0,0.0,0.0,0.0,0.0,0.0,0.0,0.0,0.0,0.0,0.0,0.0,0.0,0.0,0.0,0.0,0.0,0.0,0.0,0.0,0.0,0.0,0.0,0.0,0.0,0.0,0.0,-6.1719,0.0,0.0,-6.1758,0.0,0.0,0.0,0.0,0.0,0.0,0.0,0.0,0.0,0.0,0.0,0.0,0.0,0.0,0.0,0.0,0.0,0.0,0.0,0.0,0.0,0.0,-6.8984,-7.0703,-7.3242,-7.5,-7.5859,-7.5898,-7.5469,-7.457,-7.289,-7.082,-6.8281,0.0,0.0,0.0,0.0,0.0,0.0,0.0,0.0,0.0,0.0,0.0,0.0,0.0,0.0,0.0,0.0,0.0,0.0,0.0,0.0,0.0,0.0,0.0,0.0,0.0,0.0,-6.4115,-6.3074,-6.2317,0.0,0.0,0.0,0.0,0.0,0.0,0.0,0.0,0.0,-6.3166,-6.4012,-6.4859,-6.5705,-6.5859,-6.5551,-6.4743,-6.4628,-6.432,-6.3551,-6.3346,-6.3051,0.0,0.0,0.0,0.0,0.0,0.0,0.0,0.0,0.0,0.0,0.0,0.0,0.0,0.0,0.0,0.0,0.0,0.0,0.0,0.0,0.0,0.0,0.0,0.0,0.0,0.0,0.0,-6.3437,-6.3437,0.0,0.0,0.0,0.0,0.0,0.0,0.0,0.0,0.0,0.0,0.0,-6.8945,-6.8711,0.0,0.0,0.0,0.0,0.0,0.0,0.0,0.0,0.0,0.0,0.0,0.0,-6.9297,-7.1523,-7.3594,-7.5312,-7.6719,-7.6758,-7.6367,-7.5469,-7.4336,-7.1992,-6.832,0.0,0.0,0.0,0.0,0.0,0.0,0.0,0.0,0.0,0.0,0.0,0.0,0.0,0.0,0.0,0.0,0.0,0.0,0.0,0.0,0.0,0.0,0.0,0.0,0.0,-6.4638,0.0,0.0,0.0,0.0,0.0,0.0,0.0,0.0,0.0,0.0,0.0,-6.155,-6.2397,-6.2743,-6.3243,-6.4051,-6.4166,-6.4089,0.0,0.0,0.0,0.0,0.0,0.0,0.0,0.0,0.0,0.0,0.0,0.0,0.0,0.0,-6.3128,-6.2551,-6.2243,-6.205,-6.2,0.0,0.0,0.0,0.0,0.0,0.0,0.0,0.0,0.0,0.0,0.0,0.0,0.0,0.0,-6.5195,0.0,-6.5195,0.0,0.0,0.0,0.0,0.0,0.0,0.0,0.0,-6.914,-7.0273,-7.1562,-7.1328,-7.1523,0.0,-7.1172,-6.9765,0.0,0.0,0.0,0.0,0.0,0.0,0.0,0.0,-6.9883,-7.2383,-7.3867,-7.543,-7.7109,-7.7226,-7.6797,-7.5898,-7.4453,-7.2109,-6.875,-6.6953,-6.539,0.0,0.0,0.0,0.0,0.0,0.0,0.0,0.0,0.0,0.0,0.0,0.0,0.0,0.0,0.0,0.0,0.0,0.0,0.0,0.0,0.0,0.0,0.0,-6.4465,0.0,0.0,0.0,0.0,0.0,0.0,0.0,0.0,0.0,-6.1204,-6.1243,-6.155,-6.2397,-6.2512,-6.2704,-6.3243,0.0,0.0,0.0,0.0,0.0,0.0,0.0,-6.2704,-6.3205,-6.2858,-6.2781,-6.3628,-6.3974,-6.4282,-6.4589,0.0,0.0,-6.3974,-6.4012,-6.4205,-6.4205,-6.4205,-6.4205,-6.4205,-6.4205,-6.4205,0.0,0.0,0.0,0.0,0.0,0.0,0.0,0.0,-6.668,-6.7031,0.0,-6.707,0.0,0.0,0.0,0.0,-6.8242,-6.832,0.0,0.0,-7.164,-7.2539,-7.3398,-7.418,-7.4609,-7.457,-7.3711,-7.2851,-7.1992,-7.039,0.0,0.0,0.0,0.0,0.0,0.0,-7.0703,-7.3203,-7.418,-7.5469,-7.7109,-7.7226,-7.6758,-7.582,-7.3398,-7.1289,-6.957,-6.789,-6.6562,-6.5664,-6.4844,0.0,0.0,0.0,0.0,0.0,0.0,0.0,0.0,0.0,0.0,0.0,0.0,0.0,0.0,0.0,0.0,0.0,0.0,0.0,0.0,-6.3806,0.0,0.0,0.0,0.0,0.0,0.0,0.0,0.0,0.0,0.0,-6.2101,-6.2139,-6.2397,-6.3192,0.0,0.0,0.0,0.0,-6.3012,-6.2293,-6.2781,-6.3051,-6.2293,-6.282,-6.3346,-6.3423,0.0,0.0,-6.4589,-6.5436,-6.6205,-6.6974,-6.7128,-6.6667,-6.5128,-6.5474,-6.5974,-6.5974,-6.5974,-6.5974,-6.5974,-6.5974,-6.5974,-6.8266,0.0,0.0,0.0,0.0,-6.7301,-6.8084,-6.9258,-6.9492,-6.9609,-6.9609,-6.9609,0.0,0.0,0.0,0.0,0.0,0.0,-7.1523,-7.2578,-7.3437,-7.4336,-7.5156,-7.4765,-7.4922,-7.5469,-7.4648,-7.4101,-7.3828,-7.2734,-7.1015,-6.8711,0.0,0.0,0.0,0.0,-7.1328,-7.3242,-7.418,-7.543,-7.7148,-7.7226,-7.6484,-7.5,-7.3633,-7.2109,-7.043,-6.9336,-6.8047,-6.6601,-6.6289,0.0,0.0,0.0,0.0,0.0,0.0,0.0,0.0,0.0,0.0,0.0,0.0,0.0,0.0,0.0,0.0,0.0,0.0,0.0,-6.5295,-6.4232,-6.3389,0.0,0.0,0.0,0.0,0.0,0.0,0.0,0.0,0.0,-6.3743,-6.282,-6.2397,0.0,0.0,-6.3308,-6.3308,-6.3308,-6.3205,-6.2974,-6.3154,0.0,-6.3012,-6.3666,-6.4436,-6.5051,-6.6128,-6.7013,-6.7282,-6.7513,-6.7744,-6.8013,-6.8552,-6.8783,-6.8359,-6.7898,-6.7705,-6.7705,-6.7705,-6.7667,-6.7705,-6.7667,-6.7667,-7.0991,-6.99,-6.8379,-6.8313,-6.9219,-6.957,-7.0469,-7.1758,-7.207,-7.2226,-7.2226,-7.2265,-7.1953,-7.1445,-7.1484,0.0,0.0,0.0,-7.3515,-7.4336,-7.4883,-7.5586,-7.6367,-7.5859,-7.5898,-7.6367,-7.5859,-7.5469,-7.5117,-7.457,-7.3359,-7.1484,0.0,0.0,-6.9961,-7.043,-7.1719,-7.375,-7.4336,-7.543,-7.7148,-7.7226,-7.6523,-7.5156,-7.4258,-7.3008,-7.1289,-7.043,-6.9336,-6.793,-6.7578,-6.6562,0.0,0.0,0.0,0.0,0.0,0.0,0.0,0.0,0.0,0.0,0.0,-6.158,-6.158,0.0,0.0,0.0,-6.348,-6.4647,-6.5891,-6.471,0.0,0.0,0.0,0.0,0.0,0.0,0.0,-6.3231,-6.3308,-6.3782,-6.4936,-6.4243,-6.3666,-6.382,-6.3512,-6.3308,-6.3308,0.0,-6.382,-6.382,-6.4397,-6.482,-6.482,-6.5551,-6.6282,-6.6782,-6.8013,-6.8859,-6.8936,-6.9167,-6.936,-6.9436,-6.9821,-7.0167,-7.0167,-6.9744,-6.9398,-6.9398,-6.9398,-6.9398,-6.9398,-6.9398,-6.9398,-7.3359,-7.3203,-7.0898,-7.0351,-7.1055,-7.1875,-7.2695,-7.3555,-7.4336,-7.4687,-7.4687,-7.4726,-7.4648,-7.457,-7.457,0.0,-7.4726,-7.4687,-7.5156,-7.6015,-7.6015,-7.6445,-7.7187,-7.7187,-7.7226,-7.7187,-7.7226,-7.6758,-7.6015,-7.5937,-7.5469,-7.4648,-7.2226,-7.0976,-7.0898,-7.0859,-7.207,-7.457,-7.457,-7.5469,-7.7148,-7.7226,-7.6797,-7.5898,-7.5117,-7.3906,-7.2265,-7.1367,-7.0508,-6.9648,-6.8828,-6.7969,-6.6914,0.0,0.0,0.0,0.0,0.0,0.0,0.0,0.0,0.0,0.0,0.0,0.0,0.0,0.0,-6.2692,-6.3892,0.0,-6.582,-6.5128,0.0,0.0,0.0,-6.3462,-6.3589,-6.3577,-6.3628,-6.3692,0.0,0.0,-6.5897,-6.609,-6.582,-6.5013,-6.4205,-6.3705,-6.3705,-6.4474,-6.4897,-6.5013,-6.6205,-6.7167,-6.7051,-6.7782,-6.8385,-6.859,-6.9283,-6.9783,-6.9821,-7.0321,-7.0821,-7.0783,-7.0898,-7.086,-7.0898,-7.0783,-7.0898,-7.0821,-7.0821,-7.086,-7.0783,-7.0744,-7.0744,-7.3672,-7.4258,-7.3633,-7.3515,-7.3711,-7.3906,-7.4492,-7.5273,-7.5508,-7.5586,-7.5586,-7.5586,-7.5234,-7.457,-7.457,-7.4961,-7.5586,-7.5586,-7.6055,-7.6875,-7.6875,-7.7031,-7.7226,-7.7226,-7.7226,-7.7226,-7.7226,-7.7109,-7.6875,-7.6211,-7.5781,-7.5547,-7.4297,-7.3359,-7.2695,-7.2031,-7.2656,-7.457,-7.457,-7.543,-7.7148,-7.7226,-7.6797,-7.5937,-7.5703,-7.5078,-7.4023,-7.3125,-7.2265,-7.1406,-7.0547,-6.914,-6.6992,-6.6523,0.0,0.0,0.0,0.0,0.0,0.0,0.0,0.0,0.0,-6.1777,-6.2284,0.0,-6.3047,0.0,-6.5021,-6.5667,-6.5897,-6.5128,0.0,0.0,-6.482,-6.4782,-6.6051,-6.6167,-6.6436,-6.7115,-6.7154,-6.7346,-6.7782,-6.7821,-6.7744,-6.7513,-6.7321,-6.7192,-6.7205,-6.7359,-6.7475,-6.7513,-6.7821,-6.809,-6.8205,-6.8821,-6.959,-7.0206,-7.0475,-7.0591,-7.0591,-7.0744,-7.0898,-7.0898,-7.0898,-7.0898,-7.0898,-7.0898,-7.0898,-7.0898,-7.0898,-7.0898,-7.0898,-7.0898,-7.0898,-7.4726,-7.5195,-7.5586,-7.5742,-7.5742,-7.5351,-7.5664,-7.6445,-7.6484,-7.6484,-7.6484,-7.6484,-7.6211,-7.5781,-7.5742,-7.6015,-7.6445,-7.6484,-7.6758,-7.7187,-7.7226,-7.7226,-7.7226,-7.7226,-7.7226,-7.7226,-7.7226,-7.7226,-7.7187,-7.6719,-7.6484,-7.6445,-7.5625,-7.4961,-7.4453,-7.3594,-7.3828,-7.5156,-7.5586,-7.6211,-7.7148,-7.7226,-7.6953,-7.6484,-7.6094,-7.5664,-7.5195,-7.4336,-7.3476,-7.2617,-7.1758,-7.0469,-6.8672,-6.75,-6.625,0.0,0.0,0.0,0.0,0.0,0.0,0.0,0.0,0.0,0.0,0.0,-6.417,-6.5601,-6.6167,-6.659,-6.6974,-6.6551,-6.6513,-6.6936,-6.659,-6.6667,-6.759,-6.7667,-6.7859,-6.8359,-6.8398,-6.8538,-6.8936,-6.8975,-6.9129,-6.9475,-6.9513,-6.9244,-6.8577,-6.8706,-6.8975,-6.8975,-6.9283,-6.9513,-6.9513,-6.9898,-7.036,-7.0783,-7.0898,-7.0898,-7.0898,-7.0898,-7.0898,-7.0898,-7.0898,-7.0898,-7.0898,-7.0898,-7.0898,-7.0898,-7.0898,-7.0898,-7.0898,-7.0898,-7.0898,-7.5976,-7.6133,-7.6875,-7.7226,-7.7148,-7.6406,-7.6523,-7.7226,-7.7226,-7.7226,-7.7226,-7.7226,-7.7226,-7.7226,-7.7226,-7.7226,-7.7226,-7.7226,-7.7226,-7.7226,-7.7226,-7.7226,-7.7226,-7.7226,-7.7226,-7.7226,-7.7226,-7.7226,-7.7226,-7.7226,-7.7226,-7.7187,-7.6445,-7.6055,-7.6055,-7.5312,-7.5273,-7.5898,-7.6758,-7.7226,-7.7226,-7.7226,-7.7226,-7.7187,-7.6484,-7.6055,-7.6055,-7.5234,-7.4414,-7.3672,-7.2812,-7.1875,-7.0898,-6.875,-6.7382,0.0,-6.5585,0.0,0.0,0.0,0.0,0.0,0.0,0.0,0.0,-6.4971,-6.5842,-6.7178,-6.7269,-6.759,-6.8359,-6.8398,-6.8423,-6.8552,-6.8552,-6.8615,-6.8706,-6.8731,-6.8706,-6.8744,-6.8731,-6.9052,-6.9744,-6.986,-7.0129,-7.0667,-7.0937,-7.0552,-6.9321,-6.9513,-6.9898,-6.9975,-7.0706,-7.1245,-7.1245,-7.1245,-7.1283,-7.1283,-7.136,-7.1245,-7.1321,-7.1321,-7.1283,-7.1283,-7.136,-7.1321,-7.1245,-7.1283,-7.1283,-7.136,-7.1398,-7.1283,-7.0975,-7.0898,-7.0898,-7.6328,-7.6953,-7.7148,-7.7226,-7.7187,-7.7031,-7.7031,-7.7226,-7.7226,-7.7226,-7.7226,-7.7226,-7.7226,-7.7226,-7.7226,-7.7226,-7.7226,-7.7226,-7.7226,-7.7226,-7.7226,-7.7226,-7.7226,-7.7226,-7.7226,-7.7226,-7.7226,-7.7226,-7.7226,-7.7226,-7.7226,-7.7187,-7.7031,-7.6953,-7.6953,0.0,0.0,0.0,-7.6758,-7.7226,-7.7226,-7.7226,-7.7226,-7.7187,-7.707,0.0,-7.6914,-7.6133,-7.5586,-7.539,-7.457,0.0,0.0,0.0,0.0,0.0,0.0,0.0,0.0,0.0,0.0,0.0,-6.7495,-6.7497,-6.6859,-6.7366,-6.7868,-6.8281,-6.8203,-6.8244,-6.8359,-6.8398,-6.8667,-6.936,-6.9436,-6.9706,-7.0321,-7.0398,-7.0437,-7.0437,-7.0398,-7.0475,-7.0629,-7.0667,-7.0744,-7.0975,-7.1514,-7.1783,-7.1514,-7.1014,-7.0975,-7.1629,-7.236,-7.2937,-7.3014,-7.2937,-7.286,-7.3014,-7.3014,-7.2976,-7.2937,-7.2937,-7.2976,-7.2937,-7.3014,-7.2976,-7.2976,-7.3014,-7.2899,-7.3,-7.2976,-7.2591,-7.1206,-7.0898,-7.0898,-7.6797,-7.7187,-7.7226,-7.7226,0.0,-7.7226,-7.7226,-7.7226,-7.7226,-7.7226,-7.7226,-7.7226,-7.7226,-7.7226,-7.7226,-7.7226,-7.7226,-7.7226,-7.7226,-7.7226,-7.7226,-7.7226,-7.7226,-7.7226,-7.7226,-7.7226,-7.7226,-7.7226,-7.7226,-7.7226,-7.7226,-7.7226,-7.7226,-7.7226,-7.7226,-7.7226,-7.6992,-7.6562,-7.6992,-7.7226,-7.7226,-7.7226,-7.7226,-7.7226,-7.7226,0.0,0.0,0.0,0.0,0.0,0.0,0.0,0.0,-7.289,0.0,-7.0519,-7.0004,-6.9455,-6.8799,-6.9502,-6.9923,-6.9874,-7.0556,-7.0127,-6.8081,-6.8206,-6.8617,-6.9073,-6.9104,-6.9206,-6.959,-6.9629,-6.9821,-7.0244,-7.0283,-7.0475,-7.0821,-7.0898,-7.0898,-7.0898,-7.0898,-7.1052,-7.1475,-7.1552,-7.1745,-7.2129,-7.2552,-7.286,-7.2783,-7.2476,-7.2399,-7.2783,-7.3168,-7.3476,-7.35,-7.35,-7.3514,-7.3462,-7.35,-7.35,-7.35,-7.35,-7.35,-7.35,-7.35,-7.35,-7.35,-7.35,-7.35,-7.35,-7.35,-7.3283,-7.2322,-7.186,-7.1398,-7.7226,-7.7226,-7.7226,-7.7226,-7.7226,-7.7226,-7.7226,-7.7226,0.0,0.0,0.0,-7.7226,-7.7226,-7.7226,-7.7226,-7.7226,-7.7226,-7.7226,-7.7226,-7.7226,-7.7226,-7.7226,-7.7226,-7.7226,-7.7226,-7.7226,-7.7226,-7.7226,-7.7226,-7.7226,-7.7226,-7.7226,-7.7226,-7.7226,-7.7226,-7.7226,-7.7226,-7.7226,-7.7226,-7.7226,-7.7226,-7.7226,-7.7226,-7.7226,-7.7226,-7.7226,-7.7226,-7.7226,-7.6875,-7.6172,-7.6133,-7.5742,-7.4883,-7.41,-7.3537,-7.3189,-7.2491,-7.1919,-7.1623,-7.2236,-7.2556,-7.2426,-7.3091,-7.2308,-6.95,-6.9321,-6.9513,-7.0129,-7.0129,-7.036,-7.086,-7.0898,-7.0898,-7.0898,-7.1052,-7.1129,-7.1129,-7.1283,-7.1437,-7.136,-7.1437,-7.1629,-7.2322,-7.2437,-7.2668,-7.3322,-7.3591,-7.3822,-7.3899,-7.3783,-7.363,-7.3692,-7.3976,-7.4038,-7.3976,-7.4053,-7.3937,-7.4091,-7.4053,-7.3937,-7.3937,-7.3937,-7.3937,-7.4091,-7.3937,-7.4014,-7.3976,-7.4053,-7.3937,-7.3937,-7.3937,-7.3885,-7.3707,-7.3168,-7.2437,-7.7226,-7.7226,-7.7226,-7.7226,-7.7226,-7.7226,-7.7226,-7.7226,-7.7226,-7.7226,-7.7226,-7.7226,-7.7226,-7.7226,-7.7226,-7.7226,-7.7226,-7.7226,-7.7226,-7.7226,-7.7226,-7.7226,-7.7226,-7.7226,-7.7226,-7.7226,-7.7226,-7.7226,-7.7226,-7.7226,-7.7226,-7.7226,-7.7226,-7.7226,-7.7226,-7.7226,-7.7226,-7.7226,-7.7226,-7.7226,-7.7226,-7.7226,-7.7226,-7.7226,-7.7226,-7.7226,-7.7226,-7.7226,-7.7148,-7.7031,-7.7031,-7.664,-7.5781,-7.5408,-7.4862,-7.3944,-7.357,-7.3347,-7.3187,-7.3276,-7.3325,-7.3322,-7.3437,-7.3269,-7.2846,-7.2808,-7.2552,-7.1937,-7.1822,-7.1552,-7.1014,-7.0975,-7.1014,-7.1014,-7.1591,-7.2014,-7.2014,-7.2629,-7.3014,-7.3014,-7.3129,-7.3091,-7.3245,-7.3322,-7.336,-7.3591,-7.4207,-7.4784,-7.5207,-7.5014,-7.4591,-7.463,-7.5207,-7.5592,-7.5476,-7.563,-7.5515,-7.563,-7.5515,-7.5438,-7.5438,-7.5438,-7.5438,-7.5592,-7.5476,-7.5515,-7.5553,-7.5668,-7.5515,-7.5438,-7.5438,-7.5284,-7.4707,-7.4361,-7.4053,-7.7226,-7.7226,-7.7226,-7.7226,-7.7226,-7.7226,-7.7226,-7.7226,-7.7226,-7.7226,-7.7226,-7.7226,-7.7226,-7.7226,-7.7226,-7.7226,-7.7226,-7.7226,-7.7226,-7.7226,-7.7226,-7.7226,-7.7226,-7.7226,-7.7226,-7.7226,-7.7226,-7.7226,-7.7226,-7.7226,-7.7226,-7.7226,-7.7226,-7.7226,-7.7226,-7.7226,-7.7226,-7.7226,-7.7226,-7.7226,-7.7226,-7.7226,-7.7226,-7.7226,-7.7226,-7.7226,-7.7226,-7.7226,-7.7226,-7.7226,-7.7226,-7.699,-7.6462,-7.6354,-7.598,-7.5301,-7.5157,-7.5036,-7.4875,-7.4861,-7.4861,-7.4861,-7.4861,-7.4861,-7.4861,-7.4014,-7.3322,-7.2937,-7.2899,-7.2745,-7.236,-7.2322,-7.2322,-7.2322,-7.2706,-7.2899,-7.2937,-7.3245,-7.3462,-7.35,-7.35,-7.3654,-7.4091,-7.413,-7.4399,-7.4784,-7.5245,-7.5553,-7.5938,-7.5668,-7.5399,-7.5438,-7.5745,-7.5938,-7.5976,-7.5976,-7.5976,-7.5976,-7.5976,-7.5976,-7.5976,-7.5976,-7.5976,-7.5976,-7.5976,-7.5976,-7.5976,-7.5976,-7.5976,-7.5976,-7.5976,-7.5784,-7.5476,-7.5399,-7.4976,-7.7226,-7.7226,-7.7226,-7.7226,-7.7226,-7.7226,-7.7226,-7.7226,-7.7226,-7.7226,-7.7226,-7.7226,-7.7226,-7.7226,-7.7226,-7.7226,-7.7226,-7.7226,-7.7226,-7.7226,-7.7226,-7.7226,-7.7226,-7.7226,-7.7226,-7.7226,-7.7226,-7.7226,-7.7226,-7.7226,-7.7226,-7.7226,-7.7226,-7.7226,-7.7226,-7.7226,-7.7226,-7.7226,-7.7226,-7.7226,-7.7226,-7.7226,-7.7226,-7.7226,-7.7226,-7.7226,-7.7226,-7.7226,-7.7226,-7.7187,-7.7147,-7.7054,-7.6883,-7.6795,-7.6611,-7.6348,-7.6266,-7.616,-7.602,-7.5976,-7.5976,-7.5976,-7.5976,-7.5976,-7.5899,-7.4822,-7.3976,-7.3822,-7.3783,-7.3707,-7.3462,-7.3437,-7.35,-7.3514,-7.3692,-7.3769,-7.3769,-7.3937,-7.4053,-7.4091,-7.4091,-7.4361,-7.4822,-7.4976,-7.5245,-7.5745,-7.5976,-7.5976,-7.5976,-7.5976,-7.5976,-7.5976,-7.5976,-7.5976,-7.5976,-7.5976,-7.5976,-7.5976,-7.5976,-7.5976,-7.5976,-7.5976,-7.5976,-7.5976,-7.5976,-7.5976,-7.5976,-7.5976,-7.5976,-7.5976,-7.5976,-7.5976,-7.5938,-7.5899,-7.563,-7.7226,-7.7226,-7.7226,-7.7226,-7.7226,-7.7226,-7.7226,-7.7226,-7.7226,-7.7226,-7.7226,-7.7226,-7.7226,-7.7226,-7.7226,-7.7226,-7.7226,-7.7226,-7.7226,-7.7226,-7.7226,-7.7226,-7.7226,-7.7226,-7.7226,-7.7226,-7.7226,-7.7226,-7.7226,-7.7226,-7.7226,-7.7226,-7.7226,-7.7226,-7.7226,-7.7226,-7.7226,-7.7226,-7.7226,-7.7226,-7.7226,-7.7226,-7.7226,-7.7226,-7.7226,-7.7226,-7.7226,-7.7226,-7.7226,-7.7187,-7.7046,-7.6929,-7.6864,-7.6545,-7.6359,-7.6284,-7.6134,-7.6005,-7.5976,-7.5976,-7.5976,-7.5976,-7.5976,-7.5976,-7.5976,-7.5822,-7.5399,-7.4784,-7.4591,-7.4322,-7.3615,-7.3591,-7.3668,-7.3745,-7.4245,-7.4591,-7.4668,-7.5284,-7.5745,-7.5745,-7.5592,-7.5784,-7.5745,-7.5745,-7.5861,-7.5938,-7.5976,-7.5976,-7.5976,-7.5976,-7.5976,-7.5976,-7.5976,-7.5976,-7.5976,-7.5976,-7.5976,-7.5976,-7.5976,-7.5976,-7.5976,-7.5976,-7.5976,-7.5976,-7.5976,-7.5976,-7.5976,-7.5976,-7.5976,-7.5976,-7.5976,-7.5976,-7.5976,-7.5976,-7.5784,-7.7226,-7.7226,-7.7226,-7.7226,-7.7226,-7.7226,-7.7226,-7.7226,-7.7226,-7.7226,-7.7226,-7.7226,-7.7226,-7.7226,-7.7226,-7.7226,-7.7226,-7.7226,-7.7226,-7.7226,-7.7226,-7.7226,-7.7226,-7.7226,-7.7226,-7.7226,-7.7226,-7.7226,-7.7226,-7.7226,-7.7226,-7.7226,-7.7226,-7.7461,-7.793,-7.7969,-7.8203,-7.8672,-7.8672,-7.8672,-7.8555,-7.7695,-7.7226,-7.7226,-7.7226,-7.7226,-7.7226,-7.7226,-7.7226,-7.7187,-7.7143,-7.6948,-7.6738,-7.6591,-7.6361,-7.6135,-7.6024,-7.5976,-7.5976,-7.5976,-7.5976,-7.5976,-7.5976,-7.5976,-7.5976,-7.5976,-7.5822,-7.5553,-7.5476,-7.5322,-7.5014,-7.4976,-7.4976,-7.5014,-7.5284,-7.5476,-7.5476,-7.5784,-7.5976,-7.5976,-7.5976,-7.5976,-7.5976,-7.5976,-7.5976,-7.5976,-7.5976,-7.5976,-7.5976,-7.5976,-7.5976,-7.5976,-7.5976,-7.5976,-7.5976,-7.5976,-7.5976,-7.5976,-7.5976,-7.5976,-7.5976,-7.5976,-7.5976,-7.6015,-7.6053,-7.6053,-7.5976,-7.5976,-7.5976,-7.6015,-7.6015,-7.5976,-7.5976,-7.5976,-7.5976,-7.7226,-7.7226,-7.7226,-7.7226,-7.7226,-7.7226,-7.7226,-7.7226,-7.7226,-7.7226,-7.7226,-7.7226,-7.7226,-7.7226,-7.7226,-7.7226,-7.7226,-7.7226,-7.7226,-7.7226,-7.7226,-7.7226,-7.7226,-7.7226,-7.7226,-7.7226,-7.7226,-7.7226,-7.7226,-7.75,-7.7539,-7.7578,-7.7773,-7.8203,-7.875,-7.8828,-7.9101,-7.9648,-7.9726,-7.9726,-7.9531,-7.8515,-7.789,-7.789,-7.789,-7.7773,-7.7578,-7.7539,-7.7422,-7.7226,-7.7146,-7.6948,-7.665,-7.6529,-7.6379,-7.6038,-7.5976,-7.5976,-7.5976,-7.5976,-7.5976,-7.5976,-7.5976,-7.5976,-7.5976,-7.5976,-7.5976,-7.5976,-7.5976,-7.5976,-7.5976,-7.5976,-7.5976,-7.5976,-7.5976,-7.5976,-7.5976,-7.5976,-7.5976,-7.5976,-7.5976,-7.5976,-7.5976,-7.5976,-7.5976,-7.5976,-7.5976,-7.5976,-7.5976,-7.5976,-7.5976,-7.5976,-7.5976,-7.5976,-7.5976,-7.5976,-7.5976,-7.5976,-7.5976,-7.5976,-7.5976,-7.5976,-7.6245,-7.6399,-7.6322,-7.6553,-7.6976,-7.6861,-7.6515,-7.6399,-7.6361,-7.6284,-7.6015,-7.6015,-7.6015,-7.7226,-7.7226,-7.7226,-7.7226,-7.7226,-7.7226,-7.7226,-7.7226,-7.7226,-7.7226,-7.7226,-7.7226,-7.7226,-7.7226,-7.7226,-7.7226,-7.7226,-7.7226,-7.7226,-7.7226,-7.7226,-7.7226,-7.7226,-7.7226,-7.7226,-7.7226,-7.7226,-7.7226,-7.7305,-7.8047,-7.8437,-7.8476,-7.9101,-7.9531,-7.9648,-7.9648,-7.9687,-7.9883,-7.9922,-7.9805,-7.9805,-7.9687,-7.9609,-7.9609,-7.9531,-7.914,-7.8555,-7.8437,-7.8086,-7.7265,-7.7128,-7.6882,-7.6636,-7.6429,-7.6231,-7.6034,-7.5976,-7.5976,-7.5976,-7.5976,-7.5976,-7.5976,-7.5976,-7.5976,-7.5976,-7.5976,-7.5976,-7.5976,-7.5976,-7.5976,-7.5976,-7.5976,-7.5976,-7.5976,-7.5976,-7.5976,-7.5976,-7.5976,-7.5976,-7.5976,-7.5976,-7.5976,-7.5976,-7.5976,-7.5976,-7.5976,-7.5976,-7.5976,-7.6015,-7.6015,-7.6092,-7.613,-7.613,-7.6053,-7.6053,-7.6207,-7.613,-7.6207,-7.6361,-7.6207,-7.6053,-7.6092,-7.6553,-7.6938,-7.713,-7.7476,-7.8092,-7.8169,-7.7784,-7.7553,-7.7284,-7.7053,-7.6707,-7.6207,-7.6169,-7.7226,-7.7226,-7.7226,-7.7226,-7.7226,-7.7226,-7.7226,-7.7226,-7.7226,-7.7226,-7.7226,-7.7226,-7.7226,-7.7226,-7.7226,-7.7226,-7.7226,-7.7226,-7.7226,-7.7226,-7.7226,-7.7226,-7.7226,-7.7226,-7.7226,-7.7226,-7.7226,-7.75,-7.8086,-7.8867,-7.9258,-7.9297,-7.9531,-7.9961,-8.0429,-8.0508,-8.0781,-8.1289,-8.1367,-8.1367,-8.1289,-8.1367,-8.1367,-8.1289,-8.0273,-7.957,-7.9297,-7.9258,-7.9101,-7.8828,-7.8242,-7.782,-7.756,-7.6773,-7.6195,-7.6034,-7.5976,-7.5976,-7.5976,-7.5976,-7.5976,-7.5976,-7.5976,-7.5976,-7.5976,-7.5976,-7.5976,-7.6015,-7.6015,-7.5976,-7.5976,-7.5976,-7.5976,-7.5976,-7.5976,-7.5976,-7.5976,-7.5976,-7.5976,-7.5976,-7.5976,-7.5976,-7.6053,-7.6015,-7.5976,-7.5976,-7.6015,-7.6053,-7.613,-7.6438,-7.6823,-7.6938,-7.7246,-7.7592,-7.7592,-7.713,-7.6899,-7.7015,-7.7169,-7.7476,-7.7515,-7.74,-7.7746,-7.79,-7.8054,-7.8207,-7.8746,-7.8823,-7.8515,-7.8338,-7.8092,-7.7938,-7.7669,-7.7246,-7.7053,-7.7226,-7.7226,-7.7226,-7.7226,-7.7226,-7.7226,-7.7226,-7.7226,-7.7226,-7.7226,-7.7226,-7.7226,-7.7226,-7.7226,-7.7226,-7.7226,-7.7226,-7.7226,-7.7226,-7.7226,-7.7226,-7.7226,-7.7226,-7.7226,-7.7344,-7.7656,-7.789,-7.8359,-7.8906,-7.9726,-8.0078,-8.0117,-8.039,-8.082,-8.1328,-8.1445,-8.1758,-8.2226,-8.2304,-8.2304,-8.2304,-8.2304,-8.2304,-8.2148,-8.1133,-8.039,-8.0156,-8.0117,-7.9961,-7.9687,-7.918,-7.8777,-7.8428,-7.7637,-7.7007,-7.6804,-7.6553,-7.6399,-7.6361,-7.6169,-7.5976,-7.5976,-7.5976,-7.5976,-7.5976,-7.5976,-7.613,-7.6322,-7.6399,-7.6476,-7.6746,-7.6823,-7.6592,-7.6169,-7.5976,-7.5976,-7.5976,-7.5976,-7.5976,-7.5976,-7.5976,-7.6092,-7.6361,-7.6399,-7.6592,-7.6746,-7.6784,-7.6823,-7.6899,-7.7246,-7.7669,-7.7707,-7.8054,-7.8284,-7.84,-7.813,-7.7861,-7.7977,-7.7977,-7.8438,-7.8707,-7.8631,-7.8707,-7.8861,-7.8977,-7.9092,-7.9208,-7.9285,-7.9169,-7.8977,-7.89,-7.8784,-7.8554,-7.8361,-7.8092,-7.7226,-7.7226,-7.7226,-7.7226,-7.7226,-7.7226,-7.7226,-7.7226,-7.7226,-7.7226,-7.7226,-7.7226,-7.7226,-7.7226,-7.7226,-7.7226,-7.7226,-7.7226,-7.7226,-7.7226,-7.7226,-7.7226,-7.7226,-7.7305,-7.7773,-7.8515,-7.9297,-7.9648,-7.9765,-8.0547,-8.1015,-8.1172,-8.1719,-8.2031,-8.2265,-8.2187,-8.2226,-8.2304,-8.2304,-8.2304,-8.2304,-8.2304,-8.2304,-8.2304,-8.2148,-8.1758,-8.1015,-8.1015,-8.0664,-8.0,-7.9765,-7.9531,-7.9098,-7.8709,-7.8604,-7.8257,-7.7707,-7.7361,-7.7207,-7.6592,-7.6284,-7.6284,-7.613,-7.6284,-7.6322,-7.6284,-7.6553,-7.713,-7.7323,-7.7553,-7.8169,-7.8261,-7.7707,-7.6399,-7.6284,-7.6322,-7.6207,-7.6092,-7.6053,-7.6207,-7.6284,-7.6438,-7.7053,-7.7284,-7.7515,-7.8015,-7.8169,-7.8169,-7.813,-7.8323,-7.8477,-7.8515,-7.8823,-7.9131,-7.9131,-7.9131,-7.8977,-7.8861,-7.8861,-7.9015,-7.9208,-7.9246,-7.9515,-7.9669,-7.9785,-7.99,-8.0169,-8.0246,-8.0169,-7.9977,-7.9862,-7.9631,-7.9477,-7.9246,-7.89,-7.7226,-7.7226,-7.7226,-7.7226,-7.7226,-7.7226,-7.7226,-7.7226,-7.7226,-7.7226,-7.7226,-7.7226,-7.7226,-7.7226,-7.7226,-7.7226,-7.7226,-7.7226,-7.7226,-7.7226,-7.7226,-7.7226,-7.7344,-7.7812,-7.8515,-7.9336,-8.0195,-8.0586,-8.0742,-8.1445,-8.1914,-8.1953,-8.2148,-8.2304,-8.2304,-8.2304,-8.2304,-8.2304,-8.2304,-8.2304,-8.2304,-8.2304,-8.2304,-8.2304,-8.2304,-8.2148,-8.1914,-8.1875,-8.1758,-8.1445,-8.0898,-8.0129,-7.9318,-7.8922,-7.8708,-7.8512,-7.8284,-7.8092,-7.8092,-7.79,-7.763,-7.7669,-7.7669,-7.7707,-7.7707,-7.7669,-7.7784,-7.8092,-7.8145,-7.8284,-7.8438,-7.8492,-7.8284,-7.7784,-7.7707,-7.763,-7.7553,-7.763,-7.7746,-7.7707,-7.7707,-7.7861,-7.8015,-7.813,-7.8246,-7.8515,-7.8592,-7.8592,-7.8646,-7.9131,-7.9361,-7.94,-7.9746,-8.0015,-8.0054,-8.0092,-8.0015,-7.9862,-7.9823,-7.9708,-7.9823,-7.9939,-8.0208,-8.0362,-8.0516,-8.0669,-8.0977,-8.1016,-8.0823,-8.0785,-8.0592,-8.0439,-8.0323,-8.0054,-7.9708,-7.7226,-7.7226,-7.7226,-7.7226,-7.7226,-7.7226,-7.7226,-7.7226,-7.7226,-7.7226,-7.7226,-7.7226,-7.7226,-7.7226,-7.7226,-7.7226,-7.7226,-7.7226,-7.7226,-7.7226,-7.7226,-7.7344,-7.7812,-7.8906,-7.9648,-8.0234,-8.1054,-8.1484,-8.1523,-8.1992,-8.2304,-8.2304,-8.2304,-8.2304,-8.2304,-8.2304,-8.2304,-8.2304,-8.2304,-8.2304,-8.2304,-8.2304,-8.2304,-8.2304,-8.2304,-8.2304,-8.2304,-8.2304,-8.2264,-8.2098,-8.1573,-8.0812,-8.0025,-7.9869,-7.9662,-7.9466,-7.9169,-7.8977,-7.8938,-7.8631,-7.8492,-7.8492,-7.8492,-7.8492,-7.8492,-7.8492,-7.8554,-7.89,-7.8977,-7.9131,-7.94,-7.9477,-7.9477,-7.9438,-7.8784,-7.8554,-7.8492,-7.8492,-7.8453,-7.8415,-7.8415,-7.8631,-7.8861,-7.8977,-7.9131,-7.9323,-7.9438,-7.9477,-7.9554,-7.9939,-8.0131,-8.0285,-8.0554,-8.0785,-8.0977,-8.1016,-8.1016,-8.09,-8.0823,-8.0708,-8.0669,-8.0669,-8.0823,-8.0785,-8.0862,-8.0862,-8.1093,-8.1093,-8.0977,-8.1093,-8.1093,-8.0939,-8.0708,-8.0823,-8.0592,-7.7226,-7.7226,-7.7226,-7.7226,-7.7226,-7.7226,-7.7226,-7.7226,-7.7226,-7.7226,-7.7226,-7.7226,-7.7226,-7.7226,-7.7226,-7.7226,-7.7226,-7.7226,-7.7305,-7.7383,-7.7461,-7.7812,-7.8867,-8.0117,-8.0781,-8.1172,-8.1836,-8.2226,-8.2148,-8.2265,-8.2304,-8.2304,-8.2304,-8.2304,-8.2304,-8.2304,-8.2304,-8.2304,-8.2304,-8.2304,-8.2304,-8.2304,-8.2304,-8.2304,-8.2304,-8.2304,-8.2304,-8.2226,-8.217,-8.1996,-8.1766,-8.1442,-8.1359,-8.1395,-8.1078,-8.0839,-8.0285,-7.9939,-7.9708,-7.9323,-7.89,-7.89,-7.89,-7.8646,-7.89,-7.9015,-7.9208,-7.9785,-7.9862,-8.0169,-8.0746,-8.0862,-8.09,-8.0862,-7.9746,-7.8977,-7.8707,-7.8784,-7.8938,-7.8861,-7.8707,-7.8938,-7.9785,-7.9862,-8.0246,-8.0631,-8.0823,-8.0746,-8.0785,-8.0785,-8.0977,-8.1054,-8.1016,-8.1054,-8.1093,-8.1093,-8.1093,-8.1093,-8.1093,-8.1093,-8.1093,-8.1093,-8.1093,-8.1093,-8.1093,-8.1093,-8.1093,-8.1093,-8.1093,-8.1093,-8.1093,-8.1093,-8.1093,-8.1093,-8.1054,-7.7226,-7.7226,-7.7226,-7.7226,-7.7226,-7.7226,-7.7226,-7.7226,-7.7226,-7.7226,-7.7226,-7.7226,-7.7226,-7.7226,-7.7226,-7.7226,-7.7226,-7.7226,-7.7617,-7.8086,-7.8164,-7.9023,-8.0117,-8.0742,-8.1367,-8.1914,-8.2148,-8.2304,-8.2304,-8.2304,-8.2304,-8.2304,-8.2304,-8.2304,-8.2304,-8.2304,-8.2304,-8.2304,-8.2304,-8.2304,-8.2304,-8.2304,-8.2304,-8.2304,-8.2304,-8.2304,-8.2265,-8.1996,-8.1909,-8.1976,-8.1679,-8.1469,-8.1383,-8.1258,-8.1152,-8.1062,-8.09,-8.0746,-8.0669,-8.0477,-8.0362,-8.04,-8.0208,-8.04,-8.0439,-8.04,-8.0516,-8.0746,-8.0746,-8.0823,-8.1054,-8.1093,-8.1093,-8.1054,-8.0516,-8.0285,-8.0285,-8.04,-8.04,-8.0439,-8.0323,-8.0439,-8.0554,-8.0708,-8.0785,-8.1016,-8.1093,-8.1093,-8.1093,-8.1093,-8.1093,-8.1093,-8.1054,-8.1093,-8.1093,-8.1093,-8.1093,-8.1093,-8.1093,-8.1093,-8.1093,-8.1093,-8.1093,-8.1093,-8.1093,-8.1093,-8.1093,-8.1093,-8.1093,-8.1093,-8.1093,-8.1093,-8.1093,-8.1093,-8.1093,-7.7226,-7.7226,-7.7226,-7.7226,-7.7226,-7.7226,-7.7226,-7.7226,-7.7226,-7.7226,-7.7226,-7.7226,-7.7226,-7.7226,-7.7226,-7.7226,-7.7226,-7.7226,-7.7695,-7.8515,-7.9219,-8.0078,-8.0898,-8.1289,-8.1836,-8.2226,-8.2304,-8.2304,-8.2304,-8.2304,-8.2304,-8.2304,-8.2304,-8.2304,-8.2304,-8.2304,-8.2304,-8.2304,-8.2304,-8.2304,-8.2304,-8.2304,-8.2304,-8.2304,-8.2304,-8.2265,-8.2129,-8.1873,-8.171,-8.1664,-8.1447,-8.1271,-8.1258,-8.1152,-8.1093,-8.1093,-8.1093,-8.1093,-8.1093,-8.1093,-8.1093,-8.1093,-8.1093,-8.1093,-8.1054,-8.1093,-8.1093,-8.1054,-8.1093,-8.1093,-8.1093,-8.1093,-8.1093,-8.1093,-8.1093,-8.1093,-8.1093,-8.1016,-8.1093,-8.1093,-8.1093,-8.1093,-8.1093,-8.1093,-8.1093,-8.1093,-8.1093,-8.1093,-8.1093,-8.1093,-8.1093,-8.1093,-8.1093,-8.1093,-8.1093,-8.1093,-8.1093,-8.1093,-8.1093,-8.1093,-8.1093,-8.1093,-8.1093,-8.1093,-8.1093,-8.1093,-8.1093,-8.1093,-8.1093,-8.1093,-8.1093,-8.1093,-8.1093,-8.1093,-8.1093,-7.7226,-7.7226,-7.7226,-7.7226,-7.7226,-7.7226,-7.7226,-7.7226,-7.7226,-7.7226,-7.7226,-7.7226,-7.7226,-7.7226,-7.7226,-7.7226,-7.7226,-7.7383,-7.8086,-7.914,-8.0234,-8.1172,-8.1289,-8.1875,-8.2187,-8.2304,-8.2304,-8.2304,-8.2304,-8.2304,-8.2304,-8.2304,-8.2304,-8.2304,-8.2304,-8.2304,-8.2304,-8.2304,-8.2304,-8.2304,-8.2304,-8.2304,-8.2304,-8.2304,-8.2265,-8.2118,-8.1914,-8.1718,-8.1591,-8.1371,-8.121,-8.1116,-8.1124,-8.1093,-8.1093,-8.1093,-8.1093,-8.1093,-8.1093,-8.1093,-8.1093,-8.1093,-8.1093,-8.1093,-8.1093,-8.1093,-8.1093,-8.1093,-8.1093,-8.1093,-8.1093,-8.1093,-8.1093,-8.1093,-8.1093,-8.1093,-8.1093,-8.1093,-8.1093,-8.1093,-8.1093,-8.1093,-8.1093,-8.1093,-8.1093,-8.1093,-8.1093,-8.1093,-8.1093,-8.1093,-8.1093,-8.1093,-8.1093,-8.1093,-8.1093,-8.1093,-8.1093,-8.1093,-8.1093,-8.1093,-8.1093,-8.1093,-8.1093,-8.1093,-8.1093,-8.1093,-8.1093,-8.1093,-8.1093,-8.1093,-8.1093,-8.1093,-8.1093,-8.1093,-8.1093,-7.7226,-7.7226,-7.7226,-7.7226,-7.7226,-7.7226,-7.7226,-7.7226,-7.7226,-7.7226,-7.7226,-7.7226,-7.7226,-7.7226,-7.7226,-7.7226,-7.7344,-7.793,-7.8984,-8.0508,-8.1484,-8.1992,-8.2031,-8.2226,-8.2304,-8.2304,-8.2304,-8.2304,-8.2304,-8.2304,-8.2304,-8.2304,-8.2304,-8.2304,-8.2304,-8.2304,-8.2304,-8.2304,-8.2304,-8.2304,-8.2304,-8.2304,-8.2304,-8.2265,-8.2166,-8.1878,-8.1609,-8.1501,-8.1359,-8.12,-8.1154,-8.1093,-8.1093,-8.1093,-8.1093,-8.1093,-8.1093,-8.1093,-8.1093,-8.1093,-8.1093,-8.1093,-8.1093,-8.1093,-8.1093,-8.1093,-8.1093,-8.1093,-8.1093,-8.1093,-8.1093,-8.1093,-8.1093,-8.1093,-8.1093,-8.1093,-8.1093,-8.1093,-8.1093,-8.1093,-8.1093,-8.1093,-8.1093,-8.1093,-8.1093,-8.1093,-8.1093,-8.1093,-8.1093,-8.1093,-8.1093,-8.1093,-8.1093,-8.1093,-8.1093,-8.1093,-8.1093,-8.1093,-8.1093,-8.1093,-8.1093,-8.1093,-8.1093,-8.1093,-8.1093,-8.1093,-8.1093,-8.1093,-8.1093,-8.1093,-8.1093,-8.1093,-8.1093,-8.1093,-8.1093,-7.7226,-7.7226,-7.7226,-7.7226,-7.7226,-7.7226,-7.7226,-7.7226,-7.7226,-7.7226,-7.7226,-7.7226,-7.7226,-7.7226,-7.7226,-7.7226,-7.7539,-7.8515,-7.9492,-8.0547,-8.1562,-8.2265,-8.2304,-8.2304,-8.2304,-8.2304,-8.2304,-8.2304,-8.2304,-8.2304,-8.2304,-8.2304,-8.2304,-8.2304,-8.2304,-8.2304,-8.2304,-8.2304,-8.2304,-8.2304,-8.2304,-8.2304,-8.2222,-8.2127,-8.1971,-8.1688,-8.1436,-8.1418,-8.1272,-8.1122,-8.1093,-8.1093,-8.1093,-8.1093,-8.1093,-8.1093,-8.1093,-8.1093,-8.1093,-8.1093,-8.1093,-8.1093,-8.1093,-8.1093,-8.1093,-8.1093,-8.1093,-8.1093,-8.1093,-8.1093,-8.1093,-8.1093,-8.1093,-8.1093,-8.1093,-8.1093,-8.1093,-8.1093,-8.1093,-8.1093,-8.1093,-8.1093,-8.1093,-8.1093,-8.1093,-8.1093,-8.1093,-8.1093,-8.1093,-8.1093,-8.1093,-8.1093,-8.1093,-8.1093,-8.1093,-8.1093,-8.1093,-8.1093,-8.1093,-8.1093,-8.1093,-8.1093,-8.1093,-8.1093,-8.1093,-8.1093,-8.1093,-8.1093,-8.1093,-8.1093,-8.1093,-8.1093,-8.1093,-8.1093,-8.1093,-7.7226,-7.7226,-7.7226,-7.7226,-7.7226,-7.7226,-7.7226,-7.7226,-7.7226,-7.7226,-7.7226,-7.7226,-7.7226,-7.7226,-7.7226,-7.7265,-7.7812,-7.8828,-7.9805,-8.0351,-8.164,-8.2226,-8.2304,-8.2304,-8.2304,-8.2304,-8.2304,-8.2304,-8.2304,-8.2304,-8.2304,-8.2304,-8.2304,-8.2304,-8.2304,-8.2304,-8.2304,-8.2304,-8.2304,-8.2304,-8.2304,-8.2265,-8.2109,-8.1878,-8.1725,-8.1553,-8.1359,-8.1311,-8.1258,-8.1124,-8.1093,-8.1093,-8.1093,-8.1093,-8.1093,-8.1093,-8.1093,-8.1093,-8.1093,-8.1093,-8.1093,-8.1093,-8.1093,-8.1093,-8.1093,-8.1093,-8.1093,-8.1093,-8.1093,-8.1093,-8.1093,-8.1093,-8.1093,-8.1093,-8.1093,-8.1093,-8.1093,-8.1093,-8.1093,-8.1093,-8.1093,-8.1093,-8.1093,-8.1093,-8.1093,-8.1093,-8.1093,-8.1093,-8.1093,-8.1093,-8.1093,-8.1093,-8.1093,-8.1093,-8.1093,-8.1093,-8.1093,-8.1093,-8.1093,-8.1093,-8.1093,-8.1093,-8.1093,-8.1093,-8.1093,-8.1093,-8.1093,-8.1093,-8.1093,-8.1093,-8.1093,-8.1093,-8.1093,-8.1093,-8.1093,-7.7226,-7.7226,-7.7226,-7.7226,-7.7226,-7.7226,-7.7226,-7.7226,-7.7226,-7.7226,-7.7226,-7.7226,-7.7226,-7.7226,-7.7226,-7.7578,-7.8203,-7.9101,-7.9961,-8.0625,-8.1679,-8.2187,-8.2304,-8.2304,-8.2304,-8.2304,-8.2304,-8.2304,-8.2304,-8.2304,-8.2304,-8.2304,-8.2304,-8.2304,-8.2304,-8.2304,-8.2304,-8.2304,-8.2304,-8.2265,-8.2265,-8.212,-8.1883,-8.16,-8.1462,-8.1347,-8.12,-8.1176,-8.1154,-8.1093,-8.1093,-8.1093,-8.1093,-8.1093,-8.1093,-8.1093,-8.1093,-8.1093,-8.1093,-8.1093,-8.1093,-8.1093,-8.1093,-8.1093,-8.1093,-8.1093,-8.1093,-8.1093,-8.1093,-8.1093,-8.1093,-8.1093,-8.1093,-8.1093,-8.1093,-8.1093,-8.1093,-8.1093,-8.1093,-8.1093,-8.1093,-8.1093,-8.1093,-8.1093,-8.1093,-8.1093,-8.1093,-8.1093,-8.1093,-8.1093,-8.1093,-8.1093,-8.1093,-8.1093,-8.1093,-8.1093,-8.1093,-8.1093,-8.1093,-8.1093,-8.1093,-8.1093,-8.1093,-8.1093,-8.1093,-8.1093,-8.1093,-8.1093,-8.1093,-8.1093,-8.1093,-8.1093,-8.1093,-8.1093,-8.1093,-7.7226,-7.7226,-7.7226,-7.7226,-7.7226,-7.7226,-7.7226,-7.7226,-7.7226,-7.7226,-7.7226,-7.7226,-7.7226,-7.7226,-7.7226,-7.75,-7.7969,-7.8711,-7.9531,-8.0351,-8.1172,-8.1914,-8.2187,-8.2304,-8.2304,-8.2304,-8.2304,-8.2304,-8.2304,-8.2304,-8.2304,-8.2304,-8.2304,-8.2304,-8.2304,-8.2304,-8.2304,-8.2304,-8.2219,-8.2217,-8.2224,-8.1996,-8.1703,-8.1469,-8.1272,-8.121,-8.1116,-8.1093,-8.1093,-8.1093,-8.1093,-8.1093,-8.1093,-8.1093,-8.1093,-8.1093,-8.1093,-8.1093,-8.1093,-8.1093,-8.1093,-8.1093,-8.1093,-8.1093,-8.1093,-8.1093,-8.1093,-8.1093,-8.1093,-8.1093,-8.1093,-8.1093,-8.1093,-8.1093,-8.1093,-8.1093,-8.1093,-8.1093,-8.1093,-8.1093,-8.1093,-8.1093,-8.1093,-8.1093,-8.1093,-8.1093,-8.1093,-8.1093,-8.1093,-8.1093,-8.1093,-8.1093,-8.1093,-8.1093,-8.1093,-8.1093,-8.1093,-8.1093,-8.1093,-8.1093,-8.1093,-8.1093,-8.1093,-8.1093,-8.1093,-8.1093,-8.1093,-8.1093,-8.1093,-8.1093,-8.1093,-8.1093,-8.1093,-8.1093,-8.1093,-7.7226,-7.7226,-7.7226,-7.7226,-7.7226,-7.7226,-7.7226,-7.7226,-7.7226,-7.7226,-7.7226,-7.7226,-7.7226,-7.7226,-7.7226,-7.7226,-7.7305,-7.8125,-7.8906,-7.957,-8.0625,-8.1445,-8.1875,-8.2226,-8.2304,-8.2304,-8.2304,-8.2304,-8.2304,-8.2304,-8.2304,-8.2304,-8.2304,-8.2304,-8.2304,-8.2304,-8.2304,-8.2226,-8.2118,-8.2068,-8.2,-8.1825,-8.1543,-8.1386,-8.1181,-8.1108,-8.1093,-8.1093,-8.1093,-8.1093,-8.1093,-8.1093,-8.1093,-8.1093,-8.1093,-8.1093,-8.1093,-8.1093,-8.1093,-8.1093,-8.1093,-8.1093,-8.1093,-8.1093,-8.1093,-8.1093,-8.1093,-8.1093,-8.1093,-8.1093,-8.1093,-8.1093,-8.1093,-8.1093,-8.1093,-8.1093,-8.1093,-8.1093,-8.1093,-8.1093,-8.1093,-8.1093,-8.1093,-8.1093,-8.1093,-8.1093,-8.1093,-8.1093,-8.1093,-8.1093,-8.1093,-8.1093,-8.1093,-8.1093,-8.1093,-8.1093,-8.1093,-8.1093,-8.1093,-8.1093,-8.1093,-8.1093,-8.1093,-8.1093,-8.1093,-8.1093,-8.1093,-8.1093,-8.1093,-8.1093,-8.1093,-8.1093,-8.1093,-8.1093,-8.1093,-7.7226,-7.7226,-7.7226,-7.7226,-7.7226,-7.7226,-7.7226,-7.7226,-7.7226,-7.7226,-7.7226,-7.7226,-7.7226,-7.7226,-7.7226,-7.7226,-7.7461,-7.7969,-7.8515,-7.8984,-8.0117,-8.0898,-8.1328,-8.1992,-8.2187,-8.2265,-8.2304,-8.2304,-8.2304,-8.2304,-8.2304,-8.2304,-8.2304,-8.2304,-8.2304,-8.2304,-8.2304,-8.2265,-8.2113,-8.1855,-8.1591,-8.1491,-8.1323,-8.121,-8.1139,-8.1093,-8.1093,-8.1093,-8.1093,-8.1093,-8.1093,-8.1093,-8.1093,-8.1093,-8.1093,-8.1093,-8.1093,-8.1093,-8.1093,-8.1093,-8.1093,-8.1093,-8.1093,-8.1093,-8.1093,-8.1093,-8.1093,-8.1093,-8.1093,-8.1093,-8.1093,-8.1093,-8.1093,-8.1093,-8.1093,-8.1093,-8.1093,-8.1093,-8.1093,-8.1093,-8.1093,-8.1093,-8.1093,-8.1093,-8.1093,-8.1093,-8.1093,-8.1093,-8.1093,-8.1093,-8.1093,-8.1093,-8.1093,-8.1093,-8.1093,-8.1093,-8.1093,-8.1093,-8.1093,-8.1093,-8.1093,-8.1093,-8.1093,-8.1093,-8.1093,-8.1093,-8.1093,-8.1093,-8.1093,-8.1093,-8.1093,-8.1093,-8.1093,-8.1093,-8.1093,-7.7226,-7.7226,-7.7226,-7.7226,-7.7226,-7.7226,-7.7226,-7.7226,-7.7226,-7.7226,-7.7226,-7.7226,-7.7226,-7.7226,-7.7226,-7.7226,-7.7265,-7.7617,-7.8086,-7.8437,-7.9336,-8.0117,-8.0898,-8.1406,-8.1679,-8.2265,-8.2304,-8.2304,-8.2304,-8.2304,-8.2304,-8.2304,-8.2304,-8.2304,-8.2304,-8.2304,-8.2304,-8.2265,-8.2068,-8.1718,-8.1407,-8.1311,-8.1285,-8.1124,-8.1093,-8.1093,-8.1093,-8.1093,-8.1093,-8.1093,-8.1093,-8.1093,-8.1093,-8.1093,-8.1093,-8.1093,-8.1093,-8.1093,-8.1093,-8.1093,-8.1093,-8.1093,-8.1093,-8.1093,-8.1093,-8.1093,-8.1093,-8.1093,-8.1093,-8.1093,-8.1093,-8.1093,-8.1093,-8.1093,-8.1093,-8.1093,-8.1093,-8.1093,-8.1093,-8.1093,-8.1093,-8.1093,-8.1093,-8.1093,-8.1093,-8.1093,-8.1093,-8.1093,-8.1093,-8.1093,-8.1093,-8.1093,-8.1093,-8.1093,-8.1093,-8.1093,-8.1093,-8.1093,-8.1093,-8.1093,-8.1093,-8.1093,-8.1093,-8.1093,-8.1093,-8.1093,-8.1093,-8.1093,-8.1093,-8.1093,-8.1093,-8.1093,-8.1093,-8.1093,-8.1093,-7.7226,-7.7226,-7.7226,-7.7226,-7.7226,-7.7226,-7.7226,-7.7226,-7.7226,-7.7226,-7.7226,-7.7226,-7.7226,-7.7226,-7.7226,-7.7226,-7.7226,-7.7226,-7.7578,-7.8008,-7.8555,-7.9375,-8.0312,-8.0859,-8.1484,-8.2304,-8.2304,-8.2304,-8.2304,-8.2304,-8.2304,-8.2304,-8.2304,-8.2304,-8.2304,-8.2304,-8.2265,-8.207,-8.1894,-8.1563,-8.1228,-8.1231,-8.12,-8.1146,-8.1093,-8.1093,-8.1093,-8.1093,-8.1093,-8.1093,-8.1093,-8.1093,-8.1093,-8.1093,-8.1093,-8.1093,-8.1093,-8.1093,-8.1093,-8.1093,-8.1093,-8.1093,-8.1093,-8.1093,-8.1093,-8.1093,-8.1093,-8.1093,-8.1093,-8.1093,-8.1093,-8.1093,-8.1093,-8.1093,-8.1093,-8.1093,-8.1093,-8.1093,-8.1093,-8.1093,-8.1093,-8.1093,-8.1093,-8.1093,-8.1093,-8.1093,-8.1093,-8.1093,-8.1093,-8.1093,-8.1093,-8.1093,-8.1093,-8.1093,-8.1093,-8.1093,-8.1093,-8.1093,-8.1093,-8.1093,-8.1093,-8.1093,-8.1093,-8.1093,-8.1093,-8.1093,-8.1093,-8.1093,-8.1093,-8.1093,-8.1093,-8.1093,-8.1093,-8.1093,-8.1093,-7.7226,-7.7226,-7.7226,-7.7226,-7.7226,-7.7226,-7.7226,-7.7226,-7.7226,-7.7226,-7.7226,-7.7226,-7.7226,-7.7226,-7.7226,-7.7226,-7.7226,-7.7226,-7.7305,-7.7617,-7.8125,-7.8906,-7.9765,-8.0547,-8.1328,-8.207,-8.2265,-8.2304,-8.2304,-8.2304,-8.2304,-8.2304,-8.2304,-8.2304,-8.2304,-8.2265,-8.2059,-8.185,-8.1627,-8.143,-8.1167,-8.1131,-8.11,-8.1085,-8.1093,-8.1093,-8.1093,-8.1093,-8.1093,-8.1093,-8.1093,-8.1093,-8.1093,-8.1093,-8.1093,-8.1093,-8.1093,-8.1093,-8.1093,-8.1093,-8.1093,-8.1093,-8.1093,-8.1093,-8.1093,-8.1093,-8.1093,-8.1093,-8.1093,-8.1093,-8.1093,-8.1093,-8.1093,-8.1093,-8.1093,-8.1093,-8.1093,-8.1093,-8.1093,-8.1093,-8.1093,-8.1093,-8.1093,-8.1093,-8.1093,-8.1093,-8.1093,-8.1093,-8.1093,-8.1093,-8.1093,-8.1093,-8.1093,-8.1093,-8.1093,-8.1093,-8.1093,-8.1093,-8.1093,-8.1093,-8.1093,-8.1093,-8.1093,-8.1093,-8.1093,-8.1093,-8.1093,-8.1093,-8.1093,-8.1093,-8.1093,-8.1093,-8.1093,-8.1093,-8.1093,-7.7226,-7.7226,-7.7226,-7.7226,-7.7226,-7.7226,-7.7226,-7.7226,-7.7226,-7.7226,-7.7226,-7.7226,-7.7226,-7.7226,-7.7226,-7.7226,-7.7226,-7.7226,-7.7226,-7.7265,-7.7656,-7.8203,-7.8984,-7.9844,-8.0625,-8.1484,-8.1953,-8.2304,-8.2304,-8.2304,-8.2304,-8.2304,-8.2304,-8.2304,-8.2304,-8.2127,-8.1878,-8.1627,-8.1425,-8.1285,-8.1146,-8.1093,-8.1093,-8.1093,-8.1093,-8.1093,-8.1093,-8.1093,-8.1093,-8.1093,-8.1093,-8.1093,-8.1093,-8.1093,-8.1093,-8.1093,-8.1093,-8.1093,-8.1093,-8.1093,-8.1093,-8.1093,-8.1093,-8.1093,-8.1093,-8.1093,-8.1093,-8.1093,-8.1093,-8.1093,-8.1093,-8.1093,-8.1093,-8.1093,-8.1093,-8.1093,-8.1093,-8.1093,-8.1093,-8.1093,-8.1093,-8.1093,-8.1093,-8.1093,-8.1093,-8.1093,-8.1093,-8.1093,-8.1093,-8.1093,-8.1093,-8.1093,-8.1093,-8.1093,-8.1093,-8.1093,-8.1093,-8.1093,-8.1093,-8.1093,-8.1093,-8.1093,-8.1093,-8.1093,-8.1093,-8.1093,-8.1093,-8.1093,-8.1093,-8.1093,-8.1093,-8.1093,-8.1093,-8.1093,-8.1093,-7.6992,-7.7187,-7.7226,-7.7226,-7.7226,-7.7226,-7.7226,-7.7226,-7.7226,-7.7226,-7.7226,-7.7226,-7.7226,-7.7226,-7.7226,-7.7226,-7.7226,-7.7226,-7.7226,-7.7226,-7.7344,-7.7734,-7.8398,-7.9101,-7.9844,-8.0774,-8.1438,-8.1797,-8.2109,-8.2226,-8.2226,-8.2226,-8.2187,-8.2187,-8.2148,-8.1919,-8.1656,-8.1469,-8.1311,-8.1258,-8.1108,-8.1093,-8.1093,-8.1093,-8.1093,-8.1093,-8.1093,-8.1093,-8.1093,-8.1093,-8.1093,-8.1093,-8.1093,-8.1093,-8.1093,-8.1093,-8.1093,-8.1093,-8.1093,-8.1093,-8.1093,-8.1093,-8.1093,-8.1093,-8.1093,-8.1093,-8.1093,-8.1093,-8.1093,-8.1093,-8.1093,-8.1093,-8.1093,-8.1093,-8.1093,-8.1093,-8.1093,-8.1093,-8.1093,-8.1093,-8.1093,-8.1093,-8.1093,-8.1093,-8.1093,-8.1093,-8.1093,-8.1093,-8.1093,-8.1093,-8.1093,-8.1093,-8.1093,-8.1093,-8.1093,-8.1093,-8.1093,-8.1093,-8.1093,-8.1093,-8.1093,-8.1093,-8.1093,-8.1093,-8.1093,-8.1093,-8.1093,-8.1093,-8.1093,-8.1093,-8.1093,-8.1093,-8.1093,-8.1093,-8.1093,-7.6445,-7.7187,-7.7187,-7.7226,-7.7226,-7.7226,-7.7226,-7.7226,-7.7226,-7.7226,-7.7226,-7.7226,-7.7226,-7.7226,-7.7226,-7.7226,-7.7226,-7.7226,-7.7226,-7.7226,-7.7226,-7.7734,-7.8086,-7.8571,-7.9203,-8.0357,-8.0938,-8.1251,-8.1799,-8.2113,-8.2127,-8.2007,-8.198,-8.1971,-8.1967,-8.1627,-8.1403,-8.1359,-8.1186,-8.1131,-8.1108,-8.1093,-8.1093,-8.1093,-8.1093,-8.1093,-8.1093,-8.1093,-8.1093,-8.1093,-8.1093,-8.1093,-8.1093,-8.1093,-8.1093,-8.1093,-8.1093,-8.1093,-8.1093,-8.1093,-8.1093,-8.1093,-8.1093,-8.1093,-8.1093,-8.1093,-8.1093,-8.1093,-8.1093,-8.1093,-8.1093,-8.1093,-8.1093,-8.1093,-8.1093,-8.1093,-8.1093,-8.1093,-8.1093,-8.1093,-8.1093,-8.1093,-8.1093,-8.1093,-8.1093,-8.1093,-8.1093,-8.1093,-8.1093,-8.1093,-8.1093,-8.1093,-8.1093,-8.1093,-8.1093,-8.1093,-8.1093,-8.1093,-8.1093,-8.1093,-8.1093,-8.1093,-8.1093,-8.1093,-8.1093,-8.1093,-8.1093,-8.1093,-8.1093,-8.1093,-8.1093,-8.1093,-8.1093,-8.1093,-8.1093,-7.6055,-7.6367,-7.6953,-7.7226,-7.7226,-7.7226,-7.7226,-7.7226,-7.7226,-7.7226,-7.7226,-7.7226,-7.7226,-7.7226,-7.7226,-7.7226,-7.7226,-7.7226,-7.7226,-7.7226,-7.7187,-7.7226,-7.7549,-7.8019,-7.8662,-7.9544,-8.0143,-8.0871,-8.1703,-8.198,-8.1967,-8.1844,-8.1688,-8.1609,-8.1582,-8.1403,-8.1335,-8.1214,-8.1116,-8.1093,-8.1093,-8.1093,-8.1093,-8.1093,-8.1093,-8.1093,-8.1093,-8.1093,-8.1093,-8.1093,-8.1093,-8.1093,-8.1093,-8.1093,-8.1093,-8.1093,-8.1093,-8.1093,-8.1093,-8.1093,-8.1093,-8.1093,-8.1093,-8.1093,-8.1093,-8.1093,-8.1093,-8.1093,-8.1093,-8.1093,-8.1093,-8.1093,-8.1093,-8.1093,-8.1093,-8.1093,-8.1093,-8.1093,-8.1093,-8.1093,-8.1093,-8.1093,-8.1093,-8.1093,-8.1093,-8.1093,-8.1093,-8.1093,-8.1093,-8.1093,-8.1093,-8.1093,-8.1093,-8.1093,-8.1093,-8.1093,-8.1093,-8.1093,-8.1093,-8.1093,-8.1093,-8.1093,-8.1093,-8.1093,-8.1093,-8.1093,-8.1093,-8.1093,-8.1093,-8.1093,-8.1093,-8.1093,-8.1093,-8.1093,-8.1093,-7.5351,-7.5937,-7.6523,-7.6953,-7.7187,-7.7226,-7.7226,-7.7226,-7.7226,-7.7226,-7.7226,-7.7226,-7.7226,-7.7226,-7.7226,-7.7226,-7.7226,-7.7226,-7.7226,-7.7187,-7.7109,-7.7044,-7.716,-7.7378,-7.782,-7.8634,-7.9463,-8.0252,-8.0948,-8.1622,-8.1746,-8.1618,-8.1469,-8.1407,-8.1349,-8.1271,-8.1242,-8.1116,-8.1093,-8.1093,-8.1093,-8.1093,-8.1093,-8.1093,-8.1093,-8.1093,-8.1093,-8.1093,-8.1093,-8.1093,-8.1093,-8.1093,-8.1093,-8.1093,-8.1093,-8.1093,-8.1093,-8.1093,-8.1093,-8.1093,-8.1093,-8.1093,-8.1093,-8.1093,-8.1093,-8.1093,-8.1093,-8.1093,-8.1093,-8.1093,-8.1093,-8.1093,-8.1093,-8.1093,-8.1093,-8.1093,-8.1093,-8.1093,-8.1093,-8.1093,-8.1093,-8.1093,-8.1093,-8.1093,-8.1093,-8.1093,-8.1093,-8.1093,-8.1093,-8.1093,-8.1093,-8.1093,-8.1093,-8.1093,-8.1093,-8.1093,-8.1093,-8.1093,-8.1093,-8.1093,-8.1093,-8.1093,-8.1093,-8.1093,-8.1093,-8.1093,-8.1093,-8.1093,-8.1093,-8.1093,-8.1093,-8.1093,-8.1093,-8.1093,-8.1093,-7.4336,-7.5742,-7.5898,-7.6406,-7.7148,-7.7226,-7.7226,-7.7226,-7.7226,-7.7226,-7.7226,-7.7226,-7.7226,-7.7226,-7.7226,-7.7226,-7.7226,-7.7226,-7.7187,-7.7148,-7.7031,-7.6926,-7.6738,-7.6652,-7.7195,-7.7722,-7.8441,-7.926,-7.9909,-8.106,-8.1514,-8.1458,-8.1371,-8.1271,-8.1181,-8.1146,-8.1116,-8.1108,-8.1093,-8.1093,-8.1093,-8.1093,-8.1093,-8.1093,-8.1093,-8.1093,-8.1093,-8.1093,-8.1093,-8.1093,-8.1093,-8.1093,-8.1093,-8.1093,-8.1093,-8.1093,-8.1093,-8.1093,-8.1093,-8.1093,-8.1093,-8.1093,-8.1093,-8.1093,-8.1093,-8.1093,-8.1093,-8.1093,-8.1093,-8.1093,-8.1093,-8.1093,-8.1093,-8.1093,-8.1093,-8.1093,-8.1093,-8.1093,-8.1093,-8.1093,-8.1093,-8.1093,-8.1093,-8.1093,-8.1093,-8.1093,-8.1093,-8.1093,-8.1093,-8.1093,-8.1093,-8.1093,-8.1093,-8.1093,-8.1093,-8.1093,-8.1093,-8.1093,-8.1093,-8.1093,-8.1093,-8.1093,-8.1093,-8.1093,-8.1093,-8.1093,-8.1093,-8.1093,-8.1093,-8.1093,-8.1093,-8.1093,-8.1093,-8.1093,-8.1093,-7.3945,-7.5,-7.5625,-7.6406,-7.7148,-7.7226,-7.7226,-7.7226,-7.7226,-7.7226,-7.7226,-7.7226,-7.7226,-7.7226,-7.7226,-7.7226,-7.7226,-7.7187,-7.7109,-7.7,-7.6876,-7.6715,-7.6544,-7.6408,-7.6787,-7.7189,-7.7803,-7.8521,-7.9745,-8.0834,-8.1383,-8.1383,-8.1271,-8.1152,-8.11,-8.1093,-8.1093,-8.1093,-8.1093,-8.1093,-8.1093,-8.1093,-8.1093,-8.1093,-8.1093,-8.1093,-8.1093,-8.1093,-8.1093,-8.1093,-8.1093,-8.1093,-8.1093,-8.1093,-8.1093,-8.1093,-8.1093,-8.1093,-8.1093,-8.1093,-8.1093,-8.1093,-8.1093,-8.1093,-8.1093,-8.1093,-8.1093,-8.1093,-8.1093,-8.1093,-8.1093,-8.1093,-8.1093,-8.1093,-8.1093,-8.1093,-8.1093,-8.1093,-8.1093,-8.1093,-8.1093,-8.1093,-8.1093,-8.1093,-8.1093,-8.1093,-8.1093,-8.1093,-8.1093,-8.1093,-8.1093,-8.1093,-8.1093,-8.1093,-8.1093,-8.1093,-8.1093,-8.1093,-8.1093,-8.1093,-8.1093,-8.1093,-8.1093,-8.1093,-8.1093,-8.1093,-8.1093,-8.1093,-8.1093,-8.1093,-8.1093,-8.1093,-8.1093,-8.1093,-8.1093,-7.3281,-7.414,-7.5039,-7.6055,-7.7109,-7.7226,-7.7226,-7.7226,-7.7226,-7.7226,-7.7226,-7.7226,-7.7226,-7.7226,-7.7226,-7.7187,-7.7187,-7.7109,-7.7,-7.6933,-7.6749,-7.656,-7.6359,-7.6246,-7.6378,-7.6765,-7.7284,-7.8021,-7.9323,-8.0493,-8.1196,-8.1217,-8.1131,-8.1124,-8.1093,-8.1093,-8.1093,-8.1093,-8.1093,-8.1093,-8.1093,-8.1093,-8.1093,-8.1093,-8.1093,-8.1093,-8.1093,-8.1093,-8.1093,-8.1093,-8.1093,-8.1093,-8.1093,-8.1093,-8.1093,-8.1093,-8.1093,-8.1093,-8.1093,-8.1093,-8.1093,-8.1093,-8.1093,-8.1093,-8.1093,-8.1093,-8.1093,-8.1093,-8.1093,-8.1093,-8.1093,-8.1093,-8.1093,-8.1093,-8.1093,-8.1093,-8.1093,-8.1093,-8.1093,-8.1093,-8.1093,-8.1093,-8.1093,-8.1093,-8.1093,-8.1093,-8.1093,-8.1093,-8.1093,-8.1093,-8.1093,-8.1093,-8.1093,-8.1093,-8.1093,-8.1093,-8.1093,-8.1093,-8.1093,-8.1093,-8.1093,-8.1093,-8.1093,-8.1093,-8.1093,-8.1093,-8.1093,-8.1093,-8.1093,-8.1093,-8.1093,-8.1093,-8.1093,-8.1093,-8.1093,-7.2539,-7.3437,-7.4297,-7.5664,-7.6992,-7.7148,-7.7226,-7.7226,-7.7226,-7.7226,-7.7226,-7.7226,-7.7226,-7.7187,-7.7187,-7.7148,-7.7057,-7.6948,-7.6804,-7.6813,-7.6521,-7.6327,-7.6246,-7.612,-7.6178,-7.6352,-7.6784,-7.7553,-7.8707,-7.9915,-8.0839,-8.1054,-8.1093,-8.1093,-8.1093,-8.1093,-8.1093,-8.1093,-8.1093,-8.1093,-8.1093,-8.1093,-8.1093,-8.1093,-8.1093,-8.1093,-8.1093,-8.1093,-8.1093,-8.1093,-8.1093,-8.1093,-8.1093,-8.1093,-8.1093,-8.1093,-8.1093,-8.1093,-8.1093,-8.1093,-8.1093,-8.1093,-8.1093,-8.1093,-8.1093,-8.1093,-8.1093,-8.1093,-8.1093,-8.1093,-8.1093,-8.1093,-8.1093,-8.1093,-8.1093,-8.1093,-8.1093,-8.1093,-8.1093,-8.1093,-8.1093,-8.1093,-8.1093,-8.1093,-8.1093,-8.1093,-8.1093,-8.1093,-8.1093,-8.1093,-8.1093,-8.1093,-8.1093,-8.1093,-8.1093,-8.1093,-8.1093,-8.1093,-8.1093,-8.1093,-8.1093,-8.1093,-8.1093,-8.1093,-8.1093,-8.1093,-8.1093,-8.1093,-8.1093,-8.1093,-8.1093,-8.1093,-8.1093,-8.1093,-8.1093,-7.25,-7.3437,-7.4961,-7.5859,-7.6289,-7.6914,-7.7187,-7.7226,-7.7226,-7.7226,-7.7226,-7.7226,-7.7226,-7.7187,-7.707,-7.6998,-7.6942,-7.677,-7.6582,-7.6488,-7.6316,-7.6171,-7.6095,-7.6048,-7.5976,-7.6053,-7.6438,-7.7169,-7.84,-7.9554,-8.0516,-8.1016,-8.1093,-8.1093,-8.1093,-8.1093,-8.1093,-8.1093,-8.1093,-8.1093,-8.1093,-8.1093,-8.1093,-8.1093,-8.1093,-8.1093,-8.1093,-8.1093,-8.1093,-8.1093,-8.1093,-8.1093,-8.1093,-8.1093,-8.1093,-8.1093,-8.1093,-8.1093,-8.1093,-8.1093,-8.1093,-8.1093,-8.1093,-8.1093,-8.1093,-8.1093,-8.1093,-8.1093,-8.1093,-8.1093,-8.1093,-8.1093,-8.1093,-8.1093,-8.1093,-8.1093,-8.1093,-8.1093,-8.1093,-8.1093,-8.1093,-8.1093,-8.1093,-8.1093,-8.1093,-8.1093,-8.1093,-8.1093,-8.1093,-8.1093,-8.1093,-8.1093,-8.1093,-8.1093,-8.1093,-8.1093,-8.1093,-8.1093,-8.1093,-8.1093,-8.1093,-8.1093,-8.1093,-8.1093,-8.1093,-8.1093,-8.1093,-8.1093,-8.1093,-8.1093,-8.1093,-8.1093,-8.1093,-8.1093,-8.1093,-7.2265,-7.289,-7.418,-7.5234,-7.5898,-7.6445,-7.6836,-7.7148,-7.7226,-7.7226,-7.7226,-7.7226,-7.7226,-7.7187,-7.6992,-7.6872,-7.6843,-7.6606,-7.6466,-7.6327,-7.6171,-7.6095,-7.6034,-7.5976,-7.5976,-7.6015,-7.6476,-7.7246,-7.8092,-7.9246,-8.0169,-8.0592,-8.0785,-8.1093,-8.1093,-8.1093,-8.1093,-8.1093,-8.1093,-8.1093,-8.1093,-8.1093,-8.1093,-8.1093,-8.1093,-8.1093,-8.1093,-8.1093,-8.1093,-8.1093,-8.1093,-8.1093,-8.1093,-8.1093,-8.1093,-8.1093,-8.1093,-8.1093,-8.1093,-8.1093,-8.1093,-8.1093,-8.1093,-8.1093,-8.1093,-8.1093,-8.1093,-8.1093,-8.1093,-8.1093,-8.1093,-8.1093,-8.1093,-8.1093,-8.1093,-8.1093,-8.1093,-8.1093,-8.1093,-8.1093,-8.1093,-8.1093,-8.1093,-8.1093,-8.1093,-8.1093,-8.1093,-8.1093,-8.1093,-8.1093,-8.1093,-8.1093,-8.1093,-8.1093,-8.1093,-8.1093,-8.1093,-8.1093,-8.1093,-8.1093,-8.1093,-8.1093,-8.1093,-8.1093,-8.1093,-8.1093,-8.1093,-8.1093,-8.1093,-8.1093,-8.1093,-8.1093,-8.1093,-8.1093,-8.1093,-7.1992,-7.2109,-7.2969,-7.414,-7.5508,-7.5859,-7.6328,-7.6953,-7.7148,-7.7226,-7.7187,-7.7148,-7.7147,-7.71,-7.6984,-7.6911,-7.6721,-7.6391,-7.625,-7.6183,-7.6093,-7.6048,-7.602,-7.5976,-7.5976,-7.6169,-7.6592,-7.6938,-7.7476,-7.8707,-7.9592,-7.99,-8.0477,-8.1093,-8.1093,-8.1093,-8.1093,-8.1093,-8.1093,-8.1093,-8.1093,-8.1093,-8.1093,-8.1093,-8.1093,-8.1093,-8.1093,-8.1093,-8.1093,-8.1093,-8.1093,-8.1093,-8.1093,-8.1093,-8.1093,-8.1093,-8.1093,-8.1093,-8.1093,-8.1093,-8.1093,-8.1093,-8.1093,-8.1093,-8.1093,-8.1093,-8.1093,-8.1093,-8.1093,-8.1093,-8.1093,-8.1093,-8.1093,-8.1093,-8.1093,-8.1093,-8.1093,-8.1093,-8.1093,-8.1093,-8.1093,-8.1093,-8.1093,-8.1093,-8.1093,-8.1093,-8.1093,-8.1093,-8.1093,-8.1093,-8.1093,-8.1093,-8.1093,-8.1093,-8.1093,-8.1093,-8.1093,-8.1093,-8.1093,-8.1093,-8.1093,-8.1093,-8.1093,-8.1093,-8.1093,-8.1093,-8.1093,-8.1093,-8.1093,-8.1093,-8.1093,-8.1093,-8.1093,-8.1093,-8.1093,-7.1992,-7.207,-7.293,-7.3555,-7.4023,-7.5234,-7.6015,-7.625,-7.6914,-7.7226,-7.7148,-7.7007,-7.6945,-7.6939,-7.6749,-7.6597,-7.6484,-7.6171,-7.6068,-7.6034,-7.602,-7.5991,-7.5976,-7.5976,-7.5976,-7.613,-7.6322,-7.663,-7.713,-7.8207,-7.9131,-7.9746,-8.0669,-8.1054,-8.1093,-8.1093,-8.1093,-8.1093,-8.1093,-8.1093,-8.1093,-8.1093,-8.1093,-8.1093,-8.1093,-8.1093,-8.1093,-8.1093,-8.1093,-8.1093,-8.1093,-8.1093,-8.1093,-8.1093,-8.1093,-8.1093,-8.1093,-8.1093,-8.1093,-8.1093,-8.1093,-8.1093,-8.1093,-8.1093,-8.1093,-8.1093,-8.1093,-8.1093,-8.1093,-8.1093,-8.1093,-8.1093,-8.1093,-8.1093,-8.1093,-8.1093,-8.1093,-8.1093,-8.1093,-8.1093,-8.1093,-8.1093,-8.1093,-8.1093,-8.1093,-8.1093,-8.1093,-8.1093,-8.1093,-8.1093,-8.1093,-8.1093,-8.1093,-8.1093,-8.1093,-8.1093,-8.1093,-8.1093,-8.1093,-8.1093,-8.1093,-8.1093,-8.1093,-8.1093,-8.1093,-8.1093,-8.1093,-8.1093,-8.1093,-8.1093,-8.1093,-8.1093,-8.1093,-8.1093,-8.1093]},{"header":{"parameterUnit":"m.s-1","parameterCategory":1,"la1":31.0,"la2":29.5877,"lo1":-88.7671,"lo2":-86.6584,"dy":0.0162,"dx":0.0185,"nx":115,"ny":88,"refTime":"2023-03-28T12:00:00:Z","depth":0,"parameterNumber":3,"parameterNumberName":"V-component_of_WINDS"},"data":[0.0,0.0,0.0,0.0,0.0,0.0,0.0,0.0,0.0,0.0,0.0,0.0,0.0,0.0,0.0,0.0,0.0,0.0,0.0,0.0,0.0,0.0,0.0,0.0,0.0,0.0,0.0,0.0,0.0,0.0,0.0,0.0,0.0,0.0,0.0,0.0,0.0,0.0,0.0,0.0,0.0,0.0,0.0,0.0,0.0,0.0,0.0,0.0,0.0,0.0,0.0,0.0,0.0,0.0,0.0,0.0,0.0,0.0,0.0,0.0,0.0,0.0,0.0,0.0,0.0,0.0,0.0,0.0,0.0,0.0,0.0,0.0,0.0,0.0,0.0,0.0,0.0,0.0,0.0,0.0,0.0,0.0,0.0,0.0,0.0,0.0,0.0,0.0,0.0,0.0,0.0,0.0,0.0,0.0,0.0,0.0,0.0,0.0,0.0,0.0,0.0,0.0,0.0,0.0,0.0,0.0,0.0,0.0,0.0,0.0,0.0,0.0,0.0,0.0,0.0,0.0,0.0,0.0,0.0,0.0,0.0,0.0,0.0,0.0,0.0,0.0,0.0,0.0,0.0,0.0,0.0,0.0,0.0,0.0,0.0,0.0,0.0,0.0,0.0,0.0,0.0,0.0,0.0,0.0,0.0,0.0,0.0,0.0,0.0,0.0,0.0,0.0,0.0,0.0,0.0,0.0,0.0,0.0,0.0,0.0,0.0,0.0,0.0,0.0,0.0,0.0,0.0,0.0,0.0,0.0,0.0,0.0,0.0,0.0,0.0,0.0,0.0,0.0,0.0,0.0,0.0,0.0,0.0,0.0,0.0,0.0,0.0,0.0,0.0,0.0,0.0,0.0,0.0,0.0,0.0,0.0,0.0,0.0,0.0,0.0,0.0,0.0,0.0,0.0,0.0,0.0,0.0,0.0,0.0,0.0,0.0,0.0,0.0,0.0,0.0,0.0,0.0,0.0,0.0,0.0,0.0,0.0,0.0,0.0,0.0,0.0,0.0,0.0,0.0,0.0,0.0,0.0,0.0,0.0,0.0,0.0,0.0,0.0,0.0,0.0,0.0,0.0,0.0,0.0,0.0,0.0,0.0,0.0,0.0,0.0,0.0,0.0,0.0,0.0,0.0,0.0,0.0,0.0,0.0,0.0,0.0,0.0,0.0,0.0,0.0,0.0,0.0,0.0,0.0,0.0,0.0,0.0,0.0,0.0,0.0,0.0,0.0,0.0,0.0,0.0,0.0,0.0,0.0,0.0,0.0,0.0,0.0,0.0,0.0,0.0,0.0,0.0,0.0,0.0,0.0,0.0,0.0,0.0,0.0,0.0,0.0,0.0,0.0,0.0,0.0,0.0,0.0,0.0,0.0,0.0,0.0,0.0,0.0,0.0,0.0,0.0,0.0,0.0,0.0,0.0,0.0,0.0,0.0,0.0,0.0,0.0,0.0,0.0,0.0,0.0,0.0,0.0,0.0,0.0,0.0,0.0,0.0,0.0,0.0,0.0,0.0,0.0,0.0,0.0,0.0,0.0,0.0,0.0,0.0,0.0,0.0,0.0,0.0,0.0,0.0,0.0,0.0,0.0,0.0,0.0,0.0,0.0,0.0,0.0,0.0,0.0,0.0,0.0,0.0,0.0,0.0,0.0,0.0,0.0,0.0,0.0,0.0,0.0,0.0,0.0,0.0,0.0,0.0,0.0,0.0,0.0,0.0,0.0,0.0,0.0,0.0,0.0,0.0,0.0,0.0,0.0,0.0,0.0,0.0,0.0,0.0,0.0,0.0,0.0,0.0,0.0,0.0,0.0,0.0,0.0,0.0,0.0,0.0,0.0,0.0,0.0,0.0,0.0,0.0,0.0,0.0,0.0,0.0,0.0,0.0,0.0,0.0,0.0,0.0,0.0,0.0,0.0,0.0,0.0,0.0,0.0,0.0,0.0,0.0,0.0,0.0,0.0,0.0,0.0,0.0,0.0,0.0,0.0,0.0,0.0,0.0,0.0,0.0,0.0,0.0,0.0,0.0,0.0,0.0,0.0,0.0,0.0,0.0,0.0,0.0,0.0,0.0,0.0,0.0,0.0,0.0,0.0,0.0,0.0,0.0,0.0,0.0,0.0,0.0,0.0,0.0,0.0,0.0,0.0,0.0,0.0,0.0,0.0,0.0,0.0,0.0,0.0,0.0,0.0,0.0,0.0,0.0,0.0,0.0,0.0,0.0,0.0,0.0,0.0,0.0,0.0,0.0,0.0,0.0,0.0,0.0,0.0,0.0,0.0,0.0,0.0,0.0,0.0,0.0,0.0,0.0,0.0,0.0,0.0,0.0,0.0,0.0,0.0,0.0,0.0,0.0,0.0,0.0,0.0,0.0,0.0,0.0,0.0,0.0,0.0,0.0,0.0,0.0,0.0,0.0,0.0,0.0,0.0,0.0,0.0,0.0,0.0,0.0,0.0,0.0,0.0,0.0,0.0,0.0,0.0,0.0,0.0,0.0,0.0,0.0,0.0,0.0,0.0,0.0,0.0,0.0,0.0,0.0,0.0,0.0,0.0,0.0,0.0,0.0,0.0,0.0,0.0,0.0,0.0,0.0,0.0,0.0,0.0,0.0,0.0,0.0,0.0,0.0,0.0,0.0,0.0,0.0,0.0,0.0,0.0,0.0,0.0,0.0,0.0,0.0,0.0,0.0,0.0,0.0,0.0,0.0,0.0,0.0,0.0,0.0,0.0,0.0,0.0,0.0,0.0,0.0,0.0,0.0,0.0,0.0,0.0,0.0,0.0,0.0,0.0,0.0,0.0,0.0,0.0,0.0,0.0,0.0,0.0,0.0,0.0,0.0,0.0,0.0,0.0,0.0,0.0,0.0,0.0,0.0,0.0,0.0,0.0,0.0,0.0,0.0,0.0,0.0,0.0,0.0,0.0,0.0,0.0,0.0,0.0,0.0,0.0,0.0,0.0,0.0,0.0,0.0,0.0,0.0,0.0,0.0,0.0,0.0,0.0,0.0,0.0,0.0,0.0,0.0,0.0,0.0,0.0,0.0,0.0,0.0,0.0,0.0,0.0,0.0,0.0,0.0,0.0,0.0,0.0,0.0,0.0,0.0,0.0,0.0,0.0,0.0,0.0,0.0,0.0,0.0,0.0,0.0,0.0,0.0,0.0,0.0,0.0,0.0,0.0,0.0,0.0,0.0,0.0,0.0,0.0,0.0,0.0,0.0,0.0,0.0,0.0,0.0,0.0,0.0,0.0,0.0,0.0,0.0,0.0,0.0,0.0,0.0,0.0,0.0,0.0,0.0,0.0,0.0,0.0,0.0,0.0,0.0,0.0,0.0,0.0,0.0,0.0,0.0,0.0,0.0,0.0,0.0,0.0,0.0,0.0,0.0,0.0,0.0,0.0,0.0,0.0,0.0,0.0,0.0,0.0,0.0,0.0,0.0,0.0,0.0,0.0,0.0,0.0,0.0,0.0,0.0,0.0,0.0,0.0,0.0,0.0,0.0,0.0,0.0,0.0,0.0,0.0,0.0,0.0,0.0,0.0,0.0,0.0,0.0,0.0,0.0,0.0,0.0,0.0,0.0,0.0,0.0,0.0,0.0,0.0,0.0,0.0,0.0,0.0,0.0,0.0,0.0,0.0,0.0,0.0,0.0,0.0,0.0,0.0,0.0,0.0,0.0,0.0,0.0,0.0,0.0,0.0,0.0,0.0,0.0,0.0,0.0,0.0,0.0,0.0,0.0,0.0,0.0,0.0,0.0,0.0,0.0,0.0,0.0,0.0,0.0,0.0,0.0,0.0,0.0,0.0,0.0,0.0,0.0,0.0,0.0,0.0,0.0,0.0,0.0,0.0,0.0,0.0,0.0,0.0,0.0,0.0,0.0,0.0,0.0,0.0,0.0,0.0,0.0,0.0,0.0,0.0,0.0,0.0,0.0,0.0,0.0,0.0,0.0,0.0,0.0,0.0,0.0,0.0,0.0,0.0,0.0,0.0,0.0,0.0,0.0,0.0,0.0,0.0,0.0,0.0,0.0,0.0,0.0,0.0,0.0,0.0,0.0,0.0,0.0,0.0,0.0,0.0,0.0,0.0,0.0,0.0,0.0,0.0,0.0,0.0,0.0,0.0,0.0,0.0,0.0,0.0,0.0,0.0,0.0,0.0,0.0,0.0,0.0,0.0,0.0,0.0,0.0,0.0,0.0,0.0,0.0,0.0,0.0,0.0,0.0,0.0,0.0,0.0,0.0,0.0,0.0,0.0,0.0,0.0,0.0,0.0,0.0,0.0,0.0,0.0,0.0,0.0,0.0,0.0,0.0,0.0,0.0,0.0,0.0,0.0,0.0,0.0,0.0,0.0,0.0,0.0,0.0,0.0,0.0,0.0,0.0,0.0,0.0,0.0,0.0,0.0,0.0,0.0,0.0,0.0,0.0,0.0,0.0,0.0,0.0,0.0,0.0,0.0,0.0,0.0,0.0,0.0,0.0,0.0,0.0,0.0,0.0,0.0,0.0,0.0,0.0,0.0,0.0,0.0,0.0,0.0,0.0,0.0,0.0,0.0,0.0,0.0,0.0,0.0,0.0,0.0,0.0,0.0,0.0,0.0,0.0,0.0,0.0,0.0,0.0,0.0,0.0,0.0,0.0,0.0,0.0,0.0,0.0,0.0,0.0,0.0,0.0,0.0,0.0,0.0,0.0,0.0,0.0,0.0,0.0,0.0,0.0,0.0,0.0,0.0,0.0,0.0,0.0,0.0,0.0,0.0,0.0,0.0,0.0,0.0,0.0,0.0,0.0,0.0,0.0,0.0,0.0,0.0,0.0,0.0,0.0,0.0,0.0,0.0,0.0,0.0,0.0,0.0,0.0,0.0,0.0,0.0,0.0,0.0,0.0,0.0,0.0,0.0,0.0,0.0,0.0,0.0,0.0,0.0,0.0,0.0,0.0,0.0,0.0,0.0,0.0,0.0,0.0,0.0,0.0,0.0,0.0,0.0,0.0,0.0,0.0,0.0,0.0,0.0,0.0,0.0,0.0,0.0,0.0,0.0,0.0,0.0,0.0,0.0,0.0,0.0,0.0,0.0,0.0,0.0,0.0,0.0,0.0,0.0,0.0,0.0,0.0,0.0,0.0,0.0,0.0,0.0,0.0,0.0,0.0,0.0,0.0,0.0,0.0,0.0,0.0,0.0,0.0,0.0,0.0,0.0,0.0,0.0,0.0,0.0,0.0,0.0,0.0,0.0,0.0,0.0,0.0,0.0,0.0,0.0,0.0,0.0,0.0,0.0,0.0,0.0,0.0,0.0,0.0,0.0,0.0,0.0,0.0,0.0,0.0,0.0,0.0,0.0,0.0,0.0,0.0,0.0,0.0,0.0,0.0,0.0,0.0,0.0,0.0,0.0,0.0,0.0,0.0,0.0,0.0,0.0,0.0,0.0,0.0,0.0,0.0,0.0,0.0,0.0,0.0,0.0,0.0,0.0,0.0,0.0,0.0,0.0,0.0,0.0,0.0,0.0,0.0,0.0,0.0,0.0,0.0,0.0,0.0,0.0,0.0,0.0,0.0,0.0,0.0,0.0,0.0,0.0,0.0,0.0,0.0,0.0,0.0,0.0,0.0,0.0,0.0,0.0,0.0,0.0,0.0,0.0,0.0,0.0,0.0,0.0,0.0,0.0,0.0,0.0,0.0,0.0,0.0,0.0,0.0,0.0,0.0,0.0,0.0,0.0,0.0,0.0,0.0,0.0,0.0,0.0,0.0,0.0,0.0,0.0,0.0,0.0,0.0,0.0,0.0,0.0,0.0,0.0,0.0,0.0,0.0,0.0,0.0,0.0,0.0,0.0,0.0,0.0,0.0,0.0,0.0,0.0,0.0,0.0,0.0,0.0,0.0,0.0,0.0,0.0,0.0,0.0,0.0,0.0,0.0,0.0,0.0,0.0,0.0,0.0,0.0,0.0,0.0,0.0,0.0,0.0,0.0,0.0,0.0,0.0,0.0,0.0,0.0,0.0,0.0,0.0,0.0,0.0,0.0,0.0,0.0,0.0,0.0,0.0,0.0,0.0,0.0,0.0,0.0,0.0,0.0,0.0,0.0,0.0,0.0,0.0,0.0,0.0,0.0,0.0,0.0,0.0,0.0,0.0,0.0,0.0,0.0,0.0,0.0,0.0,0.0,0.0,0.0,0.0,0.0,0.0,0.0,0.0,0.0,0.0,0.0,0.0,0.0,0.0,0.0,0.0,0.0,0.0,0.0,0.0,0.0,0.0,0.0,0.0,0.0,0.0,0.0,0.0,0.0,0.0,0.0,0.0,0.0,0.0,0.0,0.0,0.0,0.0,0.0,0.0,0.0,0.0,0.0,0.0,0.0,0.0,0.0,0.0,0.0,0.0,0.0,0.0,0.0,0.0,0.0,0.0,0.0,0.0,0.0,0.0,0.0,0.0,0.0,0.0,0.0,0.0,0.0,0.0,0.0,0.0,0.0,0.0,0.0,0.0,0.0,0.0,0.0,0.0,0.0,0.0,0.0,0.0,0.0,0.0,0.0,0.0,0.0,0.0,0.0,0.0,0.0,0.0,0.0,0.0,0.0,0.0,0.0,0.0,0.0,0.0,0.0,0.0,0.0,0.0,0.0,0.0,0.0,0.0,0.0,0.0,0.0,0.0,0.0,0.0,0.0,0.0,0.0,0.0,0.0,0.0,0.0,0.0,0.0,0.0,0.0,0.0,0.0,0.0,0.0,0.0,0.0,0.0,0.0,0.0,0.0,0.0,0.0,0.0,0.0,0.0,0.0,0.0,0.0,0.0,0.0,0.0,0.0,0.0,0.0,0.0,0.0,0.0,0.0,0.0,0.0,0.0,0.0,0.0,0.0,0.0,0.0,0.0,0.0,0.0,0.0,0.0,0.0,0.0,0.0,0.0,0.0,0.0,0.0,0.0,0.0,0.0,0.0,0.0,0.0,0.0,0.0,0.0,0.0,0.0,0.0,0.0,0.0,0.0,0.0,0.0,0.0,0.0,0.0,0.0,0.0,0.0,0.0,0.0,0.0,0.0,0.0,0.0,0.0,0.0,0.0,0.0,0.0,0.0,0.0,0.0,0.0,0.0,0.0,0.0,0.0,0.0,0.0,0.0,0.0,0.0,0.0,0.0,0.0,0.0,0.0,0.0,0.0,0.0,0.0,0.0,0.0,0.0,0.0,0.0,0.0,0.0,0.0,0.0,0.0,0.0,0.0,0.0,0.0,0.0,0.0,0.0,0.0,0.0,0.0,0.0,0.0,0.0,0.0,0.0,0.0,0.0,0.0,0.0,0.0,0.0,0.0,0.0,0.0,0.0,0.0,0.0,0.0,0.0,0.0,0.0,0.0,0.0,0.0,0.0,0.0,0.0,0.0,0.0,0.0,0.0,0.0,0.0,0.0,0.0,0.0,0.0,0.0,0.0,0.0,0.0,0.0,0.0,0.0,0.0,0.0,0.0,0.0,0.0,0.0,0.0,0.0,0.0,0.0,0.0,0.0,0.0,0.0,0.0,0.0,0.0,0.0,0.0,0.0,0.0,0.0,0.0,0.0,0.0,0.0,0.0,0.0,0.0,0.0,0.0,0.0,0.0,0.0,0.0,0.0,0.0,0.0,0.0,0.0,0.0,0.0,0.0,0.0,0.0,0.0,0.0,0.0,0.0,0.0,0.0,0.0,0.0,0.0,0.0,0.0,0.0,0.0,0.0,0.0,0.0,0.0,0.0,0.0,0.0,0.0,0.0,0.0,0.0,0.0,0.0,0.0,0.0,0.0,0.0,0.0,0.0,0.0,0.0,0.0,0.0,0.0,0.0,0.0,0.0,0.0,0.0,0.0,0.0,0.0,0.0,0.0,0.0,0.0,0.0,0.0,0.0,0.0,0.0,0.0,0.0,0.0,0.0,0.0,0.0,0.0,0.0,0.0,0.0,0.0,0.0,0.0,0.0,0.0,0.0,0.0,0.0,0.0,0.0,0.0,0.0,0.0,0.0,0.0,0.0,0.0,0.0,0.0,0.0,0.0,0.0,0.0,0.0,0.0,0.0,0.0,0.0,0.0,0.0,0.0,0.0,0.0,0.0,0.0,0.0,0.0,0.0,0.0,0.0,0.0,0.0,0.0,0.0,0.0,0.0,0.0,0.0,0.0,0.0,0.0,0.0,0.0,0.0,0.0,0.0,0.0,0.0,0.0,0.0,0.0,0.0,0.0,0.0,0.0,0.0,0.0,0.0,0.0,0.0,0.0,0.0,0.0,0.0,0.0,0.0,0.0,0.0,0.0,0.0,0.0,0.0,0.0,0.0,0.0,0.0,0.0,0.0,0.0,0.0,0.0,0.0,0.0,0.0,0.0,0.0,0.0,0.0,0.0,0.0,0.0,0.0,0.0,0.0,0.0,0.0,0.0,0.0,0.0,0.0,0.0,0.0,0.0,0.0,0.0,0.0,0.0,0.0,0.0,0.0,0.0,0.0,0.0,0.0,0.0,0.0,0.0,0.0,0.0,0.0,0.0,0.0,0.0,0.0,0.0,0.0,0.0,0.0,0.0,0.0,0.0,0.0,0.0,0.0,0.0,0.0,0.0,0.0,0.0,0.0,0.0,0.0,0.0,0.0,0.0,0.0,0.0,0.0,0.0,0.0,0.0,0.0,0.0,0.0,0.0,0.0,0.0,0.0,0.0,0.0,0.0,0.0,0.0,0.0,0.0,0.0,0.0,0.0,0.0,0.0,0.0,0.0,0.0,0.0,0.0,0.0,0.0,0.0,0.0,0.0,0.0,0.0,0.0,0.0,0.0,0.0,0.0,0.0,0.0,0.0,0.0,0.0,0.0,0.0,0.0,0.0,0.0,0.0,0.0,0.0,0.0,0.0,0.0,0.0,0.0,0.0,0.0,0.0,0.0,0.0,0.0,0.0,0.0,0.0,0.0,0.0,0.0,0.0,0.0,0.0,0.0,0.0,0.0,0.0,0.0,0.0,0.0,0.0,0.0,0.0,0.0,0.0,0.0,0.0,0.0,0.0,0.0,0.0,0.0,0.0,0.0,0.0,0.0,0.0,0.0,0.0,0.0,0.0,0.0,0.0,0.0,0.0,0.0,0.0,0.0,0.0,0.0,0.0,0.0,0.0,0.0,0.0,0.0,0.0,0.0,0.0,0.0,0.0,0.0,0.0,0.0,0.0,0.0,0.0,0.0,0.0,0.0,0.0,0.0,0.0,0.0,0.0,0.0,0.0,0.0,0.0,0.0,0.0,0.0,0.0,0.0,0.0,0.0,0.0,0.0,0.0,0.0,0.0,0.0,0.0,0.0,0.0,0.0,0.0,0.0,0.0,0.0,0.0,0.0,0.0,0.0,0.0,0.0,0.0,0.0,0.0,0.0,0.0,0.0,0.0,0.0,0.0,0.0,0.0,0.0,0.0,0.0,0.0,0.0,0.0,0.0,0.0,0.0,0.0,0.0,0.0,0.0,0.0,0.0,0.0,0.0,0.0,0.0,0.0,0.0,0.0,0.0,0.0,0.0,0.0,0.0,0.0,0.0,0.0,0.0,0.0,0.0,0.0,0.0,0.0,0.0,0.0,0.0,0.0,0.0,0.0,0.0,0.0,0.0,0.0,0.0,0.0,0.0,0.0,0.0,0.0,0.0,0.0,0.0,0.0,0.0,0.0,0.0,0.0,0.0,0.0,0.0,0.0,0.0,0.0,0.0,0.0,0.0,0.0,0.0,0.0,0.0,0.0,0.0,0.0,0.0,0.0,0.0,0.0,0.0,0.0,0.0,0.0,0.0,0.0,0.0,0.0,0.0,0.0,0.0,0.0,0.0,0.0,0.0,0.0,0.0,0.0,0.0,0.0,0.0,0.0,0.0,0.0,0.0,0.0,0.0,0.0,0.0,0.0,0.0,0.0,0.0,0.0,0.0,0.0,0.0,0.0,0.0,0.0,0.0,0.0,0.0,0.0,0.0,0.0,0.0,0.0,0.0,0.0,0.0,0.0,0.0,0.0,0.0,0.0,0.0,0.0,0.0,0.0,0.0,0.0,0.0,0.0,0.0,0.0,0.0,0.0,0.0,0.0,0.0,0.0,0.0,0.0,0.0,0.0,0.0,0.0,0.0,0.0,0.0,0.0,0.0,0.0,0.0,0.0,0.0,0.0,0.0,0.0,0.0,0.0,0.0,0.0,0.0,0.0,0.0,0.0,0.0,0.0,0.0,0.0,0.0,0.0,0.0,0.0,0.0,0.0,0.0,0.0,0.0,0.0,0.0,0.0,0.0,0.0,0.0,0.0,0.0,0.0,0.0,0.0,0.0,0.0,0.0,0.0,0.0,0.0,0.0,0.0,0.0,0.0,0.0,0.0,0.0,0.0,0.0,0.0,0.0,0.0,0.0,0.0,0.0,0.0,0.0,0.0,0.0,0.0,0.0,0.0,0.0,0.0,0.0,0.0,0.0,0.0,0.0,0.0,0.0,0.0,0.0,0.0,0.0,0.0,0.0,0.0,0.0,0.0,0.0,0.0,0.0,0.0,0.0,0.0,0.0,0.0,0.0,0.0,0.0,0.0,0.0,0.0,0.0,0.0,0.0,0.0,0.0,0.0,0.0,0.0,0.0,0.0,0.0,0.0,0.0,0.0,0.0,0.0,0.0,0.0,0.0,0.0,0.0,0.0,0.0,0.0,0.0,0.0,0.0,0.0,0.0,0.0,0.0,0.0,0.0,0.0,0.0,0.0,0.0,0.0,0.0,0.0,0.0,0.0,0.0,0.0,0.0,0.0,0.0,0.0,0.0,0.0,0.0,0.0,0.0,0.0,0.0,0.0,0.0,0.0,0.0,0.0,0.0,0.0,0.0,0.0,0.0,0.0,0.0,0.0,0.0,0.0,0.0,0.0,0.0,0.0,0.0,0.0,0.0,0.0,0.0,0.0,0.0,0.0,0.0,0.0,0.0,0.0,0.0,0.0,0.0,0.0,0.0,0.0,0.0,0.0,0.0,0.0,0.0,0.0,0.0,0.0,0.0,0.0,0.0,0.0,0.0,0.0,0.0,0.0,0.0,0.0,0.0,0.0,0.0,0.0,0.0,0.0,0.0,0.0,0.0,0.0,0.0,0.0,0.0,0.0,0.0,0.0,0.0,0.0,0.0,0.0,0.0,0.0,0.0,0.0,0.0,0.0,0.0,0.0,0.0,0.0,0.0,0.0,0.0,0.0,0.0,0.0,0.0,0.0,0.0,0.0,0.0,0.0,0.0,0.0,0.0,0.0,0.0,0.0,0.0,0.0,0.0,0.0,0.0,0.0,0.0,0.0,0.0,0.0,0.0,0.0,0.0,0.0,0.0,0.0,0.0,0.0,0.0,0.0,0.0,0.0,0.0,0.0,0.0,0.0,0.0,0.0,0.0,0.0,0.0,0.0,0.0,0.0,0.0,0.0,0.0,0.0,0.0,0.0,0.0,0.0,0.0,0.0,0.0,0.0,0.0,0.0,0.0,0.0,0.0,0.0,0.0,0.0,0.0,0.0,0.0,0.0,0.0,0.0,0.0,0.0,0.0,0.0,0.0,0.0,0.0,0.0,0.0,0.0,0.0,0.0,0.0,0.0,0.0,0.0,0.0,0.0,0.0,0.0,0.0,0.0,0.0,0.0,0.0,0.0,0.0,0.0,0.0,0.0,0.0,0.0,0.0,0.0,0.0,0.0,0.0,0.0,0.0,0.0,0.0,0.0,0.0,0.0,0.0,0.0,0.0,0.0,0.0,0.0,0.0,0.0,0.0,0.0,0.0,0.0,0.0,0.0,0.0,0.0,0.0,0.0,0.0,0.0,0.0,0.0,0.0,0.0,0.0,0.0,0.0,0.0,0.0,0.0,0.0,0.0,0.0,0.0,0.0,0.0,0.0,0.0,0.0,0.0,0.0,0.0,0.0,0.0,0.0,0.0,0.0,0.0,0.0,0.0,0.0,0.0,0.0,0.0,0.0,0.0,0.0,0.0,0.0,0.0,0.0,0.0,0.0,0.0,0.0,0.0,0.0,0.0,0.0,0.0,0.0,0.0,0.0,0.0,0.0,0.0,0.0,0.0,0.0,0.0,0.0,0.0,0.0,0.0,0.0,0.0,0.0,0.0,0.0,0.0,0.0,0.0,0.0,0.0,0.0,0.0,0.0,0.0,0.0,0.0,0.0,0.0,0.0,0.0,0.0,0.0,0.0,0.0,0.0,0.0,0.0,0.0,0.0,0.0,0.0,0.0,0.0,0.0,0.0,0.0,0.0,0.0,0.0,0.0,0.0,0.0,0.0,0.0,0.0,0.0,0.0,0.0,0.0,0.0,0.0,0.0,0.0,0.0,0.0,0.0,0.0,0.0,0.0,0.0,0.0,0.0,0.0,0.0,0.0,0.0,0.0,0.0,0.0,0.0,0.0,0.0,0.0,0.0,0.0,0.0,0.0,0.0,0.0,0.0,0.0,0.0,0.0,0.0,0.0,0.0,0.0,0.0,0.0,0.0,0.0,0.0,0.0,0.0,0.0,0.0,0.0,0.0,0.0,0.0,0.0,0.0,0.0,0.0,0.0,0.0,0.0,0.0,0.0,0.0,0.0,0.0,0.0,0.0,0.0,0.0,1.0717,0.0,0.0,0.0,0.0,0.0,0.0,0.0,0.0,0.0,0.0,0.0,0.0,0.0,0.0,0.0,0.0,0.0,0.0,0.0,0.0,0.0,0.0,0.0,0.0,0.0,0.0,0.0,0.0,0.0,0.0,0.0,0.0,0.0,0.0,0.0,0.0,0.0,0.0,0.0,0.0,0.0,0.0,0.0,0.0,0.0,0.0,0.0,0.0,0.0,0.0,0.0,0.0,0.0,0.0,0.0,0.0,0.0,0.0,0.0,0.0,0.0,0.0,0.0,0.0,0.0,0.0,0.0,0.0,0.0,0.0,0.0,0.0,0.0,0.0,0.0,0.0,0.0,0.0,0.0,0.0,0.0,0.0,0.0,0.0,0.0,0.0,0.0,0.0,0.0,0.0,0.0,0.0,0.0,0.0,0.0,0.0,0.0,0.0,0.0,0.0,0.0,0.0,0.0,0.0,0.0,0.0,0.0,0.0,0.0,0.0,0.0,0.0,0.0,0.0,0.0,0.0,0.0,0.0,0.0,0.0,0.0,0.0,0.0,0.0,0.0,0.0,0.0,0.0,0.0,0.0,0.0,0.0,0.0,0.0,0.0,0.0,0.0,0.0,0.0,0.0,0.0,0.0,0.0,0.0,0.0,0.0,0.0,0.0,0.0,0.0,0.0,0.0,0.0,0.0,0.0,0.0,0.0,0.0,0.0,0.0,0.0,0.0,0.0,0.0,0.0,0.0,0.0,0.0,0.0,0.0,0.0,0.0,0.0,0.0,0.0,0.0,0.0,0.0,0.0,0.0,0.0,0.0,0.0,0.0,0.0,0.0,0.0,0.0,0.0,0.0,0.0,0.0,0.0,0.0,0.0,0.0,0.0,0.0,0.0,0.0,0.0,0.0,0.0,0.0,0.0,0.0,0.0,0.0,0.0,0.0,0.0,0.0,0.0,0.0,0.0,0.0,0.0,0.0,0.0,0.0,0.3297,0.618,0.0,0.0,0.0,0.0,0.0,0.0,0.0,0.0,1.0758,0.0,0.0,0.0,0.0,0.0,0.0,0.0,0.0,0.0,0.0,0.0,0.0,0.0,0.0,0.0,0.0,0.0,0.0,0.0,0.0,0.0,0.0,0.0,0.0,0.0,0.0,0.0,0.0,0.0,0.0,0.0,0.0,0.0,0.0,0.0,0.0,0.0,0.0,0.0,0.0,0.0,0.0,0.0,0.0,0.0,0.0,0.0,0.0,0.0,0.0,0.0,0.0,0.0,0.0,0.0,0.0,0.0,0.0,0.0,0.0,0.0,0.0,0.0,0.0,0.0,0.0,0.0,0.0,0.0,0.0,0.0,0.0,0.0,0.0,0.0,0.0,0.0,0.0,0.0,0.0,0.0,0.0,0.0,0.0,0.0,0.0,0.0,0.0,0.0,0.0,0.0,0.0,0.0,0.0,0.0,0.0,0.0,0.0,0.0,0.0,0.0,0.0,0.0,0.0,0.0,0.7902,0.8793,0.0,0.0,0.0,0.0,0.0,0.0,0.0,0.0,1.084,0.0,0.0,0.0,0.0,0.0,0.0,0.0,0.0,0.0,0.0,0.0,0.0,0.0,0.0,0.0,0.0,0.0,0.0,0.0,0.0,0.0,0.0,0.0,0.0,0.0,0.0,0.0,0.0,0.0,0.0,0.0,0.0,0.0,0.0,0.0,0.0,0.0,0.0,0.0,0.0,0.0,0.0,0.0,0.0,0.0,0.0,0.0,0.0,0.0,0.0,0.0,0.0,0.0,0.0,0.0,0.0,0.0,0.0,0.0,0.0,0.0,0.0,0.0,0.0,0.0,0.0,0.0,0.0,0.0,0.0,0.0,0.0,0.0,0.0,0.0,0.0,0.0,0.0,0.0,0.0,0.0,0.0,0.0,0.0,0.0,0.0,0.0,0.0,0.0,0.0,0.0,0.0,0.0,0.0,0.0,0.0,0.0,0.0,0.0,0.0,0.0,0.0,0.0,0.0,0.9092,1.0011,1.0913,0.0,0.0,0.0,0.0,0.0,0.0,1.088,1.088,0.0,0.0,0.0,0.0,0.0,0.0,0.0,0.0,0.0,0.0,0.0,0.0,0.0,0.0,0.0,0.0,0.0,0.0,0.0,0.0,0.0,0.0,0.0,0.0,0.0,0.0,0.0,0.0,0.0,0.0,0.0,0.0,0.0,0.0,0.0,0.0,0.0,0.0,0.0,0.0,0.0,0.0,0.0,0.0,0.0,0.0,0.0,0.0,0.0,0.0,0.0,0.0,0.0,0.0,0.0,0.0,0.0,0.0,0.0,0.0,0.0,0.0,0.0,0.0,0.0,0.0,0.0,0.0,0.0,0.0,0.0,0.0,0.0,0.0,0.0,0.0,0.0,0.0,0.0,0.0,0.0,0.0,0.0,0.0,0.0,0.0,0.0,0.0,0.0,0.0,0.0,0.0,0.0,0.0,0.0,0.0,0.0,0.0,0.0,0.0,0.0,0.0,0.0,0.0,0.0,1.1029,1.1145,1.109,0.0,0.0,0.0,0.0,1.1036,1.0968,0.0,0.0,0.0,0.0,0.0,0.0,0.0,0.0,0.0,0.0,0.0,0.0,0.0,0.0,0.0,0.0,0.0,0.0,0.0,0.0,0.0,0.0,0.0,0.0,0.0,0.0,0.0,0.0,0.0,0.0,0.0,0.0,0.0,0.0,0.0,0.0,0.0,0.0,0.0,0.0,0.0,0.0,0.0,0.0,0.0,0.0,0.0,0.0,0.0,0.0,0.0,0.0,0.0,0.0,0.0,0.0,0.0,0.0,0.0,0.0,0.0,0.0,0.0,0.0,0.0,0.0,0.0,0.0,0.0,0.0,0.0,0.0,0.0,0.0,0.0,0.0,0.0,0.0,0.0,0.0,0.0,0.0,0.0,0.0,0.0,0.0,0.0,0.0,0.0,0.0,0.0,0.0,0.0,0.0,0.0,0.0,0.0,0.0,0.0,0.0,0.0,0.0,0.0,0.0,0.0,0.0,1.1145,1.1234,1.1267,1.1294,0.0,0.0,1.1341,1.1341,1.1341,0.0,0.0,0.0,0.0,0.0,0.0,0.0,0.0,0.0,0.0,0.0,0.0,0.0,0.0,0.0,0.0,0.0,0.0,0.0,0.0,0.0,0.0,0.0,0.0,0.0,0.0,0.0,0.0,0.0,0.0,0.0,0.0,0.0,0.0,0.0,0.0,0.0,0.0,0.0,0.0,0.0,0.0,0.0,0.0,0.0,0.0,0.0,0.0,0.0,0.0,0.0,0.0,0.0,0.0,0.0,0.0,0.0,0.0,0.0,0.0,0.0,0.0,0.0,0.0,0.0,0.0,0.0,0.0,0.0,0.0,0.0,0.0,0.0,0.0,0.0,0.0,0.0,0.0,0.0,0.0,0.0,0.0,0.0,0.0,0.0,0.0,0.0,0.0,0.0,0.0,0.0,0.0,0.0,0.0,0.0,0.0,0.0,0.0,0.0,0.0,0.0,0.0,0.0,0.0,0.0,0.0,0.0,1.1396,1.1402,0.0,0.0,0.0,1.1396,1.1396,0.0,0.0,0.0,0.0,0.0,0.0,0.0,0.0,0.0,0.0,0.0,0.0,0.0,0.0,0.0,0.0,0.0,0.0,0.0,0.0,0.0,0.0,0.0,0.0,0.0,0.0,0.0,0.0,0.0,0.0,0.0,0.0,0.0,0.0,0.0,0.0,0.0,0.0,0.0,0.0,0.0,0.0,0.0,0.0,0.0,0.0,0.0,0.0,0.0,0.0,0.0,0.0,0.0,0.0,0.0,0.0,0.0,0.0,0.0,0.0,0.0,0.0,0.0,0.0,0.0,0.0,0.0,0.0,0.0,0.0,0.0,0.0,0.0,0.0,0.0,0.0,0.0,0.0,0.0,0.0,0.0,0.0,0.0,0.0,0.0,0.0,0.0,0.0,0.0,0.0,0.0,0.0,0.0204,0.0,0.0,0.0,0.0,0.0,0.0,0.0,0.0,0.0,0.0,0.0,0.0,0.0,0.0,1.126,1.1525,1.1497,1.1443,0.0,0.0,1.145,1.145,1.145,1.1382,0.0,0.0,0.0,0.0,0.0,0.0,0.0,0.0,0.0,0.0,0.0,0.0,0.0,0.0,0.0,0.0,0.0,0.0,0.0,0.0,0.0,0.0,0.0,0.0,0.0,0.0,0.0,0.0,0.0,0.0,0.0,0.0,0.0,0.0,0.0,0.0,0.0,0.0,0.0,0.0,0.0,0.0,0.0,0.0,0.0,0.0,0.0,0.0,0.0,0.0,0.0,0.0,0.0,0.0,0.0,0.0,0.0,0.0,0.0,0.0,0.0,0.0,0.0,0.0,0.0,0.0,0.0,0.0,0.0,0.0,0.0,0.0,0.0,0.0,0.0,0.0,0.0,0.0,0.0,0.0,0.0,0.0,0.0,0.0,0.0,0.0,0.0,0.0,0.0,0.0,0.0,0.0,0.0,0.0,0.0,0.0,0.0,0.0,0.0,0.0,0.0,0.0,0.0,0.0,0.0,1.1295,1.1389,1.1518,1.1606,0.0,1.1599,1.1606,1.1599,1.1606,1.1504,1.1212,0.0,0.0,0.0,0.0,0.0,0.0,0.0,0.0,0.0,0.0,0.0,0.0,0.0,0.0,0.0,0.0,0.0,0.0,0.0,0.0,0.0,0.0,0.0,0.0,0.0,0.0,0.0,0.0,0.0,0.0,0.0,0.0,0.0,0.0,0.0,0.0,0.0,0.0,0.0,0.0,0.0,0.0,0.0,0.0,0.0,0.0,0.0,0.0,0.0,0.0,0.0,0.0,0.0,0.0,0.0,0.0,0.0,0.0,0.0,0.0,0.0,0.0,0.0,0.0,0.0,0.0,0.0,0.0,0.0,0.0,0.0,0.0,0.0,0.0,0.0,0.0,0.0,0.0,0.0,0.0,0.0,0.0,0.0,0.0,0.0,0.0,0.0,0.0,0.0,0.0,0.0,0.2163,0.4031,0.6983,0.0,0.0,0.0,0.0,0.0,0.0,0.0,0.0,0.0,0.0,1.1253,1.1497,1.1586,0.0,0.0,1.1619,1.1619,1.1619,1.1538,1.1402,1.1199,1.109,0.0,0.0,0.0,0.0,0.0,0.0,0.0,0.0,0.0,0.0,0.0,0.0,0.0,0.0,0.0,0.0,0.0,0.0,0.0,0.0,0.0,0.0,0.0,0.0,0.0,0.0,0.0,0.0,0.0,0.0,0.0,0.0,0.0,0.0,0.0,0.0,0.0,0.0,0.0,0.0,0.0,0.0,0.0,0.0,0.0,0.0,0.0,0.0,0.0,0.0,0.0,0.0,0.0,0.0,0.0,0.0,0.0,0.0,0.0,0.0,0.0,0.0,0.0,0.0,0.0,0.0,0.0,0.0,0.0,0.0,0.0,0.0,0.0,0.0,0.0,0.0,0.0,0.0,0.0,0.0,0.0,0.0,0.0,0.0,0.0,0.0,0.0,0.0,0.0,0.0,0.3066,0.5739,0.8764,0.0,0.0,0.0,0.0,0.0,0.0,0.0,0.0,0.0,0.0,1.1328,1.1586,1.1619,1.1606,1.1558,1.1552,1.1538,1.1491,1.1389,1.1274,1.1124,0.0,0.0,0.0,0.0,0.0,0.0,0.0,0.0,0.0,0.0,0.0,0.0,0.0,0.0,0.0,0.0,0.0,0.0,0.0,0.0,0.0,0.0,0.0,0.0,0.0,0.0,0.0,0.0,0.0,0.0,0.0,0.0,0.0,0.0,0.0,0.0,0.0,0.0,0.0,0.0,0.0,0.0,0.0,0.0,0.0,0.0,0.0,0.0,0.0,0.0,0.0,0.0,0.0,0.0,0.0,0.0,0.0,0.0,0.0,0.0,0.0,0.0,0.0,0.0,0.0,0.0,0.0,0.0,0.0,0.0,0.0,0.0,0.0,0.0,0.0,0.0,0.0,0.0,0.0,0.0,0.0,0.0,0.0,0.0,0.0,0.0,0.0,0.0,0.0,0.0,0.2869,0.6004,0.8758,0.0,0.0,0.0,0.0,0.0,0.0,0.0,0.0,0.0,1.1138,1.1287,1.1436,1.1586,1.1613,1.1558,1.1416,1.1396,1.1341,1.1206,1.1241,1.1118,0.0,0.0,0.0,0.0,0.0,0.0,0.0,0.0,0.0,0.0,0.0,0.0,0.0,0.0,0.0,0.0,0.0,0.0,0.0,0.0,0.0,0.0,0.0,0.0,0.0,0.0,0.0,0.0,0.0,0.0,0.0,0.0,0.0,0.0,0.0,0.0,0.0,0.0,0.0,0.0,0.0,0.0,0.0,0.0,0.0,0.0,0.0,0.0,0.0,0.0,0.0,0.0,0.0,0.0,0.0,0.0,0.0,0.0,0.0,0.0,0.0,0.0,0.0,0.0,0.0,0.0,0.0,0.0,0.0,0.0,0.0,0.0,0.0,0.0,0.0,0.0,0.0,0.0,0.0,0.0,0.0,0.0,0.0,0.0,0.0,0.0,0.0,0.0,0.0,0.0,0.3388,0.0,0.0,0.0,0.0,0.0,0.0,0.0,0.0,0.0,0.0,0.0,1.0853,1.1002,1.1063,1.1151,1.1294,1.1314,1.1301,0.0,0.0,0.0,0.0,0.0,0.0,0.0,0.0,0.0,0.0,0.0,0.0,0.0,0.0,1.1131,1.1029,1.0975,1.0941,1.1002,0.0,0.0,0.0,0.0,0.0,0.0,0.0,0.0,0.0,0.0,0.0,0.0,0.0,0.0,0.0,0.0,0.0,0.0,0.0,0.0,0.0,0.0,0.0,0.0,0.0,0.0,0.0,0.0,0.0,0.0,0.0,0.0,0.0,0.0,0.0,0.0,0.0,0.0,0.0,0.0,0.0,0.0,0.0,0.0,0.0,0.0,0.0,0.0,0.0,0.0,0.0,0.0,0.0,0.0,0.0,0.0,0.0,0.0,0.0,0.0,0.0,0.0,0.0,0.0,0.0,0.0,0.0,0.0,0.0,0.0,0.0,0.0,0.0,0.0,0.0,0.0,0.0,0.4861,0.0,0.0,0.0,0.0,0.0,0.0,0.0,0.0,0.0,1.0792,1.0799,1.0853,1.1002,1.1023,1.1056,1.1151,0.0,0.0,0.0,0.0,0.0,0.0,0.0,1.1056,1.1145,1.1084,1.107,1.1219,1.128,1.1335,1.1389,0.0,0.0,1.128,1.1287,1.1321,1.1321,1.1321,1.1321,1.1321,1.1321,1.1321,0.0,0.0,0.0,0.0,0.0,0.0,0.0,0.0,0.0,0.0,0.0,0.0,0.0,0.0,0.0,0.0,0.0,0.0,0.0,0.0,0.0,0.0,0.0,0.0,0.0,0.0,0.0,0.0,0.0,0.0,0.0,0.0,0.0,0.0,0.0,0.0,0.0,0.0,0.0,0.0,0.0,0.0,0.0,0.0,0.0,0.0,0.0,0.0,0.0,0.0,0.0,0.0,0.0,0.0,0.0,0.0,0.0,0.0,0.0,0.0,0.0,0.0,0.0,0.0,0.0,0.0,0.0,0.0,0.0,0.0,0.0,0.5723,0.0,0.0,0.0,0.0,0.0,0.0,0.0,0.0,0.0,0.0,1.088,1.0887,1.1002,1.1214,0.0,0.0,0.0,0.0,1.1111,1.0914,1.107,1.1118,1.0914,1.1077,1.1241,1.1255,0.0,0.0,1.1389,1.1538,1.1674,1.1809,1.1837,1.1755,1.1484,1.1545,1.1633,1.1633,1.1633,1.1633,1.1633,1.1633,1.1633,-0.425,0.0,0.0,0.0,0.0,-0.0734,-0.0446,0.0,0.0,0.0,0.0,0.0,0.0,0.0,0.0,0.0,0.0,0.0,0.0,0.0,0.0,0.0,0.0,0.0,0.0,0.0,0.0,0.0,0.0,0.0,0.0,0.0,0.0,0.0,0.0,0.0,0.0,0.0,0.0,0.0,0.0,0.0,0.0,0.0,0.0,0.0,0.0,0.0,0.0,0.0,0.0,0.0,0.0,0.0,0.0,0.0,0.0,0.0,0.0,0.0,0.0,0.0,0.0,0.0,0.0,0.0,0.0,0.0,0.0,0.0,0.7656,0.8884,1.004,0.0,0.0,0.0,0.0,0.0,0.0,0.0,0.0,0.0,1.124,1.1077,1.1002,0.0,0.0,1.1234,1.1234,1.1234,1.1145,1.1104,1.1207,0.0,1.1111,1.1226,1.1362,1.147,1.166,1.1816,1.1864,1.1904,1.1945,1.1993,1.2088,1.2128,1.2054,1.1972,1.1938,1.1938,1.1938,1.1932,1.1938,1.1932,1.1932,-0.1859,-0.1754,-0.1641,-0.0969,0.0,0.0,0.0,0.0,0.0,0.0,0.0,0.0,0.0,0.0,0.0,0.0,0.0,0.0,0.0,0.0,0.0,0.0,0.0,0.0,0.0,0.0,0.0,0.0,0.0,0.0,0.0,0.0,0.0,0.0,0.0,0.0,0.0,0.0,0.0,0.0,0.0,0.0,0.0,0.0,0.0,0.0,0.0,0.0,0.0,0.0,0.0,0.0,0.0,0.0,0.0,0.0,0.0,0.0,0.0,0.0,0.0,0.0,0.0,0.1613,0.1613,0.0,0.0,0.0,0.7022,0.8439,0.9701,1.0684,0.0,0.0,0.0,0.0,0.0,0.0,0.0,1.122,1.1234,1.1246,1.145,1.1328,1.1226,1.1253,1.1199,1.1234,1.1234,0.0,1.1253,1.1253,1.1355,1.143,1.143,1.1558,1.1687,1.1775,1.1993,1.2142,1.2155,1.2196,1.223,1.2244,1.2311,1.2372,1.2372,1.2298,1.2237,1.2237,1.2237,1.2237,1.2237,1.2237,1.2237,0.0,0.0,0.0,0.0,0.0,0.0,0.0,0.0,0.0,0.0,0.0,0.0,0.0,0.0,0.0,0.0,0.0,0.0,0.0,0.0,0.0,0.0,0.0,0.0,0.0,0.0,0.0,0.0,0.0,0.0,0.0,0.0,0.0,0.0,0.0,0.0,0.0,0.0,0.0,0.0,0.0,0.0,0.0,0.0,0.0,0.0,0.0,0.0,0.0,0.0,0.0,0.0,0.0,0.0,0.0,0.0,0.0,0.0,0.0,0.0,0.0,0.0,0.0,0.0,0.0,0.0,0.0,0.5899,0.9335,0.0,1.1606,1.1484,0.0,0.0,0.0,1.1261,1.1212,1.1282,1.1219,1.1302,0.0,0.0,1.1619,1.1653,1.1606,1.1463,1.1321,1.1233,1.1233,1.1369,1.1443,1.1463,1.1674,1.1843,1.1823,1.1952,1.2135,1.2094,1.2216,1.2305,1.2311,1.24,1.2488,1.2481,1.2501,1.2494,1.2501,1.2481,1.2501,1.2488,1.2488,1.2494,1.2481,1.2474,1.2474,0.0,0.0,0.0,0.0,0.0,0.0,0.0,0.0,0.0,0.0,0.0,0.0,0.0,0.0,0.0,0.0,0.0,0.0,0.0,0.0,0.0,0.0,0.0,0.0,0.0,0.0,0.0,0.0,0.0,0.0,0.0,0.0,0.0,0.0,0.0,0.0,0.0,0.0,0.0,0.0,0.0,0.0,0.0,0.0,0.0,0.0,0.0,0.0,0.0,0.0,0.0,0.0,0.0,0.0,0.0,0.0,0.0,0.0,0.0,0.0,0.0,0.0,0.0,0.2697,0.4151,0.0,0.6279,0.0,1.0954,1.1579,1.1619,1.1484,0.0,0.0,1.143,1.1423,1.1647,1.1667,1.1714,1.191,1.1917,1.1951,1.1952,1.1959,1.1945,1.1904,1.187,1.1923,1.185,1.1877,1.1898,1.1904,1.1959,1.2006,1.2026,1.2135,1.2271,1.2379,1.2427,1.2447,1.2447,1.2474,1.2501,1.2501,1.2501,1.2501,1.2501,1.2501,1.2501,1.2501,1.2501,1.2501,1.2501,1.2501,1.2501,0.0,0.0,0.0,0.0,0.0,0.0,0.0,0.0,0.0,0.0,0.0,0.0,0.0,0.0,0.0,0.0,0.0,0.0,0.0,0.0,0.0,0.0,0.0,0.0,0.0,0.0,0.0,0.0,0.0,0.0,0.0,0.0,0.0,0.0,0.0,0.0,0.0,0.0,0.0,0.0,0.0,0.0,0.0,0.0,0.0,0.0,0.0,0.0,0.0,0.0,0.0,0.0,0.0,0.0,0.0,0.0,0.0,0.0,0.0,0.0,0.0,0.0,0.0,0.0,0.0,0.0,0.8163,1.1272,1.1667,1.1742,1.1809,1.1735,1.1728,1.1803,1.1742,1.1755,1.1918,1.1932,1.1965,1.2054,1.206,1.2162,1.2155,1.2162,1.2189,1.225,1.2257,1.221,1.2169,1.2115,1.2162,1.2162,1.2216,1.2257,1.2257,1.2325,1.2406,1.2481,1.2501,1.2501,1.2501,1.2501,1.2501,1.2501,1.2501,1.2501,1.2501,1.2501,1.2501,1.2501,1.2501,1.2501,1.2501,1.2501,1.2501,0.0,0.0,0.0,0.0,0.0,0.0,0.0,0.0,0.0,0.0,0.0,0.0,0.0,0.0,0.0,0.0,0.0,0.0,0.0,0.0,0.0,0.0,0.0,0.0,0.0,0.0,0.0,0.0,0.0,0.0,0.0,0.0,0.0,0.0,0.0,0.0,0.0,0.0,0.0,0.0,0.0,0.0,0.0,0.0,0.0,0.0,0.0,0.0,0.0,0.0,0.0,0.0,0.0,0.0,0.0147,0.0,0.0358,0.0,0.0,0.0,0.0,0.0,0.0,0.0,0.0,0.7044,0.9767,1.1317,1.171,1.1918,1.2054,1.206,1.2142,1.2088,1.2088,1.2176,1.2115,1.2196,1.2115,1.2121,1.2196,1.2176,1.2298,1.2318,1.2366,1.2461,1.2508,1.244,1.2223,1.2257,1.2325,1.2338,1.2467,1.2562,1.2562,1.2562,1.2569,1.2569,1.2583,1.2562,1.2576,1.2576,1.2569,1.2569,1.2583,1.2576,1.2562,1.2569,1.2569,1.2583,1.2589,1.2569,1.2515,1.2501,1.2501,0.0,0.0,0.0,0.0,0.0,0.0,0.0,0.0,0.0,0.0,0.0,0.0,0.0,0.0,0.0,0.0,0.0,0.0,0.0,0.0,0.0,0.0,0.0,0.0,0.0,0.0,0.0,0.0,0.0,0.0,0.0,0.0,0.0,0.0,0.0,0.0,0.0,0.0,0.0,0.0,0.0,0.0,0.0,0.0,0.0,0.0,0.0,0.0,0.0,0.0,0.0,0.0,0.0,0.0,0.0,0.0,0.0,0.0,0.0,0.0,0.0,0.0,0.7317,0.7989,0.8061,1.0143,1.0977,0.9824,1.1108,1.2033,1.2054,1.206,1.2108,1.223,1.2244,1.2291,1.24,1.2413,1.242,1.242,1.2413,1.2427,1.2454,1.2461,1.2474,1.2515,1.261,1.2657,1.261,1.2522,1.2515,1.263,1.2759,1.2861,1.2874,1.2861,1.2847,1.2874,1.2874,1.2868,1.2861,1.2861,1.2868,1.2861,1.2874,1.2868,1.2868,1.2874,1.2854,1.2954,1.2868,1.28,1.2556,1.2501,1.2501,0.0,0.0,0.0,0.0,0.0,0.0,0.0,0.0,0.0,0.0,0.0,0.0,0.0,0.0,0.0,0.0,0.0,0.0,0.0,0.0,0.0,0.0,0.0,0.0,0.0,0.0,0.0,0.0,0.0,0.0,0.0,0.0,0.0,0.0,0.0,0.0,0.0,0.0,0.0,0.0,0.0,0.0,0.0,0.0,0.0,0.0,0.0,0.0,0.0,0.0,0.0,0.0,0.0,0.0,0.0,0.3079,0.3209,0.4628,0.7611,0.7996,0.8431,0.9432,1.0466,1.095,1.0631,1.1567,1.1713,1.0863,1.1642,1.2203,1.2271,1.2277,1.2311,1.2386,1.2393,1.2427,1.2488,1.2501,1.2501,1.2501,1.2501,1.2528,1.2603,1.2617,1.2651,1.2718,1.2793,1.2847,1.2834,1.2779,1.2766,1.2834,1.2901,1.2956,1.3043,1.3043,1.2963,1.3036,1.3043,1.3043,1.3043,1.3043,1.3043,1.3043,1.3043,1.3043,1.3043,1.3043,1.3043,1.3043,1.3043,1.2922,1.2752,1.2671,1.2589,0.0,0.0,0.0,0.0,0.0,0.0,0.0,0.0,0.0,0.0,0.0,0.0,0.0,0.0,0.0,0.0,0.0,0.0,0.0,0.0,0.0,0.0,0.0,0.0,0.0,0.0,0.0,0.0,0.0,0.0,0.0,0.0,0.0,0.0,0.0,0.0,0.0,0.0,0.0,0.0,0.0,0.0,0.0,0.0,0.0,0.0,0.0,0.0,0.0,0.0,0.0,0.0,0.0,0.0404,0.1605,0.3676,0.4275,0.6213,0.9907,1.0313,1.1086,1.2608,1.2888,1.2831,1.2333,1.2223,1.2257,1.2366,1.2366,1.2406,1.2494,1.2501,1.2501,1.2501,1.2528,1.2542,1.2542,1.2569,1.2596,1.2583,1.2596,1.263,1.2752,1.2773,1.2813,1.2929,1.2976,1.3017,1.303,1.301,1.2983,1.3077,1.3044,1.3138,1.3044,1.3057,1.3037,1.3064,1.3057,1.3037,1.3037,1.3037,1.3037,1.3064,1.3037,1.3051,1.3044,1.3057,1.3037,1.3037,1.3037,1.3111,1.2996,1.2901,1.2773,0.0,0.0,0.0,0.0,0.0,0.0,0.0,0.0,0.0,0.0,0.0,0.0,0.0,0.0,0.0,0.0,0.0,0.0,0.0,0.0,0.0,0.0,0.0,0.0,0.0,0.0,0.0,0.0,0.0,0.0,0.0,0.0,0.0,0.0,0.0,0.0,0.0,0.0,0.0,0.0,0.0,0.0,0.0,0.0,0.0,0.0,0.0,0.0,0.0,0.0,0.0,0.0,0.0,0.181,0.3841,0.5901,0.7814,0.9982,1.2329,1.2509,1.2682,1.2929,1.2949,1.3002,1.2927,1.292,1.2793,1.2684,1.2664,1.2617,1.2522,1.2515,1.2522,1.2522,1.2623,1.2698,1.2698,1.2807,1.2874,1.2874,1.2895,1.2888,1.2915,1.2929,1.2935,1.2976,1.3085,1.3186,1.3261,1.3227,1.3152,1.3159,1.3261,1.3329,1.3308,1.3336,1.3315,1.3336,1.3315,1.3302,1.3302,1.3302,1.3302,1.3329,1.3308,1.3315,1.3322,1.3342,1.3315,1.3302,1.3302,1.3275,1.3173,1.3112,1.3057,0.0,0.0,0.0,0.0,0.0,0.0,0.0,0.0,0.0,0.0,0.0,0.0,0.0,0.0,0.0,0.0,0.0,0.0,0.0,0.0,0.0,0.0,0.0,0.0,0.0,0.0,0.0,0.0,0.0,0.0,0.0,0.0,0.0,0.0,0.0,0.0,0.0,0.0,0.0,0.0,0.0,0.0,0.0,0.0,0.0,0.0,0.0,0.0,0.0,0.0,0.0,0.0588,0.1835,0.2833,0.4814,0.8164,0.9395,1.088,1.3118,1.32,1.32,1.32,1.32,1.32,1.32,1.3051,1.2929,1.2861,1.2854,1.2827,1.2759,1.2752,1.2752,1.2752,1.282,1.2854,1.2861,1.2915,1.3036,1.3043,1.3043,1.307,1.3064,1.3071,1.3119,1.3186,1.3268,1.3322,1.339,1.3342,1.3295,1.3302,1.3356,1.339,1.3397,1.3397,1.3397,1.3397,1.3397,1.3397,1.3397,1.3397,1.3397,1.3397,1.3397,1.3397,1.3397,1.3397,1.3397,1.3397,1.3397,1.3363,1.3308,1.3295,1.322,0.0,0.0,0.0,0.0,0.0,0.0,0.0,0.0,0.0,0.0,0.0,0.0,0.0,0.0,0.0,0.0,0.0,0.0,0.0,0.0,0.0,0.0,0.0,0.0,0.0,0.0,0.0,0.0,0.0,0.0,0.0,0.0,0.0,0.0,0.0,0.0,0.0,0.0,0.0,0.0,0.0,0.0,0.0,0.0,0.0,0.0,0.0,0.0,0.0,0.0,0.0505,0.1597,0.3273,0.4277,0.6366,0.9628,1.0549,1.1552,1.3148,1.3397,1.3397,1.3397,1.3397,1.3397,1.3383,1.3193,1.3044,1.3017,1.301,1.2996,1.3036,1.2949,1.3043,1.2963,1.3077,1.309,1.309,1.3037,1.3057,1.3064,1.3064,1.3112,1.3193,1.322,1.3268,1.3356,1.3397,1.3397,1.3397,1.3397,1.3397,1.3397,1.3397,1.3397,1.3397,1.3397,1.3397,1.3397,1.3397,1.3397,1.3397,1.3397,1.3397,1.3397,1.3397,1.3397,1.3397,1.3397,1.3397,1.3397,1.3397,1.3397,1.339,1.3383,1.3336,0.0,0.0,0.0,0.0,0.0,0.0,0.0,0.0,0.0,0.0,0.0,0.0,0.0,0.0,0.0,0.0,0.0,0.0,0.0,0.0,0.0,0.0,0.0,0.0,0.0,0.0,0.0,0.0,0.0,0.0,0.0,0.0,0.0,0.0,0.0,0.0,0.0,0.0,0.0,0.0,0.0,0.0,0.0,0.0,0.0,0.0,0.0,0.0,0.0,0.0,0.1933,0.3107,0.3692,0.7118,0.9545,1.0128,1.1973,1.3231,1.3397,1.3397,1.3397,1.3397,1.3397,1.3397,1.3397,1.337,1.3295,1.3186,1.3152,1.3105,1.3063,1.2976,1.299,1.3003,1.3091,1.3152,1.3166,1.3275,1.3356,1.3356,1.3329,1.3363,1.3356,1.3356,1.3376,1.339,1.3397,1.3397,1.3397,1.3397,1.3397,1.3397,1.3397,1.3397,1.3397,1.3397,1.3397,1.3397,1.3397,1.3397,1.3397,1.3397,1.3397,1.3397,1.3397,1.3397,1.3397,1.3397,1.3397,1.3397,1.3397,1.3397,1.3397,1.3397,1.3363,0.0,0.0,0.0,0.0,0.0,0.0,0.0,0.0,0.0,0.0,0.0,0.0,0.0,0.0,0.0,0.0,0.0,0.0,0.0,0.0,0.0,0.0,0.0,0.0,0.0,0.0,0.0,0.0,0.0,0.0,0.0,0.0,0.0,0.0,0.0,0.0,0.0,0.0,0.0,0.0,0.0,0.0,0.0,0.0,0.0,0.0,0.0,0.0,0.0,0.0,0.0926,0.2603,0.5198,0.7038,0.9207,1.1718,1.2893,1.3397,1.3397,1.3397,1.3397,1.3397,1.3397,1.3397,1.3397,1.3397,1.337,1.3322,1.3308,1.3281,1.3227,1.322,1.322,1.3227,1.3275,1.3308,1.3308,1.3363,1.3397,1.3397,1.3397,1.3397,1.3397,1.3397,1.3397,1.3397,1.3397,1.3397,1.3397,1.3397,1.3397,1.3397,1.3397,1.3397,1.3397,1.3397,1.3397,1.3397,1.3397,1.3397,1.3397,1.3397,1.3397,1.3403,1.341,1.341,1.3397,1.3397,1.3397,1.3403,1.3403,1.3397,1.3397,1.3397,1.3397,0.0,0.0,0.0,0.0,0.0,0.0,0.0,0.0,0.0,0.0,0.0,0.0,0.0,0.0,0.0,0.0,0.0,0.0,0.0,0.0,0.0,0.0,0.0,0.0,0.0,0.0,0.0,0.0,0.0,0.0,0.0,0.0,0.0,0.0,0.0,0.0,0.0,0.0,0.0,0.0,0.0,0.0,0.0,0.0,0.0,0.0,0.0,0.0,0.0,0.0,0.0589,0.2603,0.6369,0.7285,0.9378,1.281,1.3397,1.3397,1.3397,1.3397,1.3397,1.3397,1.3397,1.3397,1.3397,1.3397,1.3397,1.3397,1.3397,1.3397,1.3397,1.3397,1.3397,1.3397,1.3397,1.3397,1.3397,1.3397,1.3397,1.3397,1.3397,1.3397,1.3397,1.3397,1.3397,1.3397,1.3397,1.3397,1.3397,1.3397,1.3397,1.3397,1.3397,1.3397,1.3397,1.3397,1.3397,1.3397,1.3397,1.3397,1.3397,1.3397,1.3444,1.3471,1.3458,1.3498,1.3573,1.3553,1.3492,1.3471,1.3464,1.3451,1.3403,1.3403,1.3403,0.0,0.0,0.0,0.0,0.0,0.0,0.0,0.0,0.0,0.0,0.0,0.0,0.0,0.0,0.0,0.0,0.0,0.0,0.0,0.0,0.0,0.0,0.0,0.0,0.0,0.0,0.0,0.0,0.0,0.0,0.0,0.0,0.0,0.0,0.0,0.0,0.0,0.0,0.0,0.0,0.0,0.0,0.0,0.0,0.0,0.0,0.0,0.0,0.0,0.0,0.1767,0.4113,0.6536,0.8624,1.0798,1.3065,1.3397,1.3397,1.3397,1.3397,1.3397,1.3397,1.3397,1.3397,1.3397,1.3397,1.3397,1.3397,1.3397,1.3397,1.3397,1.3397,1.3397,1.3397,1.3397,1.3397,1.3397,1.3397,1.3397,1.3397,1.3397,1.3397,1.3397,1.3397,1.3397,1.3397,1.3397,1.3397,1.3403,1.3403,1.3417,1.3424,1.3424,1.341,1.341,1.3437,1.3424,1.3437,1.3464,1.3437,1.341,1.3417,1.3498,1.3566,1.36,1.3661,1.377,1.3783,1.3715,1.3675,1.3627,1.3587,1.3526,1.3437,1.3431,0.0,0.0,0.0,0.0,0.0,0.0,0.0,0.0,0.0,0.0,0.0,0.0,0.0,0.0,0.0,0.0,0.0,0.0,0.0,0.0,0.0,0.0,0.0,0.0,0.0,0.0,0.0,0.0,0.0,0.0,0.0,0.0,0.0,0.0,0.0,0.0,0.0,0.0,0.0,0.0,0.0,0.0,0.0,0.0,0.0,0.0,0.0,0.0,0.0,0.0,0.0,0.2208,0.4574,0.7985,1.1048,1.3065,1.3397,1.3397,1.3397,1.3397,1.3397,1.3397,1.3397,1.3397,1.3397,1.3397,1.3397,1.3403,1.3403,1.3397,1.3397,1.3397,1.3397,1.3397,1.3397,1.3397,1.3397,1.3397,1.3397,1.3397,1.3397,1.3397,1.341,1.3403,1.3397,1.3397,1.3403,1.341,1.3424,1.3478,1.3546,1.3566,1.362,1.3682,1.3682,1.36,1.3559,1.358,1.3607,1.3661,1.3668,1.3648,1.3709,1.3736,1.3763,1.379,1.3885,1.3899,1.3844,1.3725,1.377,1.3743,1.3695,1.362,1.3587,0.0,0.0,0.0,0.0,0.0,0.0,0.0,0.0,0.0,0.0,0.0,0.0,0.0,0.0,0.0,0.0,0.0,0.0,0.0,0.0,0.0,0.0,0.0,0.0,0.0,0.0,0.0,0.0,0.0,0.0,0.0,0.0,0.0,0.0,0.0,0.0,0.0,0.0,0.0,0.0,0.0,0.0,0.0,0.0,0.0,0.0,0.0,0.0,0.0,0.0,0.0,0.1375,0.4453,0.7989,1.1165,1.3197,1.3498,1.3471,1.3464,1.3431,1.3397,1.3397,1.3397,1.3397,1.3397,1.3397,1.3424,1.3458,1.3471,1.3485,1.3532,1.3546,1.3505,1.3431,1.3397,1.3397,1.3397,1.3397,1.3397,1.3397,1.3397,1.3417,1.3464,1.3471,1.3505,1.3532,1.3539,1.3546,1.3559,1.362,1.3695,1.3702,1.3763,1.3804,1.3824,1.3777,1.3729,1.3749,1.3749,1.3831,1.3878,1.3865,1.3878,1.3905,1.3926,1.3946,1.3966,1.398,1.396,1.3926,1.3912,1.3892,1.3851,1.3817,1.377,0.0,0.0,0.0,0.0,0.0,0.0,0.0,0.0,0.0,0.0,0.0,0.0,0.0,0.0,0.0,0.0,0.0,0.0,0.0,0.0,0.0,0.0,0.0,0.0,0.0,0.0,0.0,0.0,0.0,0.0,0.0,0.0,0.0,0.0,0.0,0.0,0.0,0.0,0.0,0.0,0.0,0.0,0.0,0.0,0.0,0.0,0.0,0.0,0.0,0.0,0.0,0.0,0.6138,0.8968,1.131,1.3271,1.3702,1.3641,1.3614,1.3505,1.3451,1.3451,1.3424,1.3451,1.3458,1.3451,1.3498,1.36,1.3634,1.3675,1.3783,1.3711,1.3702,1.3471,1.3451,1.3458,1.3437,1.3417,1.341,1.3437,1.3451,1.3478,1.3587,1.3627,1.3668,1.3756,1.3783,1.3783,1.3777,1.381,1.3838,1.3844,1.3899,1.3953,1.3953,1.3953,1.3926,1.3905,1.3905,1.3933,1.3966,1.3973,1.4021,1.4048,1.4068,1.4089,1.4136,1.415,1.4136,1.4102,1.4082,1.4041,1.4014,1.3973,1.3912,0.0,0.0,0.0,0.0,0.0,0.0,0.0,0.0,0.0,0.0,0.0,0.0,0.0,0.0,0.0,0.0,0.0,0.0,0.0,0.0,0.0,0.0,0.0,0.0,0.0,0.0,0.0,0.0,0.0,0.0,0.0,0.0,0.0,0.0,0.0,0.0,0.0,0.0,0.0,0.0,0.0,0.0,0.0,0.0,0.0,0.0,0.0,0.0,0.0,0.0,0.0,0.2098,0.633,0.9167,1.1412,1.3403,1.3804,1.377,1.377,1.3736,1.3688,1.3695,1.3695,1.3702,1.3702,1.3695,1.3715,1.377,1.3691,1.3804,1.3831,1.3752,1.3804,1.3715,1.3702,1.3688,1.3675,1.3688,1.3709,1.3702,1.3702,1.3729,1.3756,1.3777,1.3797,1.3844,1.3858,1.3858,1.3779,1.3953,1.3994,1.4,1.4061,1.4109,1.4116,1.4122,1.4109,1.4082,1.4075,1.4055,1.4075,1.4095,1.4143,1.417,1.4197,1.4224,1.4278,1.4285,1.4251,1.4245,1.4211,1.4183,1.4163,1.4116,1.4055,0.0,0.0,0.0,0.0,0.0,0.0,0.0,0.0,0.0,0.0,0.0,0.0,0.0,0.0,0.0,0.0,0.0,0.0,0.0,0.0,0.0,0.0,0.0,0.0,0.0,0.0,0.0,0.0,0.0,0.0,0.0,0.0,0.0,0.0,0.0,0.0,0.0,0.0,0.0,0.0,0.0,0.0,0.0,0.0,0.0,0.0,0.0,0.0,0.0449,0.1343,0.2136,0.45,0.8058,0.9807,1.1639,1.3387,1.396,1.3926,1.3919,1.3865,1.3752,1.3752,1.3752,1.3752,1.3752,1.3752,1.3851,1.3912,1.3926,1.3953,1.4,1.4014,1.4014,1.4007,1.3892,1.3851,1.3752,1.3752,1.3745,1.3738,1.3738,1.3865,1.3905,1.3926,1.3953,1.3987,1.4007,1.4014,1.4027,1.4095,1.4129,1.4156,1.4204,1.4245,1.4278,1.4285,1.4285,1.4265,1.4251,1.4231,1.4224,1.4224,1.4251,1.4245,1.4258,1.4258,1.4299,1.4299,1.4278,1.4299,1.4299,1.4272,1.4231,1.4251,1.4211,0.0,0.0,0.0,0.0,0.0,0.0,0.0,0.0,0.0,0.0,0.0,0.0,0.0,0.0,0.0,0.0,0.0,0.0,0.0,0.0,0.0,0.0,0.0,0.0,0.0,0.0,0.0,0.0,0.0,0.0,0.0,0.0,0.0,0.0,0.0,0.0,0.0,0.0,0.0,0.0,0.0,0.0,0.0,0.0,0.0,0.0,0.0,0.0,0.1703,0.349,0.5538,0.8021,1.017,1.0806,1.2208,1.4163,1.4156,1.4095,1.4055,1.3987,1.3912,1.3912,1.3912,1.3779,1.3912,1.3933,1.3966,1.4068,1.4082,1.4136,1.4238,1.4258,1.4265,1.4258,1.4061,1.3926,1.3878,1.3892,1.3919,1.3905,1.3878,1.3919,1.4068,1.4082,1.415,1.4217,1.4251,1.4238,1.4245,1.4245,1.4278,1.4292,1.4285,1.4292,1.4299,1.4299,1.4299,1.4299,1.4299,1.4299,1.4299,1.4299,1.4299,1.4299,1.4299,1.4299,1.4299,1.4299,1.4299,1.4299,1.4299,1.4299,1.4299,1.4299,1.4292,0.0,0.0,0.0,0.0,0.0,0.0,0.0,0.0,0.0,0.0,0.0,0.0,0.0,0.0,0.0,0.0,0.0,0.0,0.0,0.0,0.0,0.0,0.0,0.0,0.0,0.0,0.0,0.0,0.0,0.0,0.0,0.0,0.0,0.0,0.0,0.0,0.0,0.0,0.0,0.0,0.0,0.0,0.0,0.0,0.0,0.0,0.0,0.349,0.4472,0.3938,0.7595,0.9913,1.0895,1.2325,1.3489,1.402,1.4265,1.4238,1.4224,1.419,1.417,1.4177,1.4143,1.4177,1.4183,1.4177,1.4197,1.4238,1.4238,1.4251,1.4292,1.4299,1.4299,1.4292,1.4197,1.4156,1.4156,1.4177,1.4177,1.4183,1.4163,1.4183,1.4204,1.4231,1.4245,1.4285,1.4299,1.4299,1.4299,1.4299,1.4299,1.4299,1.4292,1.4299,1.4299,1.4299,1.4299,1.4299,1.4299,1.4299,1.4299,1.4299,1.4299,1.4299,1.4299,1.4299,1.4299,1.4299,1.4299,1.4299,1.4299,1.4299,1.4299,1.4299,1.4299,0.0,0.0,0.0,0.0,0.0,0.0,0.0,0.0,0.0,0.0,0.0,0.0,0.0,0.0,0.0,0.0,0.0,0.0,0.0,0.0,0.0,0.0,0.0,0.0,0.0,0.0,0.0,0.0,0.0,0.0,0.0,0.0,0.0,0.0,0.0,0.0,0.0,0.0,0.0,0.0,0.0,0.0,0.0,0.0,0.0,0.0359,0.1792,0.5097,0.679,0.7324,1.0091,1.2237,1.2325,1.3489,1.4299,1.4299,1.4299,1.4299,1.4299,1.4299,1.4299,1.4299,1.4299,1.4299,1.4292,1.4299,1.4299,1.4292,1.4299,1.4299,1.4299,1.4299,1.4299,1.4299,1.4299,1.4299,1.4299,1.4285,1.4299,1.4299,1.4299,1.4299,1.4299,1.4299,1.4299,1.4299,1.4299,1.4299,1.4299,1.4299,1.4299,1.4299,1.4299,1.4299,1.4299,1.4299,1.4299,1.4299,1.4299,1.4299,1.4299,1.4299,1.4299,1.4299,1.4299,1.4299,1.4299,1.4299,1.4299,1.4299,1.4299,1.4299,1.4299,1.4299,1.4299,0.0,0.0,0.0,0.0,0.0,0.0,0.0,0.0,0.0,0.0,0.0,0.0,0.0,0.0,0.0,0.0,0.0,0.0,0.0,0.0,0.0,0.0,0.0,0.0,0.0,0.0,0.0,0.0,0.0,0.0,0.0,0.0,0.0,0.0,0.0,0.0,0.0,0.0,0.0,0.0,0.0,0.0,0.0,0.0,0.0,0.224,0.4383,0.67,0.8486,1.0984,1.3135,1.3938,1.4122,1.4299,1.4299,1.4299,1.4299,1.4299,1.4299,1.4299,1.4299,1.4299,1.4299,1.4299,1.4299,1.4299,1.4299,1.4299,1.4299,1.4299,1.4299,1.4299,1.4299,1.4299,1.4299,1.4299,1.4299,1.4299,1.4299,1.4299,1.4299,1.4299,1.4299,1.4299,1.4299,1.4299,1.4299,1.4299,1.4299,1.4299,1.4299,1.4299,1.4299,1.4299,1.4299,1.4299,1.4299,1.4299,1.4299,1.4299,1.4299,1.4299,1.4299,1.4299,1.4299,1.4299,1.4299,1.4299,1.4299,1.4299,1.4299,1.4299,1.4299,1.4299,1.4299,0.0,0.0,0.0,0.0,0.0,0.0,0.0,0.0,0.0,0.0,0.0,0.0,0.0,0.0,0.0,0.0,0.0,0.0,0.0,0.0,0.0,0.0,0.0,0.0,0.0,0.0,0.0,0.0,0.0,0.0,0.0,0.0,0.0,0.0,0.0,0.0,0.0,0.0,0.0,0.0,0.0,0.0,0.0,0.0359,0.1883,0.5008,0.8308,0.9646,1.1072,1.2952,1.3945,1.4299,1.4299,1.4299,1.4299,1.4299,1.4299,1.4299,1.4299,1.4299,1.4299,1.4299,1.4299,1.4299,1.4299,1.4299,1.4299,1.4299,1.4299,1.4299,1.4299,1.4299,1.4299,1.4299,1.4299,1.4299,1.4299,1.4299,1.4299,1.4299,1.4299,1.4299,1.4299,1.4299,1.4299,1.4299,1.4299,1.4299,1.4299,1.4299,1.4299,1.4299,1.4299,1.4299,1.4299,1.4299,1.4299,1.4299,1.4299,1.4299,1.4299,1.4299,1.4299,1.4299,1.4299,1.4299,1.4299,1.4299,1.4299,1.4299,1.4299,1.4299,1.4299,1.4299,1.4299,0.0,0.0,0.0,0.0,0.0,0.0,0.0,0.0,0.0,0.0,0.0,0.0,0.0,0.0,0.0,0.0,0.0,0.0,0.0,0.0,0.0,0.0,0.0,0.0,0.0,0.0,0.0,0.0,0.0,0.0,0.0,0.0,0.0,0.0,0.0,0.0,0.0,0.0,0.0,0.0,0.0,0.0,0.0807,0.1882,0.4027,0.7057,1.018,1.0629,1.1965,1.3666,1.4299,1.4299,1.4299,1.4299,1.4299,1.4299,1.4299,1.4299,1.4299,1.4299,1.4299,1.4299,1.4299,1.4299,1.4299,1.4299,1.4299,1.4299,1.4299,1.4299,1.4299,1.4299,1.4299,1.4299,1.4299,1.4299,1.4299,1.4299,1.4299,1.4299,1.4299,1.4299,1.4299,1.4299,1.4299,1.4299,1.4299,1.4299,1.4299,1.4299,1.4299,1.4299,1.4299,1.4299,1.4299,1.4299,1.4299,1.4299,1.4299,1.4299,1.4299,1.4299,1.4299,1.4299,1.4299,1.4299,1.4299,1.4299,1.4299,1.4299,1.4299,1.4299,1.4299,1.4299,1.4299,0.0,0.0,0.0,0.0,0.0,0.0,0.0,0.0,0.0,0.0,0.0,0.0,0.0,0.0,0.0,0.0,0.0,0.0,0.0,0.0,0.0,0.0,0.0,0.0,0.0,0.0,0.0,0.0,0.0,0.0,0.0,0.0,0.0,0.0,0.0,0.0,0.0,0.0,0.0,0.0,0.0,0.0,0.0,0.5008,0.6611,0.8842,1.1072,1.1699,1.2325,1.4122,1.4299,1.4299,1.4299,1.4299,1.4299,1.4299,1.4299,1.4299,1.4299,1.4299,1.4299,1.4299,1.4299,1.4299,1.4299,1.4299,1.4299,1.4299,1.4299,1.4299,1.4299,1.4299,1.4299,1.4299,1.4299,1.4299,1.4299,1.4299,1.4299,1.4299,1.4299,1.4299,1.4299,1.4299,1.4299,1.4299,1.4299,1.4299,1.4299,1.4299,1.4299,1.4299,1.4299,1.4299,1.4299,1.4299,1.4299,1.4299,1.4299,1.4299,1.4299,1.4299,1.4299,1.4299,1.4299,1.4299,1.4299,1.4299,1.4299,1.4299,1.4299,1.4299,1.4299,1.4299,1.4299,0.0,0.0,0.0,0.0,0.0,0.0,0.0,0.0,0.0,0.0,0.0,0.0,0.0,0.0,0.0,0.0,0.0,0.0,0.0,0.0,0.0,0.0,0.0,0.0,0.0,0.0,0.0,0.0,0.0,0.0,0.0,0.0,0.0,0.0,0.0,0.0,0.0,0.0,0.0,0.0,0.0,0.215,0.4919,0.8397,0.9642,1.1161,1.2952,1.3584,1.3945,1.4299,1.4299,1.4299,1.4299,1.4299,1.4299,1.4299,1.4299,1.4299,1.4299,1.4299,1.4299,1.4299,1.4299,1.4299,1.4299,1.4299,1.4299,1.4299,1.4299,1.4299,1.4299,1.4299,1.4299,1.4299,1.4299,1.4299,1.4299,1.4299,1.4299,1.4299,1.4299,1.4299,1.4299,1.4299,1.4299,1.4299,1.4299,1.4299,1.4299,1.4299,1.4299,1.4299,1.4299,1.4299,1.4299,1.4299,1.4299,1.4299,1.4299,1.4299,1.4299,1.4299,1.4299,1.4299,1.4299,1.4299,1.4299,1.4299,1.4299,1.4299,1.4299,1.4299,1.4299,1.4299,1.4299,0.0,0.0,0.0,0.0,0.0,0.0,0.0,0.0,0.0,0.0,0.0,0.0,0.0,0.0,0.0,0.0,0.0,0.0,0.0,0.0,0.0,0.0,0.0,0.0,0.0,0.0,0.0,0.0,0.0,0.0,0.0,0.0,0.0,0.0,0.0,0.0,0.0,0.0,0.1076,0.1256,0.0628,0.349,0.7328,0.9913,1.1965,1.3135,1.3938,1.4299,1.4299,1.4299,1.4299,1.4299,1.4299,1.4299,1.4299,1.4299,1.4299,1.4299,1.4299,1.4299,1.4299,1.4299,1.4299,1.4299,1.4299,1.4299,1.4299,1.4299,1.4299,1.4299,1.4299,1.4299,1.4299,1.4299,1.4299,1.4299,1.4299,1.4299,1.4299,1.4299,1.4299,1.4299,1.4299,1.4299,1.4299,1.4299,1.4299,1.4299,1.4299,1.4299,1.4299,1.4299,1.4299,1.4299,1.4299,1.4299,1.4299,1.4299,1.4299,1.4299,1.4299,1.4299,1.4299,1.4299,1.4299,1.4299,1.4299,1.4299,1.4299,1.4299,1.4299,1.4299,1.4299,1.4299,1.4299,0.0,0.0,0.0,0.0,0.0,0.0,0.0,0.0,0.0,0.0,0.0,0.0,0.0,0.0,0.0,0.0,0.0,0.0,0.0,0.0,0.0,0.0,0.0,0.0,0.0,0.0,0.0,0.0,0.0,0.0,0.0,0.0,0.0,0.0,0.0,0.0,0.0,0.0,0.224,0.2597,0.3401,0.5811,0.893,1.1167,1.3312,1.421,1.4299,1.4299,1.4299,1.4299,1.4299,1.4299,1.4299,1.4299,1.4299,1.4299,1.4299,1.4299,1.4299,1.4299,1.4299,1.4299,1.4299,1.4299,1.4299,1.4299,1.4299,1.4299,1.4299,1.4299,1.4299,1.4299,1.4299,1.4299,1.4299,1.4299,1.4299,1.4299,1.4299,1.4299,1.4299,1.4299,1.4299,1.4299,1.4299,1.4299,1.4299,1.4299,1.4299,1.4299,1.4299,1.4299,1.4299,1.4299,1.4299,1.4299,1.4299,1.4299,1.4299,1.4299,1.4299,1.4299,1.4299,1.4299,1.4299,1.4299,1.4299,1.4299,1.4299,1.4299,1.4299,1.4299,1.4299,1.4299,1.4299,0.0,0.0,0.0,0.0,0.0,0.0,0.0,0.0,0.0,0.0,0.0,0.0,0.0,0.0,0.0,0.0,0.0,0.0,0.0,0.0,0.0,0.0,0.0,0.0,0.0,0.0,0.0,0.0,0.0,0.0,0.0,0.0,0.0,0.0,0.0,0.0,0.0,0.0,0.2419,0.5365,0.8486,0.9735,1.1339,1.3135,1.4033,1.4299,1.4299,1.4299,1.4299,1.4299,1.4299,1.4299,1.4299,1.4299,1.4299,1.4299,1.4299,1.4299,1.4299,1.4299,1.4299,1.4299,1.4299,1.4299,1.4299,1.4299,1.4299,1.4299,1.4299,1.4299,1.4299,1.4299,1.4299,1.4299,1.4299,1.4299,1.4299,1.4299,1.4299,1.4299,1.4299,1.4299,1.4299,1.4299,1.4299,1.4299,1.4299,1.4299,1.4299,1.4299,1.4299,1.4299,1.4299,1.4299,1.4299,1.4299,1.4299,1.4299,1.4299,1.4299,1.4299,1.4299,1.4299,1.4299,1.4299,1.4299,1.4299,1.4299,1.4299,1.4299,1.4299,1.4299,1.4299,1.4299,1.4299,0.0,0.0,0.0,0.0,0.0,0.0,0.0,0.0,0.0,0.0,0.0,0.0,0.0,0.0,0.0,0.0,0.0,0.0,0.0,0.0,0.0,0.0,0.0,0.0,0.0,0.0,0.0,0.0,0.0,0.0,0.0,0.0,0.0,0.0,0.0,0.0,0.0,0.0,0.2597,0.67,1.0717,1.1699,1.1876,1.4122,1.4299,1.4299,1.4299,1.4299,1.4299,1.4299,1.4299,1.4299,1.4299,1.4299,1.4299,1.4299,1.4299,1.4299,1.4299,1.4299,1.4299,1.4299,1.4299,1.4299,1.4299,1.4299,1.4299,1.4299,1.4299,1.4299,1.4299,1.4299,1.4299,1.4299,1.4299,1.4299,1.4299,1.4299,1.4299,1.4299,1.4299,1.4299,1.4299,1.4299,1.4299,1.4299,1.4299,1.4299,1.4299,1.4299,1.4299,1.4299,1.4299,1.4299,1.4299,1.4299,1.4299,1.4299,1.4299,1.4299,1.4299,1.4299,1.4299,1.4299,1.4299,1.4299,1.4299,1.4299,1.4299,1.4299,1.4299,1.4299,1.4299,1.4299,1.4299,0.0,0.0,0.0,0.0,0.0,0.0,0.0,0.0,0.0,0.0,0.0,0.0,0.0,0.0,0.0,0.0,0.0,0.0,0.0,0.0,0.0,0.0,0.0,0.0,0.0,0.0,0.0,0.0,0.0,0.0,0.0,0.0,0.0,0.0,0.0,0.0,0.0,0.0,0.474,0.8753,1.2774,1.2503,1.2952,1.3761,1.4299,1.4299,1.4299,1.4299,1.4299,1.4299,1.4299,1.4299,1.4299,1.4299,1.4299,1.4299,1.4299,1.4299,1.4299,1.4299,1.4299,1.4299,1.4299,1.4299,1.4299,1.4299,1.4299,1.4299,1.4299,1.4299,1.4299,1.4299,1.4299,1.4299,1.4299,1.4299,1.4299,1.4299,1.4299,1.4299,1.4299,1.4299,1.4299,1.4299,1.4299,1.4299,1.4299,1.4299,1.4299,1.4299,1.4299,1.4299,1.4299,1.4299,1.4299,1.4299,1.4299,1.4299,1.4299,1.4299,1.4299,1.4299,1.4299,1.4299,1.4299,1.4299,1.4299,1.4299,1.4299,1.4299,1.4299,1.4299,1.4299,1.4299,1.4299,0.0,0.0,0.0,0.0,0.0,0.0,0.0,0.0,0.0,0.0,0.0,0.0,0.0,0.0,0.0,0.0,0.0,0.0,0.0,0.0,0.0,0.0,0.0,0.0,0.0,0.0,0.0,0.0,0.0,0.0,0.0,0.0,0.0,0.0,0.0,0.0,0.2866,0.5454,0.8129,1.054,1.3401,1.385,1.4027,1.4115,1.4299,1.4299,1.4299,1.4299,1.4299,1.4299,1.4299,1.4299,1.4299,1.4299,1.4299,1.4299,1.4299,1.4299,1.4299,1.4299,1.4299,1.4299,1.4299,1.4299,1.4299,1.4299,1.4299,1.4299,1.4299,1.4299,1.4299,1.4299,1.4299,1.4299,1.4299,1.4299,1.4299,1.4299,1.4299,1.4299,1.4299,1.4299,1.4299,1.4299,1.4299,1.4299,1.4299,1.4299,1.4299,1.4299,1.4299,1.4299,1.4299,1.4299,1.4299,1.4299,1.4299,1.4299,1.4299,1.4299,1.4299,1.4299,1.4299,1.4299,1.4299,1.4299,1.4299,1.4299,1.4299,1.4299,1.4299,1.4299,1.4299,1.4299,1.4299,0.0,0.0,0.0,0.0,0.0,0.0,0.0,0.0,0.0,0.0,0.0,0.0,0.0,0.0,0.0,0.0,0.0,0.0,0.0,0.0,0.0,0.0,0.0,0.0,0.0,0.0,0.0,0.0,0.0,0.0,0.0,0.0,0.0,0.0,0.0,0.1882,0.5008,0.8129,1.0268,1.1876,1.3761,1.4299,1.4299,1.4299,1.4299,1.4299,1.4299,1.4299,1.4299,1.4299,1.4299,1.4299,1.4299,1.4299,1.4299,1.4299,1.4299,1.4299,1.4299,1.4299,1.4299,1.4299,1.4299,1.4299,1.4299,1.4299,1.4299,1.4299,1.4299,1.4299,1.4299,1.4299,1.4299,1.4299,1.4299,1.4299,1.4299,1.4299,1.4299,1.4299,1.4299,1.4299,1.4299,1.4299,1.4299,1.4299,1.4299,1.4299,1.4299,1.4299,1.4299,1.4299,1.4299,1.4299,1.4299,1.4299,1.4299,1.4299,1.4299,1.4299,1.4299,1.4299,1.4299,1.4299,1.4299,1.4299,1.4299,1.4299,1.4299,1.4299,1.4299,1.4299,1.4299,1.4299,1.4299,0.0,0.0,0.0,0.0,0.0,0.0,0.0,0.0,0.0,0.0,0.0,0.0,0.0,0.0,0.0,0.0,0.0,0.0,0.0,0.0,0.0,0.0,0.0,0.0,0.0,0.1057,0.1066,0.0,0.0,0.0,0.0,0.0,0.0,0.0,0.0,0.4293,0.7413,0.9913,1.1699,1.2325,1.421,1.4299,1.4299,1.4299,1.4299,1.4299,1.4299,1.4299,1.4299,1.4299,1.4299,1.4299,1.4299,1.4299,1.4299,1.4299,1.4299,1.4299,1.4299,1.4299,1.4299,1.4299,1.4299,1.4299,1.4299,1.4299,1.4299,1.4299,1.4299,1.4299,1.4299,1.4299,1.4299,1.4299,1.4299,1.4299,1.4299,1.4299,1.4299,1.4299,1.4299,1.4299,1.4299,1.4299,1.4299,1.4299,1.4299,1.4299,1.4299,1.4299,1.4299,1.4299,1.4299,1.4299,1.4299,1.4299,1.4299,1.4299,1.4299,1.4299,1.4299,1.4299,1.4299,1.4299,1.4299,1.4299,1.4299,1.4299,1.4299,1.4299,1.4299,1.4299,1.4299,1.4299,1.4299,0.0,0.0,0.0,0.0,0.0,0.0,0.0,0.0,0.0,0.0,0.0,0.0,0.0,0.0,0.0,0.0,0.0,0.0,0.0,0.0,0.0,0.0,0.0,0.1886,0.2939,0.3421,0.3534,0.4347,0.6168,0.2419,0.1882,0.3222,0.3848,0.4027,0.4116,0.8129,1.0446,1.1072,1.304,1.385,1.421,1.4299,1.4299,1.4299,1.4299,1.4299,1.4299,1.4299,1.4299,1.4299,1.4299,1.4299,1.4299,1.4299,1.4299,1.4299,1.4299,1.4299,1.4299,1.4299,1.4299,1.4299,1.4299,1.4299,1.4299,1.4299,1.4299,1.4299,1.4299,1.4299,1.4299,1.4299,1.4299,1.4299,1.4299,1.4299,1.4299,1.4299,1.4299,1.4299,1.4299,1.4299,1.4299,1.4299,1.4299,1.4299,1.4299,1.4299,1.4299,1.4299,1.4299,1.4299,1.4299,1.4299,1.4299,1.4299,1.4299,1.4299,1.4299,1.4299,1.4299,1.4299,1.4299,1.4299,1.4299,1.4299,1.4299,1.4299,1.4299,1.4299,1.4299,1.4299,1.4299,1.4299,1.4299,0.0,0.0,0.0,0.0,0.0,0.0,0.0,0.0,0.0,0.0,0.0,0.0,0.0,0.0,0.0,0.0,0.0,0.0,0.0,0.0,0.0,0.0,0.2115,0.3236,0.4467,0.5388,0.578,0.601,0.6879,0.3848,0.4116,0.5544,0.7057,0.8308,0.8575,1.0446,1.125,1.2863,1.3938,1.4299,1.4299,1.4299,1.4299,1.4299,1.4299,1.4299,1.4299,1.4299,1.4299,1.4299,1.4299,1.4299,1.4299,1.4299,1.4299,1.4299,1.4299,1.4299,1.4299,1.4299,1.4299,1.4299,1.4299,1.4299,1.4299,1.4299,1.4299,1.4299,1.4299,1.4299,1.4299,1.4299,1.4299,1.4299,1.4299,1.4299,1.4299,1.4299,1.4299,1.4299,1.4299,1.4299,1.4299,1.4299,1.4299,1.4299,1.4299,1.4299,1.4299,1.4299,1.4299,1.4299,1.4299,1.4299,1.4299,1.4299,1.4299,1.4299,1.4299,1.4299,1.4299,1.4299,1.4299,1.4299,1.4299,1.4299,1.4299,1.4299,1.4299,1.4299,1.4299,1.4299,1.4299,1.4299,1.4299,0.0,0.0,0.0,0.0,0.0,0.0,0.0,0.0,0.0,0.0,0.0,0.0,0.0,0.0,0.0,0.0,0.0,0.0,0.0,0.0,0.0,0.2017,0.32,0.4987,0.6894,0.7831,0.8177,0.8523,0.967,0.6424,0.6344,0.8219,0.9913,1.0717,1.1433,1.2237,1.2686,1.3938,1.4299,1.4299,1.4299,1.4299,1.4299,1.4299,1.4299,1.4299,1.4299,1.4299,1.4299,1.4299,1.4299,1.4299,1.4299,1.4299,1.4299,1.4299,1.4299,1.4299,1.4299,1.4299,1.4299,1.4299,1.4299,1.4299,1.4299,1.4299,1.4299,1.4299,1.4299,1.4299,1.4299,1.4299,1.4299,1.4299,1.4299,1.4299,1.4299,1.4299,1.4299,1.4299,1.4299,1.4299,1.4299,1.4299,1.4299,1.4299,1.4299,1.4299,1.4299,1.4299,1.4299,1.4299,1.4299,1.4299,1.4299,1.4299,1.4299,1.4299,1.4299,1.4299,1.4299,1.4299,1.4299,1.4299,1.4299,1.4299,1.4299,1.4299,1.4299,1.4299,1.4299,1.4299,1.4299,1.4299,1.4299,0.0,0.0,0.0,0.0,0.0,0.0,0.0,0.0,0.0,0.0,0.0,0.0,0.0,0.0,0.0,0.0,0.0,0.0,0.0,0.0,0.0,0.3191,0.5198,0.7634,0.9137,0.9974,1.0501,1.1139,1.3104,1.0043,0.9197,1.0002,1.0984,1.2237,1.3312,1.3761,1.3938,1.421,1.4299,1.4299,1.4299,1.4299,1.4299,1.4299,1.4299,1.4299,1.4299,1.4299,1.4299,1.4299,1.4299,1.4299,1.4299,1.4299,1.4299,1.4299,1.4299,1.4299,1.4299,1.4299,1.4299,1.4299,1.4299,1.4299,1.4299,1.4299,1.4299,1.4299,1.4299,1.4299,1.4299,1.4299,1.4299,1.4299,1.4299,1.4299,1.4299,1.4299,1.4299,1.4299,1.4299,1.4299,1.4299,1.4299,1.4299,1.4299,1.4299,1.4299,1.4299,1.4299,1.4299,1.4299,1.4299,1.4299,1.4299,1.4299,1.4299,1.4299,1.4299,1.4299,1.4299,1.4299,1.4299,1.4299,1.4299,1.4299,1.4299,1.4299,1.4299,1.4299,1.4299,1.4299,1.4299,1.4299,1.4299,0.0,0.0,0.0,0.0,0.0,0.0,0.0,0.0,0.0,0.0,0.0,0.0,0.0,0.0,0.0,0.0,0.0,0.0,0.0,0.2184,0.3441,0.5533,0.7539,0.9466,1.1048,1.2053,1.2671,1.2876,1.3613,1.1991,1.0895,1.0895,1.2237,1.3489,1.4027,1.4299,1.4299,1.4299,1.4299,1.4299,1.4299,1.4299,1.4299,1.4299,1.4299,1.4299,1.4299,1.4299,1.4299,1.4299,1.4299,1.4299,1.4299,1.4299,1.4299,1.4299,1.4299,1.4299,1.4299,1.4299,1.4299,1.4299,1.4299,1.4299,1.4299,1.4299,1.4299,1.4299,1.4299,1.4299,1.4299,1.4299,1.4299,1.4299,1.4299,1.4299,1.4299,1.4299,1.4299,1.4299,1.4299,1.4299,1.4299,1.4299,1.4299,1.4299,1.4299,1.4299,1.4299,1.4299,1.4299,1.4299,1.4299,1.4299,1.4299,1.4299,1.4299,1.4299,1.4299,1.4299,1.4299,1.4299,1.4299,1.4299,1.4299,1.4299,1.4299,1.4299,1.4299,1.4299,1.4299,1.4299,1.4299,1.4299,1.4299,0.0,0.0,0.0,0.0,0.0,0.0,0.0,0.0,0.0,0.0,0.0,0.0,0.0,0.0,0.0,0.0,0.0,0.0,0.2184,0.3023,0.503,0.7372,0.9545,1.097,1.2183,1.3191,1.3627,1.3494,1.3987,1.4102,1.3224,1.2591,1.385,1.4122,1.4299,1.4299,1.4299,1.4299,1.4299,1.4299,1.4299,1.4299,1.4299,1.4299,1.4299,1.4299,1.4299,1.4299,1.4299,1.4299,1.4299,1.4299,1.4299,1.4299,1.4299,1.4299,1.4299,1.4299,1.4299,1.4299,1.4299,1.4299,1.4299,1.4299,1.4299,1.4299,1.4299,1.4299,1.4299,1.4299,1.4299,1.4299,1.4299,1.4299,1.4299,1.4299,1.4299,1.4299,1.4299,1.4299,1.4299,1.4299,1.4299,1.4299,1.4299,1.4299,1.4299,1.4299,1.4299,1.4299,1.4299,1.4299,1.4299,1.4299,1.4299,1.4299,1.4299,1.4299,1.4299,1.4299,1.4299,1.4299,1.4299,1.4299,1.4299,1.4299,1.4299,1.4299,1.4299,1.4299,1.4299,1.4299,1.4299,1.4299,1.4299,0.0,0.0,0.0,0.0,0.0,0.0,0.0,0.0,0.0,0.0,0.0,0.0,0.0,0.0,0.0,0.0,0.1429,0.2603,0.4109,0.3942,0.7368,0.9795,1.097,1.2312,1.2919,1.3291,1.3539,1.3675,1.3878,1.4001,1.4163,1.4292,1.4299,1.4299,1.4299,1.4299,1.4299,1.4299,1.4299,1.4299,1.4299,1.4299,1.4299,1.4299,1.4299,1.4299,1.4299,1.4299,1.4299,1.4299,1.4299,1.4299,1.4299,1.4299,1.4299,1.4299,1.4299,1.4299,1.4299,1.4299,1.4299,1.4299,1.4299,1.4299,1.4299,1.4299,1.4299,1.4299,1.4299,1.4299,1.4299,1.4299,1.4299,1.4299,1.4299,1.4299,1.4299,1.4299,1.4299,1.4299,1.4299,1.4299,1.4299,1.4299,1.4299,1.4299,1.4299,1.4299,1.4299,1.4299,1.4299,1.4299,1.4299,1.4299,1.4299,1.4299,1.4299,1.4299,1.4299,1.4299,1.4299,1.4299,1.4299,1.4299,1.4299,1.4299,1.4299,1.4299,1.4299,1.4299,1.4299,1.4299,1.4299,1.4299,1.4299,0.0,0.0,0.0,0.0,0.0,0.0,0.0,0.0,0.0,0.0,0.0,0.0,0.0,0.0,0.0,0.2268,0.2771,0.4695,0.67,0.7702,0.9878,1.1214,1.2222,1.2982,1.3397,1.341,1.3478,1.3607,1.3824,1.4027,1.4197,1.4285,1.4299,1.4299,1.4299,1.4299,1.4299,1.4299,1.4299,1.4299,1.4299,1.4299,1.4299,1.4299,1.4299,1.4299,1.4299,1.4299,1.4299,1.4299,1.4299,1.4299,1.4299,1.4299,1.4299,1.4299,1.4299,1.4299,1.4299,1.4299,1.4299,1.4299,1.4299,1.4299,1.4299,1.4299,1.4299,1.4299,1.4299,1.4299,1.4299,1.4299,1.4299,1.4299,1.4299,1.4299,1.4299,1.4299,1.4299,1.4299,1.4299,1.4299,1.4299,1.4299,1.4299,1.4299,1.4299,1.4299,1.4299,1.4299,1.4299,1.4299,1.4299,1.4299,1.4299,1.4299,1.4299,1.4299,1.4299,1.4299,1.4299,1.4299,1.4299,1.4299,1.4299,1.4299,1.4299,1.4299,1.4299,1.4299,1.4299,1.4299,1.4299,1.4299,1.4299,0.0,0.0,0.0,0.0,0.0,0.0,0.0,0.0,0.0,0.0,0.0,0.0,0.0,0.0,0.0,0.3524,0.4111,0.6871,0.829,0.9795,1.1214,1.2222,1.3065,1.3397,1.3397,1.3403,1.3485,1.362,1.377,1.3973,1.4136,1.4211,1.4245,1.4299,1.4299,1.4299,1.4299,1.4299,1.4299,1.4299,1.4299,1.4299,1.4299,1.4299,1.4299,1.4299,1.4299,1.4299,1.4299,1.4299,1.4299,1.4299,1.4299,1.4299,1.4299,1.4299,1.4299,1.4299,1.4299,1.4299,1.4299,1.4299,1.4299,1.4299,1.4299,1.4299,1.4299,1.4299,1.4299,1.4299,1.4299,1.4299,1.4299,1.4299,1.4299,1.4299,1.4299,1.4299,1.4299,1.4299,1.4299,1.4299,1.4299,1.4299,1.4299,1.4299,1.4299,1.4299,1.4299,1.4299,1.4299,1.4299,1.4299,1.4299,1.4299,1.4299,1.4299,1.4299,1.4299,1.4299,1.4299,1.4299,1.4299,1.4299,1.4299,1.4299,1.4299,1.4299,1.4299,1.4299,1.4299,1.4299,1.4299,1.4299,1.4299,0.0,0.0,0.0,0.0,0.0,0.0,0.0,0.0,0.0,0.0,0.0,0.0,0.0421,0.1178,0.2688,0.3526,0.5449,0.8957,1.0377,1.1131,1.2478,1.2982,1.3148,1.3397,1.3397,1.3431,1.3505,1.3566,1.3661,1.3878,1.4034,1.4089,1.419,1.4299,1.4299,1.4299,1.4299,1.4299,1.4299,1.4299,1.4299,1.4299,1.4299,1.4299,1.4299,1.4299,1.4299,1.4299,1.4299,1.4299,1.4299,1.4299,1.4299,1.4299,1.4299,1.4299,1.4299,1.4299,1.4299,1.4299,1.4299,1.4299,1.4299,1.4299,1.4299,1.4299,1.4299,1.4299,1.4299,1.4299,1.4299,1.4299,1.4299,1.4299,1.4299,1.4299,1.4299,1.4299,1.4299,1.4299,1.4299,1.4299,1.4299,1.4299,1.4299,1.4299,1.4299,1.4299,1.4299,1.4299,1.4299,1.4299,1.4299,1.4299,1.4299,1.4299,1.4299,1.4299,1.4299,1.4299,1.4299,1.4299,1.4299,1.4299,1.4299,1.4299,1.4299,1.4299,1.4299,1.4299,1.4299,1.4299,1.4299,1.4299,1.4299,0.0,0.0,0.0,0.0,0.0,0.0,0.0,0.0,0.0,0.0,0.0,0.1932,0.2687,0.2855,0.503,0.6533,0.8123,1.1214,1.2388,1.3065,1.3148,1.3314,1.3397,1.3397,1.3397,1.3424,1.3458,1.3512,1.36,1.379,1.3953,1.4061,1.4224,1.4292,1.4299,1.4299,1.4299,1.4299,1.4299,1.4299,1.4299,1.4299,1.4299,1.4299,1.4299,1.4299,1.4299,1.4299,1.4299,1.4299,1.4299,1.4299,1.4299,1.4299,1.4299,1.4299,1.4299,1.4299,1.4299,1.4299,1.4299,1.4299,1.4299,1.4299,1.4299,1.4299,1.4299,1.4299,1.4299,1.4299,1.4299,1.4299,1.4299,1.4299,1.4299,1.4299,1.4299,1.4299,1.4299,1.4299,1.4299,1.4299,1.4299,1.4299,1.4299,1.4299,1.4299,1.4299,1.4299,1.4299,1.4299,1.4299,1.4299,1.4299,1.4299,1.4299,1.4299,1.4299,1.4299,1.4299,1.4299,1.4299,1.4299,1.4299,1.4299,1.4299,1.4299,1.4299,1.4299,1.4299,1.4299,1.4299,1.4299,1.4299,1.4299]}]]